<?xml version="1.0" encoding="UTF-8" standalone="no" ?>
<gpx xmlns="http://www.topografix.com/GPX/1/1" xmlns:xsi="http://www.w3.org/2001/XMLSchema-instance" xsi:schemaLocation="http://www.topografix.com/GPX/1/1 http://www.topografix.com/GPX/1/1/gpx.xsd" version="1.1" creator="VisuGPX - https://www.visugpx.com">
  <metadata>
    <name>Plouarzel - Belgrade</name>
    <desc><![CDATA[Arrivée à Belgrade le 11 juillet. 66 jours pédalés. 7 jours de repos.
]]></desc>
  </metadata>
  <trk>
    <name><![CDATA[Sortie à vélo]]></name>
    <extensions>
      <line xmlns="http://www.topografix.com/GPX/gpx_style/0/2">
        <color>0000FF</color>
        <width>4</width>
      </line>
    </extensions>
    <trkseg>
      <trkpt lat="47.89218" lon="-2.4663">
        <ele>97.82536</ele>
        <time>2023-05-05T10:37:40.236Z</time>
      </trkpt>
      <trkpt lat="47.89222" lon="-2.4665">
        <ele>97.82536</ele>
        <time>2023-05-05T10:37:56.151Z</time>
      </trkpt>
      <trkpt lat="47.89232" lon="-2.46661">
        <ele>97.82536</ele>
        <time>2023-05-05T10:38:00.144Z</time>
      </trkpt>
      <trkpt lat="47.89239" lon="-2.46677">
        <ele>97.82536</ele>
        <time>2023-05-05T10:38:03.141Z</time>
      </trkpt>
      <trkpt lat="47.89243" lon="-2.46689">
        <ele>97.82536</ele>
        <time>2023-05-05T10:38:05.137Z</time>
      </trkpt>
      <trkpt lat="47.89248" lon="-2.46709">
        <ele>97.82536</ele>
        <time>2023-05-05T10:38:08.153Z</time>
      </trkpt>
      <trkpt lat="47.8925" lon="-2.46725">
        <ele>97.82536</ele>
        <time>2023-05-05T10:38:10.150Z</time>
      </trkpt>
      <trkpt lat="47.89251" lon="-2.46738">
        <ele>97.82536</ele>
        <time>2023-05-05T10:38:12.149Z</time>
      </trkpt>
      <trkpt lat="47.8925" lon="-2.46753">
        <ele>97.637921</ele>
        <time>2023-05-05T10:38:14.149Z</time>
      </trkpt>
      <trkpt lat="47.89248" lon="-2.4677">
        <ele>96.82158</ele>
        <time>2023-05-05T10:38:16.152Z</time>
      </trkpt>
      <trkpt lat="47.89249" lon="-2.46784">
        <ele>96.149819</ele>
        <time>2023-05-05T10:38:18.146Z</time>
      </trkpt>
      <trkpt lat="47.89249" lon="-2.46798">
        <ele>95.483763</ele>
        <time>2023-05-05T10:38:20.152Z</time>
      </trkpt>
      <trkpt lat="47.89248" lon="-2.46816">
        <ele>94.625014</ele>
        <time>2023-05-05T10:38:23.157Z</time>
      </trkpt>
      <trkpt lat="47.89252" lon="-2.46832">
        <ele>93.825444</ele>
        <time>2023-05-05T10:38:26.147Z</time>
      </trkpt>
      <trkpt lat="47.8926" lon="-2.46844">
        <ele>92.965658</ele>
        <time>2023-05-05T10:38:29.153Z</time>
      </trkpt>
      <trkpt lat="47.89273" lon="-2.46846">
        <ele>92.069534</ele>
        <time>2023-05-05T10:38:32.148Z</time>
      </trkpt>
      <trkpt lat="47.89284" lon="-2.46841">
        <ele>91.212193</ele>
        <time>2023-05-05T10:38:35.146Z</time>
      </trkpt>
      <trkpt lat="47.89288" lon="-2.46829">
        <ele>90.566875</ele>
        <time>2023-05-05T10:38:37.150Z</time>
      </trkpt>
      <trkpt lat="47.89292" lon="-2.46817">
        <ele>89.911867</ele>
        <time>2023-05-05T10:38:39.149Z</time>
      </trkpt>
      <trkpt lat="47.89297" lon="-2.46804">
        <ele>89.211799</ele>
        <time>2023-05-05T10:38:41.151Z</time>
      </trkpt>
      <trkpt lat="47.89301" lon="-2.4679">
        <ele>88.496891</ele>
        <time>2023-05-05T10:38:43.150Z</time>
      </trkpt>
      <trkpt lat="47.89306" lon="-2.46774">
        <ele>87.648689</ele>
        <time>2023-05-05T10:38:46.151Z</time>
      </trkpt>
      <trkpt lat="47.89312" lon="-2.46743">
        <ele>86.078963</ele>
        <time>2023-05-05T10:40:20.154Z</time>
      </trkpt>
      <trkpt lat="47.89314" lon="-2.46729">
        <ele>85.432085</ele>
        <time>2023-05-05T10:40:22.157Z</time>
      </trkpt>
      <trkpt lat="47.89315" lon="-2.46716">
        <ele>84.932634</ele>
        <time>2023-05-05T10:40:24.151Z</time>
      </trkpt>
      <trkpt lat="47.89317" lon="-2.46702">
        <ele>84.787477</ele>
        <time>2023-05-05T10:40:26.150Z</time>
      </trkpt>
      <trkpt lat="47.89321" lon="-2.46688">
        <ele>84.628917</ele>
        <time>2023-05-05T10:40:28.154Z</time>
      </trkpt>
      <trkpt lat="47.89323" lon="-2.46674">
        <ele>84.480801</ele>
        <time>2023-05-05T10:40:30.155Z</time>
      </trkpt>
      <trkpt lat="47.89324" lon="-2.46658">
        <ele>84.323578</ele>
        <time>2023-05-05T10:40:32.149Z</time>
      </trkpt>
      <trkpt lat="47.89328" lon="-2.46643">
        <ele>84.15669</ele>
        <time>2023-05-05T10:40:34.146Z</time>
      </trkpt>
      <trkpt lat="47.89333" lon="-2.46627">
        <ele>83.975899</ele>
        <time>2023-05-05T10:40:36.150Z</time>
      </trkpt>
      <trkpt lat="47.89337" lon="-2.46612">
        <ele>83.810497</ele>
        <time>2023-05-05T10:40:38.148Z</time>
      </trkpt>
      <trkpt lat="47.89341" lon="-2.46598">
        <ele>83.658189</ele>
        <time>2023-05-05T10:40:40.152Z</time>
      </trkpt>
      <trkpt lat="47.89346" lon="-2.46583">
        <ele>83.482171</ele>
        <time>2023-05-05T10:40:42.151Z</time>
      </trkpt>
      <trkpt lat="47.89349" lon="-2.46562">
        <ele>83.26619</ele>
        <time>2023-05-05T10:40:45.150Z</time>
      </trkpt>
      <trkpt lat="47.8935" lon="-2.46548">
        <ele>83.120314</ele>
        <time>2023-05-05T10:40:47.154Z</time>
      </trkpt>
      <trkpt lat="47.89352" lon="-2.46532">
        <ele>82.958237</ele>
        <time>2023-05-05T10:40:50.150Z</time>
      </trkpt>
      <trkpt lat="47.89355" lon="-2.46513">
        <ele>82.754788</ele>
        <time>2023-05-05T10:40:53.153Z</time>
      </trkpt>
      <trkpt lat="47.89359" lon="-2.465">
        <ele>82.612113</ele>
        <time>2023-05-05T10:40:55.152Z</time>
      </trkpt>
      <trkpt lat="47.89362" lon="-2.46486">
        <ele>82.457554</ele>
        <time>2023-05-05T10:40:57.147Z</time>
      </trkpt>
      <trkpt lat="47.89367" lon="-2.46474">
        <ele>82.312536</ele>
        <time>2023-05-05T10:40:59.148Z</time>
      </trkpt>
      <trkpt lat="47.89371" lon="-2.46461">
        <ele>82.175139</ele>
        <time>2023-05-05T10:41:01.149Z</time>
      </trkpt>
      <trkpt lat="47.89378" lon="-2.46448">
        <ele>82.035532</ele>
        <time>2023-05-05T10:41:04.149Z</time>
      </trkpt>
      <trkpt lat="47.89388" lon="-2.46438">
        <ele>81.891872</ele>
        <time>2023-05-05T10:41:06.149Z</time>
      </trkpt>
      <trkpt lat="47.89399" lon="-2.4643">
        <ele>81.72893</ele>
        <time>2023-05-05T10:41:09.152Z</time>
      </trkpt>
      <trkpt lat="47.89408" lon="-2.46424">
        <ele>81.606386</ele>
        <time>2023-05-05T10:41:11.152Z</time>
      </trkpt>
      <trkpt lat="47.89418" lon="-2.46417">
        <ele>81.463385</ele>
        <time>2023-05-05T10:41:13.147Z</time>
      </trkpt>
      <trkpt lat="47.89427" lon="-2.46412">
        <ele>81.343817</ele>
        <time>2023-05-05T10:41:15.150Z</time>
      </trkpt>
      <trkpt lat="47.89439" lon="-2.46405">
        <ele>81.185988</ele>
        <time>2023-05-05T10:41:17.150Z</time>
      </trkpt>
      <trkpt lat="47.89451" lon="-2.46399">
        <ele>81.019557</ele>
        <time>2023-05-05T10:41:20.142Z</time>
      </trkpt>
      <trkpt lat="47.8946" lon="-2.46394">
        <ele>80.900888</ele>
        <time>2023-05-05T10:41:22.160Z</time>
      </trkpt>
      <trkpt lat="47.89472" lon="-2.46388">
        <ele>80.738504</ele>
        <time>2023-05-05T10:41:25.151Z</time>
      </trkpt>
      <trkpt lat="47.89481" lon="-2.46383">
        <ele>80.621273</ele>
        <time>2023-05-05T10:41:27.146Z</time>
      </trkpt>
      <trkpt lat="47.89491" lon="-2.46376">
        <ele>80.482083</ele>
        <time>2023-05-05T10:41:30.154Z</time>
      </trkpt>
      <trkpt lat="47.89501" lon="-2.46369">
        <ele>80.338104</ele>
        <time>2023-05-05T10:41:33.137Z</time>
      </trkpt>
      <trkpt lat="47.8951" lon="-2.46365">
        <ele>80.220286</ele>
        <time>2023-05-05T10:41:36.155Z</time>
      </trkpt>
      <trkpt lat="47.89518" lon="-2.46359">
        <ele>80.100042</ele>
        <time>2023-05-05T10:41:39.153Z</time>
      </trkpt>
      <trkpt lat="47.89529" lon="-2.46351">
        <ele>79.954879</ele>
        <time>2023-05-05T10:41:43.154Z</time>
      </trkpt>
      <trkpt lat="47.89537" lon="-2.46345">
        <ele>79.915818</ele>
        <time>2023-05-05T10:41:46.155Z</time>
      </trkpt>
      <trkpt lat="47.89546" lon="-2.46339">
        <ele>79.878514</ele>
        <time>2023-05-05T10:41:49.156Z</time>
      </trkpt>
      <trkpt lat="47.89555" lon="-2.46333">
        <ele>79.838258</ele>
        <time>2023-05-05T10:41:52.152Z</time>
      </trkpt>
      <trkpt lat="47.89566" lon="-2.46327">
        <ele>79.792472</ele>
        <time>2023-05-05T10:41:55.149Z</time>
      </trkpt>
      <trkpt lat="47.89578" lon="-2.4632">
        <ele>79.744458</ele>
        <time>2023-05-05T10:41:58.154Z</time>
      </trkpt>
      <trkpt lat="47.8959" lon="-2.46313">
        <ele>79.694791</ele>
        <time>2023-05-05T10:42:01.154Z</time>
      </trkpt>
      <trkpt lat="47.896" lon="-2.46308">
        <ele>79.65372</ele>
        <time>2023-05-05T10:42:04.149Z</time>
      </trkpt>
      <trkpt lat="47.8961" lon="-2.46302">
        <ele>79.612907</ele>
        <time>2023-05-05T10:42:07.148Z</time>
      </trkpt>
      <trkpt lat="47.8962" lon="-2.46295">
        <ele>79.57078</ele>
        <time>2023-05-05T10:42:10.149Z</time>
      </trkpt>
      <trkpt lat="47.89631" lon="-2.46289">
        <ele>79.52383</ele>
        <time>2023-05-05T10:42:13.144Z</time>
      </trkpt>
      <trkpt lat="47.89642" lon="-2.46284">
        <ele>79.480853</ele>
        <time>2023-05-05T10:42:16.155Z</time>
      </trkpt>
      <trkpt lat="47.89652" lon="-2.46277">
        <ele>79.436188</ele>
        <time>2023-05-05T10:42:19.152Z</time>
      </trkpt>
      <trkpt lat="47.89662" lon="-2.46271">
        <ele>79.395028</ele>
        <time>2023-05-05T10:42:22.158Z</time>
      </trkpt>
      <trkpt lat="47.89672" lon="-2.46266">
        <ele>79.356399</ele>
        <time>2023-05-05T10:42:25.148Z</time>
      </trkpt>
      <trkpt lat="47.89683" lon="-2.4626">
        <ele>79.310895</ele>
        <time>2023-05-05T10:42:28.147Z</time>
      </trkpt>
      <trkpt lat="47.89695" lon="-2.46253">
        <ele>79.261954</ele>
        <time>2023-05-05T10:42:31.156Z</time>
      </trkpt>
      <trkpt lat="47.89703" lon="-2.46248">
        <ele>79.078037</ele>
        <time>2023-05-05T10:42:33.151Z</time>
      </trkpt>
      <trkpt lat="47.89711" lon="-2.46242">
        <ele>78.85012</ele>
        <time>2023-05-05T10:42:35.153Z</time>
      </trkpt>
      <trkpt lat="47.8972" lon="-2.46235">
        <ele>78.606863</ele>
        <time>2023-05-05T10:42:37.156Z</time>
      </trkpt>
      <trkpt lat="47.89729" lon="-2.4623">
        <ele>78.369924</ele>
        <time>2023-05-05T10:42:39.154Z</time>
      </trkpt>
      <trkpt lat="47.89738" lon="-2.46225">
        <ele>78.135884</ele>
        <time>2023-05-05T10:42:41.153Z</time>
      </trkpt>
      <trkpt lat="47.89747" lon="-2.4622">
        <ele>77.895866</ele>
        <time>2023-05-05T10:42:43.150Z</time>
      </trkpt>
      <trkpt lat="47.8976" lon="-2.46213">
        <ele>77.567527</ele>
        <time>2023-05-05T10:42:46.150Z</time>
      </trkpt>
      <trkpt lat="47.89769" lon="-2.46206">
        <ele>77.315888</ele>
        <time>2023-05-05T10:42:48.153Z</time>
      </trkpt>
      <trkpt lat="47.89779" lon="-2.462">
        <ele>77.055846</ele>
        <time>2023-05-05T10:42:50.156Z</time>
      </trkpt>
      <trkpt lat="47.89788" lon="-2.46195">
        <ele>76.81002</ele>
        <time>2023-05-05T10:42:52.157Z</time>
      </trkpt>
      <trkpt lat="47.89797" lon="-2.46189">
        <ele>76.562175</ele>
        <time>2023-05-05T10:42:54.154Z</time>
      </trkpt>
      <trkpt lat="47.89809" lon="-2.46184">
        <ele>76.272914</ele>
        <time>2023-05-05T10:42:56.155Z</time>
      </trkpt>
      <trkpt lat="47.89819" lon="-2.46178">
        <ele>76.006045</ele>
        <time>2023-05-05T10:42:58.149Z</time>
      </trkpt>
      <trkpt lat="47.89828" lon="-2.46174">
        <ele>75.761067</ele>
        <time>2023-05-05T10:43:00.152Z</time>
      </trkpt>
      <trkpt lat="47.89839" lon="-2.4617">
        <ele>75.482225</ele>
        <time>2023-05-05T10:43:02.154Z</time>
      </trkpt>
      <trkpt lat="47.89851" lon="-2.46168">
        <ele>75.20641</ele>
        <time>2023-05-05T10:43:04.151Z</time>
      </trkpt>
      <trkpt lat="47.89861" lon="-2.46167">
        <ele>74.96027</ele>
        <time>2023-05-05T10:43:06.149Z</time>
      </trkpt>
      <trkpt lat="47.89871" lon="-2.46167">
        <ele>74.790595</ele>
        <time>2023-05-05T10:43:08.151Z</time>
      </trkpt>
      <trkpt lat="47.89884" lon="-2.46168">
        <ele>74.666705</ele>
        <time>2023-05-05T10:43:11.162Z</time>
      </trkpt>
      <trkpt lat="47.89894" lon="-2.4617">
        <ele>74.574025</ele>
        <time>2023-05-05T10:43:13.146Z</time>
      </trkpt>
      <trkpt lat="47.89903" lon="-2.46174">
        <ele>74.484439</ele>
        <time>2023-05-05T10:43:15.157Z</time>
      </trkpt>
      <trkpt lat="47.89912" lon="-2.46176">
        <ele>74.398815</ele>
        <time>2023-05-05T10:43:17.153Z</time>
      </trkpt>
      <trkpt lat="47.89923" lon="-2.4618">
        <ele>74.296919</ele>
        <time>2023-05-05T10:43:19.161Z</time>
      </trkpt>
      <trkpt lat="47.89936" lon="-2.46186">
        <ele>74.167274</ele>
        <time>2023-05-05T10:43:22.150Z</time>
      </trkpt>
      <trkpt lat="47.89946" lon="-2.46189">
        <ele>74.074126</ele>
        <time>2023-05-05T10:43:24.156Z</time>
      </trkpt>
      <trkpt lat="47.89958" lon="-2.46192">
        <ele>73.964854</ele>
        <time>2023-05-05T10:43:27.147Z</time>
      </trkpt>
      <trkpt lat="47.89971" lon="-2.46198">
        <ele>73.841819</ele>
        <time>2023-05-05T10:43:30.157Z</time>
      </trkpt>
      <trkpt lat="47.89981" lon="-2.46203">
        <ele>73.738686</ele>
        <time>2023-05-05T10:43:33.149Z</time>
      </trkpt>
      <trkpt lat="47.8999" lon="-2.46208">
        <ele>73.648059</ele>
        <time>2023-05-05T10:43:36.151Z</time>
      </trkpt>
      <trkpt lat="47.90001" lon="-2.46207">
        <ele>73.549391</ele>
        <time>2023-05-05T10:43:40.152Z</time>
      </trkpt>
      <trkpt lat="47.90007" lon="-2.46191">
        <ele>73.440221</ele>
        <time>2023-05-05T10:43:43.149Z</time>
      </trkpt>
      <trkpt lat="47.90011" lon="-2.46172">
        <ele>73.31458</ele>
        <time>2023-05-05T10:43:46.154Z</time>
      </trkpt>
      <trkpt lat="47.90015" lon="-2.46154">
        <ele>73.193933</ele>
        <time>2023-05-05T10:43:49.157Z</time>
      </trkpt>
      <trkpt lat="47.9002" lon="-2.46138">
        <ele>73.172852</ele>
        <time>2023-05-05T10:43:52.154Z</time>
      </trkpt>
      <trkpt lat="47.90023" lon="-2.46125">
        <ele>73.17475</ele>
        <time>2023-05-05T10:44:06.153Z</time>
      </trkpt>
      <trkpt lat="47.90028" lon="-2.46105">
        <ele>73.177737</ele>
        <time>2023-05-05T10:45:41.150Z</time>
      </trkpt>
      <trkpt lat="47.9003" lon="-2.4609">
        <ele>73.179845</ele>
        <time>2023-05-05T10:45:45.156Z</time>
      </trkpt>
      <trkpt lat="47.90032" lon="-2.46075">
        <ele>73.182026</ele>
        <time>2023-05-05T10:45:49.149Z</time>
      </trkpt>
      <trkpt lat="47.90033" lon="-2.46058">
        <ele>73.184324</ele>
        <time>2023-05-05T10:45:53.150Z</time>
      </trkpt>
      <trkpt lat="47.90033" lon="-2.46043">
        <ele>73.186336</ele>
        <time>2023-05-05T10:45:56.153Z</time>
      </trkpt>
      <trkpt lat="47.90035" lon="-2.46026">
        <ele>73.188802</ele>
        <time>2023-05-05T10:45:59.148Z</time>
      </trkpt>
      <trkpt lat="47.90035" lon="-2.46009">
        <ele>73.1911</ele>
        <time>2023-05-05T10:46:02.150Z</time>
      </trkpt>
      <trkpt lat="47.90033" lon="-2.45991">
        <ele>73.193566</ele>
        <time>2023-05-05T10:46:05.159Z</time>
      </trkpt>
      <trkpt lat="47.90033" lon="-2.45973">
        <ele>73.196057</ele>
        <time>2023-05-05T10:46:08.155Z</time>
      </trkpt>
      <trkpt lat="47.90033" lon="-2.45955">
        <ele>73.198605</ele>
        <time>2023-05-05T10:46:11.153Z</time>
      </trkpt>
      <trkpt lat="47.90033" lon="-2.45937">
        <ele>73.200999</ele>
        <time>2023-05-05T10:46:14.153Z</time>
      </trkpt>
      <trkpt lat="47.90032" lon="-2.45922">
        <ele>73.2031</ele>
        <time>2023-05-05T10:46:17.155Z</time>
      </trkpt>
      <trkpt lat="47.90029" lon="-2.45905">
        <ele>73.205486</ele>
        <time>2023-05-05T10:46:21.152Z</time>
      </trkpt>
      <trkpt lat="47.90025" lon="-2.45891">
        <ele>73.207675</ele>
        <time>2023-05-05T10:46:25.152Z</time>
      </trkpt>
      <trkpt lat="47.90021" lon="-2.45876">
        <ele>73.046217</ele>
        <time>2023-05-05T10:46:29.155Z</time>
      </trkpt>
      <trkpt lat="47.90015" lon="-2.45863">
        <ele>72.855468</ele>
        <time>2023-05-05T10:46:33.154Z</time>
      </trkpt>
      <trkpt lat="47.90008" lon="-2.45849">
        <ele>72.655215</ele>
        <time>2023-05-05T10:46:36.149Z</time>
      </trkpt>
      <trkpt lat="47.9" lon="-2.45838">
        <ele>72.455101</ele>
        <time>2023-05-05T10:46:39.152Z</time>
      </trkpt>
      <trkpt lat="47.89994" lon="-2.45827">
        <ele>72.291281</ele>
        <time>2023-05-05T10:46:41.154Z</time>
      </trkpt>
      <trkpt lat="47.89985" lon="-2.45815">
        <ele>72.069103</ele>
        <time>2023-05-05T10:46:44.145Z</time>
      </trkpt>
      <trkpt lat="47.89977" lon="-2.45803">
        <ele>71.879442</ele>
        <time>2023-05-05T10:46:46.161Z</time>
      </trkpt>
      <trkpt lat="47.89968" lon="-2.45792">
        <ele>71.658046</ele>
        <time>2023-05-05T10:46:49.157Z</time>
      </trkpt>
      <trkpt lat="47.8996" lon="-2.45785">
        <ele>71.492498</ele>
        <time>2023-05-05T10:46:51.152Z</time>
      </trkpt>
      <trkpt lat="47.89951" lon="-2.45777">
        <ele>71.308976</ele>
        <time>2023-05-05T10:46:53.149Z</time>
      </trkpt>
      <trkpt lat="47.89941" lon="-2.45768">
        <ele>71.101078</ele>
        <time>2023-05-05T10:46:56.151Z</time>
      </trkpt>
      <trkpt lat="47.89933" lon="-2.45761">
        <ele>70.936333</ele>
        <time>2023-05-05T10:46:58.149Z</time>
      </trkpt>
      <trkpt lat="47.89922" lon="-2.45753">
        <ele>70.720618</ele>
        <time>2023-05-05T10:47:01.165Z</time>
      </trkpt>
      <trkpt lat="47.89912" lon="-2.45745">
        <ele>70.515066</ele>
        <time>2023-05-05T10:47:04.153Z</time>
      </trkpt>
      <trkpt lat="47.89901" lon="-2.45736">
        <ele>70.2924</ele>
        <time>2023-05-05T10:47:07.157Z</time>
      </trkpt>
      <trkpt lat="47.89889" lon="-2.45725">
        <ele>70.052717</ele>
        <time>2023-05-05T10:47:10.153Z</time>
      </trkpt>
      <trkpt lat="47.89878" lon="-2.45716">
        <ele>70.032816</ele>
        <time>2023-05-05T10:47:13.150Z</time>
      </trkpt>
      <trkpt lat="47.89867" lon="-2.45709">
        <ele>70.053006</ele>
        <time>2023-05-05T10:47:16.152Z</time>
      </trkpt>
      <trkpt lat="47.89855" lon="-2.45701">
        <ele>70.07265</ele>
        <time>2023-05-05T10:47:19.146Z</time>
      </trkpt>
      <trkpt lat="47.89844" lon="-2.45695">
        <ele>70.092059</ele>
        <time>2023-05-05T10:47:22.153Z</time>
      </trkpt>
      <trkpt lat="47.89835" lon="-2.4569">
        <ele>70.10739</ele>
        <time>2023-05-05T10:47:24.156Z</time>
      </trkpt>
      <trkpt lat="47.89823" lon="-2.45682">
        <ele>70.129423</ele>
        <time>2023-05-05T10:47:27.152Z</time>
      </trkpt>
      <trkpt lat="47.89814" lon="-2.45677">
        <ele>70.145171</ele>
        <time>2023-05-05T10:47:29.151Z</time>
      </trkpt>
      <trkpt lat="47.89802" lon="-2.45671">
        <ele>70.165224</ele>
        <time>2023-05-05T10:47:32.156Z</time>
      </trkpt>
      <trkpt lat="47.89793" lon="-2.45667">
        <ele>70.179825</ele>
        <time>2023-05-05T10:47:34.156Z</time>
      </trkpt>
      <trkpt lat="47.89781" lon="-2.45658">
        <ele>70.201096</ele>
        <time>2023-05-05T10:47:37.160Z</time>
      </trkpt>
      <trkpt lat="47.8977" lon="-2.4565">
        <ele>70.221755</ele>
        <time>2023-05-05T10:47:40.150Z</time>
      </trkpt>
      <trkpt lat="47.89758" lon="-2.45642">
        <ele>70.243217</ele>
        <time>2023-05-05T10:47:43.151Z</time>
      </trkpt>
      <trkpt lat="47.89749" lon="-2.45635">
        <ele>70.259579</ele>
        <time>2023-05-05T10:47:45.153Z</time>
      </trkpt>
      <trkpt lat="47.8974" lon="-2.45628">
        <ele>70.275531</ele>
        <time>2023-05-05T10:47:47.152Z</time>
      </trkpt>
      <trkpt lat="47.89732" lon="-2.45621">
        <ele>70.290014</ele>
        <time>2023-05-05T10:47:49.145Z</time>
      </trkpt>
      <trkpt lat="47.89723" lon="-2.45611">
        <ele>70.297697</ele>
        <time>2023-05-05T10:47:51.157Z</time>
      </trkpt>
      <trkpt lat="47.89715" lon="-2.45604">
        <ele>70.231047</ele>
        <time>2023-05-05T10:47:53.156Z</time>
      </trkpt>
      <trkpt lat="47.89705" lon="-2.45591">
        <ele>70.139946</ele>
        <time>2023-05-05T10:47:56.154Z</time>
      </trkpt>
      <trkpt lat="47.89695" lon="-2.4558">
        <ele>70.053879</ele>
        <time>2023-05-05T10:47:59.152Z</time>
      </trkpt>
      <trkpt lat="47.89684" lon="-2.45569">
        <ele>69.968061</ele>
        <time>2023-05-05T10:48:02.137Z</time>
      </trkpt>
      <trkpt lat="47.89674" lon="-2.4556">
        <ele>69.888558</ele>
        <time>2023-05-05T10:48:05.135Z</time>
      </trkpt>
      <trkpt lat="47.89664" lon="-2.4555">
        <ele>69.806492</ele>
        <time>2023-05-05T10:48:08.151Z</time>
      </trkpt>
      <trkpt lat="47.89654" lon="-2.45539">
        <ele>69.722534</ele>
        <time>2023-05-05T10:48:11.147Z</time>
      </trkpt>
      <trkpt lat="47.89644" lon="-2.45528">
        <ele>69.637269</ele>
        <time>2023-05-05T10:48:14.144Z</time>
      </trkpt>
      <trkpt lat="47.89634" lon="-2.45518">
        <ele>69.552186</ele>
        <time>2023-05-05T10:48:17.160Z</time>
      </trkpt>
      <trkpt lat="47.89622" lon="-2.45507">
        <ele>69.461628</ele>
        <time>2023-05-05T10:48:20.154Z</time>
      </trkpt>
      <trkpt lat="47.89611" lon="-2.45498">
        <ele>69.372167</ele>
        <time>2023-05-05T10:48:23.157Z</time>
      </trkpt>
      <trkpt lat="47.89598" lon="-2.45492">
        <ele>69.281865</ele>
        <time>2023-05-05T10:48:26.153Z</time>
      </trkpt>
      <trkpt lat="47.89585" lon="-2.45487">
        <ele>69.192128</ele>
        <time>2023-05-05T10:48:29.153Z</time>
      </trkpt>
      <trkpt lat="47.89577" lon="-2.45483">
        <ele>69.130528</ele>
        <time>2023-05-05T10:48:31.156Z</time>
      </trkpt>
      <trkpt lat="47.89568" lon="-2.45479">
        <ele>69.089657</ele>
        <time>2023-05-05T10:48:33.149Z</time>
      </trkpt>
      <trkpt lat="47.89558" lon="-2.45476">
        <ele>69.113903</ele>
        <time>2023-05-05T10:48:35.159Z</time>
      </trkpt>
      <trkpt lat="47.89546" lon="-2.45472">
        <ele>69.145676</ele>
        <time>2023-05-05T10:48:38.154Z</time>
      </trkpt>
      <trkpt lat="47.89535" lon="-2.45468">
        <ele>69.175068</ele>
        <time>2023-05-05T10:48:41.153Z</time>
      </trkpt>
      <trkpt lat="47.89526" lon="-2.45464">
        <ele>69.199417</ele>
        <time>2023-05-05T10:48:44.153Z</time>
      </trkpt>
      <trkpt lat="47.89515" lon="-2.45459">
        <ele>69.227904</ele>
        <time>2023-05-05T10:48:48.147Z</time>
      </trkpt>
      <trkpt lat="47.89507" lon="-2.45454">
        <ele>69.251853</ele>
        <time>2023-05-05T10:48:51.155Z</time>
      </trkpt>
      <trkpt lat="47.89499" lon="-2.45446">
        <ele>69.275956</ele>
        <time>2023-05-05T10:48:54.154Z</time>
      </trkpt>
      <trkpt lat="47.8949" lon="-2.45436">
        <ele>69.304557</ele>
        <time>2023-05-05T10:48:57.156Z</time>
      </trkpt>
      <trkpt lat="47.89483" lon="-2.45425">
        <ele>69.332288</ele>
        <time>2023-05-05T10:49:00.153Z</time>
      </trkpt>
      <trkpt lat="47.89475" lon="-2.45414">
        <ele>69.358134</ele>
        <time>2023-05-05T10:49:03.149Z</time>
      </trkpt>
      <trkpt lat="47.88098" lon="-2.42378">
        <ele>69.32121</ele>
        <time>2023-05-05T11:02:36.158Z</time>
      </trkpt>
      <trkpt lat="47.88104" lon="-2.42357">
        <ele>69.284787</ele>
        <time>2023-05-05T11:02:37.149Z</time>
      </trkpt>
      <trkpt lat="47.88093" lon="-2.42334">
        <ele>69.240931</ele>
        <time>2023-05-05T11:05:01.148Z</time>
      </trkpt>
      <trkpt lat="47.88084" lon="-2.42325">
        <ele>69.215761</ele>
        <time>2023-05-05T11:05:08.153Z</time>
      </trkpt>
      <trkpt lat="47.88073" lon="-2.42322">
        <ele>69.189238</ele>
        <time>2023-05-05T11:05:12.141Z</time>
      </trkpt>
      <trkpt lat="47.88063" lon="-2.42321">
        <ele>69.167749</ele>
        <time>2023-05-05T11:05:17.139Z</time>
      </trkpt>
      <trkpt lat="47.88051" lon="-2.42325">
        <ele>69.138688</ele>
        <time>2023-05-05T11:05:38.149Z</time>
      </trkpt>
      <trkpt lat="47.8804" lon="-2.42327">
        <ele>69.113404</ele>
        <time>2023-05-05T11:05:41.150Z</time>
      </trkpt>
      <trkpt lat="47.8803" lon="-2.42328">
        <ele>69.090381</ele>
        <time>2023-05-05T11:05:44.149Z</time>
      </trkpt>
      <trkpt lat="47.88019" lon="-2.42331">
        <ele>69.064969</ele>
        <time>2023-05-05T11:05:48.163Z</time>
      </trkpt>
      <trkpt lat="47.88009" lon="-2.42336">
        <ele>69.041058</ele>
        <time>2023-05-05T11:06:12.153Z</time>
      </trkpt>
      <trkpt lat="47.87999" lon="-2.42336">
        <ele>69.016115</ele>
        <time>2023-05-05T11:06:16.153Z</time>
      </trkpt>
      <trkpt lat="47.87989" lon="-2.42336">
        <ele>68.988567</ele>
        <time>2023-05-05T11:06:20.153Z</time>
      </trkpt>
      <trkpt lat="47.87977" lon="-2.42336">
        <ele>68.952917</ele>
        <time>2023-05-05T11:07:30.149Z</time>
      </trkpt>
      <trkpt lat="47.87966" lon="-2.42339">
        <ele>68.920065</ele>
        <time>2023-05-05T11:07:34.151Z</time>
      </trkpt>
      <trkpt lat="47.87956" lon="-2.42341">
        <ele>68.891341</ele>
        <time>2023-05-05T11:07:37.144Z</time>
      </trkpt>
      <trkpt lat="47.87946" lon="-2.42343">
        <ele>68.861571</ele>
        <time>2023-05-05T11:07:40.149Z</time>
      </trkpt>
      <trkpt lat="47.87934" lon="-2.42345">
        <ele>68.828633</ele>
        <time>2023-05-05T11:07:43.157Z</time>
      </trkpt>
      <trkpt lat="47.87923" lon="-2.42347">
        <ele>68.795147</ele>
        <time>2023-05-05T11:07:46.153Z</time>
      </trkpt>
      <trkpt lat="47.87911" lon="-2.42353">
        <ele>68.759926</ele>
        <time>2023-05-05T11:07:49.153Z</time>
      </trkpt>
      <trkpt lat="47.87901" lon="-2.42359">
        <ele>68.728342</ele>
        <time>2023-05-05T11:07:52.153Z</time>
      </trkpt>
      <trkpt lat="47.87892" lon="-2.42366">
        <ele>68.697108</ele>
        <time>2023-05-05T11:07:55.151Z</time>
      </trkpt>
      <trkpt lat="47.87883" lon="-2.4237">
        <ele>68.669832</ele>
        <time>2023-05-05T11:07:58.143Z</time>
      </trkpt>
      <trkpt lat="47.87873" lon="-2.42376">
        <ele>68.640094</ele>
        <time>2023-05-05T11:08:02.145Z</time>
      </trkpt>
      <trkpt lat="47.87864" lon="-2.4238">
        <ele>68.61334</ele>
        <time>2023-05-05T11:08:06.148Z</time>
      </trkpt>
      <trkpt lat="47.87854" lon="-2.42387">
        <ele>68.580532</ele>
        <time>2023-05-05T11:08:09.148Z</time>
      </trkpt>
      <trkpt lat="47.87843" lon="-2.42394">
        <ele>68.546989</ele>
        <time>2023-05-05T11:08:12.157Z</time>
      </trkpt>
      <trkpt lat="47.87831" lon="-2.42401">
        <ele>68.508173</ele>
        <time>2023-05-05T11:08:15.154Z</time>
      </trkpt>
      <trkpt lat="47.87822" lon="-2.42407">
        <ele>68.512689</ele>
        <time>2023-05-05T11:08:17.148Z</time>
      </trkpt>
      <trkpt lat="47.87814" lon="-2.42414">
        <ele>68.550846</ele>
        <time>2023-05-05T11:08:19.138Z</time>
      </trkpt>
      <trkpt lat="47.87803" lon="-2.42425">
        <ele>68.603527</ele>
        <time>2023-05-05T11:08:22.135Z</time>
      </trkpt>
      <trkpt lat="47.87794" lon="-2.42435">
        <ele>68.649102</ele>
        <time>2023-05-05T11:08:25.154Z</time>
      </trkpt>
      <trkpt lat="47.87785" lon="-2.42445">
        <ele>68.693832</ele>
        <time>2023-05-05T11:08:29.153Z</time>
      </trkpt>
      <trkpt lat="47.87776" lon="-2.42455">
        <ele>68.740344</ele>
        <time>2023-05-05T11:08:33.158Z</time>
      </trkpt>
      <trkpt lat="47.87765" lon="-2.42467">
        <ele>68.793015</ele>
        <time>2023-05-05T11:08:37.158Z</time>
      </trkpt>
      <trkpt lat="47.87758" lon="-2.42476">
        <ele>68.831767</ele>
        <time>2023-05-05T11:08:40.155Z</time>
      </trkpt>
      <trkpt lat="47.87749" lon="-2.42485">
        <ele>68.874877</ele>
        <time>2023-05-05T11:08:43.215Z</time>
      </trkpt>
      <trkpt lat="47.87741" lon="-2.42496">
        <ele>68.919414</ele>
        <time>2023-05-05T11:08:46.153Z</time>
      </trkpt>
      <trkpt lat="47.87733" lon="-2.42506">
        <ele>68.960132</ele>
        <time>2023-05-05T11:08:49.147Z</time>
      </trkpt>
      <trkpt lat="47.87725" lon="-2.42519">
        <ele>69.009117</ele>
        <time>2023-05-05T11:08:53.158Z</time>
      </trkpt>
      <trkpt lat="47.87717" lon="-2.42531">
        <ele>69.057289</ele>
        <time>2023-05-05T11:08:56.153Z</time>
      </trkpt>
      <trkpt lat="47.87707" lon="-2.42544">
        <ele>69.108162</ele>
        <time>2023-05-05T11:08:59.152Z</time>
      </trkpt>
      <trkpt lat="47.87697" lon="-2.42559">
        <ele>69.164745</ele>
        <time>2023-05-05T11:09:02.154Z</time>
      </trkpt>
      <trkpt lat="47.87691" lon="-2.42569">
        <ele>69.203272</ele>
        <time>2023-05-05T11:09:04.165Z</time>
      </trkpt>
      <trkpt lat="47.87682" lon="-2.42582">
        <ele>69.160266</ele>
        <time>2023-05-05T11:09:07.163Z</time>
      </trkpt>
      <trkpt lat="47.87676" lon="-2.42592">
        <ele>69.091613</ele>
        <time>2023-05-05T11:09:09.159Z</time>
      </trkpt>
      <trkpt lat="47.87668" lon="-2.42606">
        <ele>68.998801</ele>
        <time>2023-05-05T11:09:12.151Z</time>
      </trkpt>
      <trkpt lat="47.87661" lon="-2.42618">
        <ele>68.917513</ele>
        <time>2023-05-05T11:09:15.154Z</time>
      </trkpt>
      <trkpt lat="47.87656" lon="-2.42631">
        <ele>68.841447</ele>
        <time>2023-05-05T11:09:18.151Z</time>
      </trkpt>
      <trkpt lat="47.8765" lon="-2.42643">
        <ele>68.763255</ele>
        <time>2023-05-05T11:09:21.149Z</time>
      </trkpt>
      <trkpt lat="47.87644" lon="-2.42658">
        <ele>68.674864</ele>
        <time>2023-05-05T11:09:24.164Z</time>
      </trkpt>
      <trkpt lat="47.87637" lon="-2.42673">
        <ele>68.585697</ele>
        <time>2023-05-05T11:09:27.165Z</time>
      </trkpt>
      <trkpt lat="47.87631" lon="-2.42687">
        <ele>68.496932</ele>
        <time>2023-05-05T11:09:30.148Z</time>
      </trkpt>
      <trkpt lat="47.87623" lon="-2.42701">
        <ele>68.404714</ele>
        <time>2023-05-05T11:09:33.144Z</time>
      </trkpt>
      <trkpt lat="47.87615" lon="-2.42716">
        <ele>68.305569</ele>
        <time>2023-05-05T11:09:36.156Z</time>
      </trkpt>
      <trkpt lat="47.87606" lon="-2.42729">
        <ele>68.21335</ele>
        <time>2023-05-05T11:09:39.159Z</time>
      </trkpt>
      <trkpt lat="47.87599" lon="-2.42739">
        <ele>68.14089</ele>
        <time>2023-05-05T11:09:42.154Z</time>
      </trkpt>
      <trkpt lat="47.87591" lon="-2.42749">
        <ele>68.060782</ele>
        <time>2023-05-05T11:09:45.153Z</time>
      </trkpt>
      <trkpt lat="47.87583" lon="-2.42759">
        <ele>67.977453</ele>
        <time>2023-05-05T11:09:48.149Z</time>
      </trkpt>
      <trkpt lat="47.87572" lon="-2.42768">
        <ele>67.885411</ele>
        <time>2023-05-05T11:09:51.155Z</time>
      </trkpt>
      <trkpt lat="47.87563" lon="-2.42775">
        <ele>67.891936</ele>
        <time>2023-05-05T11:09:54.153Z</time>
      </trkpt>
      <trkpt lat="47.87552" lon="-2.42782">
        <ele>67.952885</ele>
        <time>2023-05-05T11:09:57.155Z</time>
      </trkpt>
      <trkpt lat="47.87541" lon="-2.42788">
        <ele>68.02046</ele>
        <time>2023-05-05T11:10:00.147Z</time>
      </trkpt>
      <trkpt lat="47.87529" lon="-2.42793">
        <ele>68.0876</ele>
        <time>2023-05-05T11:10:03.155Z</time>
      </trkpt>
      <trkpt lat="47.87517" lon="-2.42797">
        <ele>68.151704</ele>
        <time>2023-05-05T11:10:06.149Z</time>
      </trkpt>
      <trkpt lat="47.87507" lon="-2.42798">
        <ele>68.206902</ele>
        <time>2023-05-05T11:10:09.152Z</time>
      </trkpt>
      <trkpt lat="47.87497" lon="-2.42799">
        <ele>68.259898</ele>
        <time>2023-05-05T11:10:12.150Z</time>
      </trkpt>
      <trkpt lat="47.87487" lon="-2.42799">
        <ele>68.314957</ele>
        <time>2023-05-05T11:10:15.152Z</time>
      </trkpt>
      <trkpt lat="47.87475" lon="-2.428">
        <ele>68.376498</ele>
        <time>2023-05-05T11:10:18.154Z</time>
      </trkpt>
      <trkpt lat="47.87464" lon="-2.428">
        <ele>68.436427</ele>
        <time>2023-05-05T11:10:21.156Z</time>
      </trkpt>
      <trkpt lat="47.87453" lon="-2.42799">
        <ele>68.496497</ele>
        <time>2023-05-05T11:10:24.155Z</time>
      </trkpt>
      <trkpt lat="47.87441" lon="-2.428">
        <ele>68.563474</ele>
        <time>2023-05-05T11:10:27.154Z</time>
      </trkpt>
      <trkpt lat="47.87428" lon="-2.42799">
        <ele>68.632025</ele>
        <time>2023-05-05T11:10:30.157Z</time>
      </trkpt>
      <trkpt lat="47.87416" lon="-2.42798">
        <ele>68.697456</ele>
        <time>2023-05-05T11:10:33.153Z</time>
      </trkpt>
      <trkpt lat="47.87404" lon="-2.42798">
        <ele>68.76387</ele>
        <time>2023-05-05T11:10:36.154Z</time>
      </trkpt>
      <trkpt lat="47.87393" lon="-2.42795">
        <ele>68.820381</ele>
        <time>2023-05-05T11:10:39.154Z</time>
      </trkpt>
      <trkpt lat="47.87383" lon="-2.42792">
        <ele>68.90047</ele>
        <time>2023-05-05T11:10:42.160Z</time>
      </trkpt>
      <trkpt lat="47.87374" lon="-2.42789">
        <ele>68.971142</ele>
        <time>2023-05-05T11:10:45.153Z</time>
      </trkpt>
      <trkpt lat="47.87362" lon="-2.42785">
        <ele>69.060285</ele>
        <time>2023-05-05T11:10:48.153Z</time>
      </trkpt>
      <trkpt lat="47.8735" lon="-2.42781">
        <ele>69.155369</ele>
        <time>2023-05-05T11:10:51.156Z</time>
      </trkpt>
      <trkpt lat="47.87338" lon="-2.42777">
        <ele>69.248819</ele>
        <time>2023-05-05T11:10:54.151Z</time>
      </trkpt>
      <trkpt lat="47.87326" lon="-2.42773">
        <ele>69.347097</ele>
        <time>2023-05-05T11:10:57.155Z</time>
      </trkpt>
      <trkpt lat="47.87313" lon="-2.42768">
        <ele>69.443624</ele>
        <time>2023-05-05T11:11:00.147Z</time>
      </trkpt>
      <trkpt lat="47.87302" lon="-2.42763">
        <ele>69.536556</ele>
        <time>2023-05-05T11:11:03.157Z</time>
      </trkpt>
      <trkpt lat="47.87291" lon="-2.42757">
        <ele>69.621659</ele>
        <time>2023-05-05T11:11:06.153Z</time>
      </trkpt>
      <trkpt lat="47.87282" lon="-2.42752">
        <ele>69.695698</ele>
        <time>2023-05-05T11:11:09.153Z</time>
      </trkpt>
      <trkpt lat="47.87271" lon="-2.42743">
        <ele>69.79287</ele>
        <time>2023-05-05T11:11:12.154Z</time>
      </trkpt>
      <trkpt lat="47.87261" lon="-2.42736">
        <ele>69.874245</ele>
        <time>2023-05-05T11:11:15.152Z</time>
      </trkpt>
      <trkpt lat="47.87252" lon="-2.42731">
        <ele>69.949321</ele>
        <time>2023-05-05T11:11:18.172Z</time>
      </trkpt>
      <trkpt lat="47.87243" lon="-2.42724">
        <ele>70.023851</ele>
        <time>2023-05-05T11:11:21.154Z</time>
      </trkpt>
      <trkpt lat="47.87234" lon="-2.42718">
        <ele>70.103631</ele>
        <time>2023-05-05T11:11:24.158Z</time>
      </trkpt>
      <trkpt lat="47.87225" lon="-2.42713">
        <ele>70.176938</ele>
        <time>2023-05-05T11:11:27.150Z</time>
      </trkpt>
      <trkpt lat="47.87214" lon="-2.42712">
        <ele>70.246822</ele>
        <time>2023-05-05T11:11:31.150Z</time>
      </trkpt>
      <trkpt lat="47.87204" lon="-2.42716">
        <ele>70.315087</ele>
        <time>2023-05-05T11:11:34.146Z</time>
      </trkpt>
      <trkpt lat="47.87193" lon="-2.42725">
        <ele>70.394556</ele>
        <time>2023-05-05T11:11:37.152Z</time>
      </trkpt>
      <trkpt lat="47.87183" lon="-2.42735">
        <ele>70.473686</ele>
        <time>2023-05-05T11:11:40.154Z</time>
      </trkpt>
      <trkpt lat="47.87173" lon="-2.42745">
        <ele>70.549107</ele>
        <time>2023-05-05T11:11:43.153Z</time>
      </trkpt>
      <trkpt lat="47.87165" lon="-2.42755">
        <ele>70.616055</ele>
        <time>2023-05-05T11:11:46.152Z</time>
      </trkpt>
      <trkpt lat="47.87157" lon="-2.42767">
        <ele>70.685907</ele>
        <time>2023-05-05T11:11:49.151Z</time>
      </trkpt>
      <trkpt lat="47.8715" lon="-2.42778">
        <ele>70.756511</ele>
        <time>2023-05-05T11:11:52.156Z</time>
      </trkpt>
      <trkpt lat="47.87142" lon="-2.42792">
        <ele>70.831587</ele>
        <time>2023-05-05T11:11:55.135Z</time>
      </trkpt>
      <trkpt lat="47.87135" lon="-2.42806">
        <ele>70.909454</ele>
        <time>2023-05-05T11:11:58.150Z</time>
      </trkpt>
      <trkpt lat="47.87128" lon="-2.42821">
        <ele>70.98663</ele>
        <time>2023-05-05T11:12:01.154Z</time>
      </trkpt>
      <trkpt lat="47.87122" lon="-2.42834">
        <ele>71.05586</ele>
        <time>2023-05-05T11:12:04.145Z</time>
      </trkpt>
      <trkpt lat="47.87116" lon="-2.42847">
        <ele>71.122335</ele>
        <time>2023-05-05T11:12:07.147Z</time>
      </trkpt>
      <trkpt lat="47.87111" lon="-2.42863">
        <ele>71.196926</ele>
        <time>2023-05-05T11:12:10.152Z</time>
      </trkpt>
      <trkpt lat="47.87106" lon="-2.42879">
        <ele>71.273124</ele>
        <time>2023-05-05T11:12:13.164Z</time>
      </trkpt>
      <trkpt lat="47.87101" lon="-2.42897">
        <ele>71.372141</ele>
        <time>2023-05-05T11:12:16.152Z</time>
      </trkpt>
      <trkpt lat="47.87097" lon="-2.42915">
        <ele>71.594652</ele>
        <time>2023-05-05T11:12:19.154Z</time>
      </trkpt>
      <trkpt lat="47.87093" lon="-2.42931">
        <ele>71.799503</ele>
        <time>2023-05-05T11:12:22.147Z</time>
      </trkpt>
      <trkpt lat="47.87089" lon="-2.42946">
        <ele>71.980469</ele>
        <time>2023-05-05T11:12:25.170Z</time>
      </trkpt>
      <trkpt lat="47.87085" lon="-2.42961">
        <ele>72.175484</ele>
        <time>2023-05-05T11:12:28.153Z</time>
      </trkpt>
      <trkpt lat="47.87081" lon="-2.42978">
        <ele>72.388625</ele>
        <time>2023-05-05T11:12:31.154Z</time>
      </trkpt>
      <trkpt lat="47.87077" lon="-2.42994">
        <ele>72.587877</ele>
        <time>2023-05-05T11:12:34.145Z</time>
      </trkpt>
      <trkpt lat="47.87073" lon="-2.43008">
        <ele>72.759198</ele>
        <time>2023-05-05T11:12:37.153Z</time>
      </trkpt>
      <trkpt lat="47.87069" lon="-2.4302">
        <ele>72.923879</ele>
        <time>2023-05-05T11:12:40.150Z</time>
      </trkpt>
      <trkpt lat="47.87063" lon="-2.43035">
        <ele>73.119713</ele>
        <time>2023-05-05T11:12:43.148Z</time>
      </trkpt>
      <trkpt lat="47.87056" lon="-2.43048">
        <ele>73.318249</ele>
        <time>2023-05-05T11:12:46.150Z</time>
      </trkpt>
      <trkpt lat="47.87048" lon="-2.43064">
        <ele>73.546228</ele>
        <time>2023-05-05T11:12:49.160Z</time>
      </trkpt>
      <trkpt lat="47.87043" lon="-2.43075">
        <ele>73.707749</ele>
        <time>2023-05-05T11:12:51.151Z</time>
      </trkpt>
      <trkpt lat="47.87036" lon="-2.43089">
        <ele>73.918817</ele>
        <time>2023-05-05T11:12:54.154Z</time>
      </trkpt>
      <trkpt lat="47.87029" lon="-2.43104">
        <ele>74.118082</ele>
        <time>2023-05-05T11:12:57.152Z</time>
      </trkpt>
      <trkpt lat="47.87021" lon="-2.43118">
        <ele>74.338546</ele>
        <time>2023-05-05T11:13:00.148Z</time>
      </trkpt>
      <trkpt lat="47.87016" lon="-2.43131">
        <ele>74.451089</ele>
        <time>2023-05-05T11:13:03.153Z</time>
      </trkpt>
      <trkpt lat="47.87011" lon="-2.43144">
        <ele>74.181456</ele>
        <time>2023-05-05T11:13:06.153Z</time>
      </trkpt>
      <trkpt lat="47.87008" lon="-2.43157">
        <ele>73.911918</ele>
        <time>2023-05-05T11:13:09.153Z</time>
      </trkpt>
      <trkpt lat="47.87004" lon="-2.43173">
        <ele>73.61663</ele>
        <time>2023-05-05T11:13:12.154Z</time>
      </trkpt>
      <trkpt lat="47.87" lon="-2.43191">
        <ele>73.266264</ele>
        <time>2023-05-05T11:13:15.152Z</time>
      </trkpt>
      <trkpt lat="47.86995" lon="-2.4321">
        <ele>72.89513</ele>
        <time>2023-05-05T11:13:18.157Z</time>
      </trkpt>
      <trkpt lat="47.86992" lon="-2.43223">
        <ele>72.63675</ele>
        <time>2023-05-05T11:13:20.155Z</time>
      </trkpt>
      <trkpt lat="47.86987" lon="-2.43241">
        <ele>72.286294</ele>
        <time>2023-05-05T11:13:23.149Z</time>
      </trkpt>
      <trkpt lat="47.86983" lon="-2.43258">
        <ele>71.96645</ele>
        <time>2023-05-05T11:13:26.153Z</time>
      </trkpt>
      <trkpt lat="47.86979" lon="-2.43271">
        <ele>71.696128</ele>
        <time>2023-05-05T11:13:29.155Z</time>
      </trkpt>
      <trkpt lat="47.86974" lon="-2.43286">
        <ele>71.405294</ele>
        <time>2023-05-05T11:13:32.155Z</time>
      </trkpt>
      <trkpt lat="47.8697" lon="-2.433">
        <ele>71.118901</ele>
        <time>2023-05-05T11:13:35.151Z</time>
      </trkpt>
      <trkpt lat="47.86965" lon="-2.43314">
        <ele>70.839154</ele>
        <time>2023-05-05T11:13:38.156Z</time>
      </trkpt>
      <trkpt lat="47.86959" lon="-2.43327">
        <ele>70.542826</ele>
        <time>2023-05-05T11:13:41.153Z</time>
      </trkpt>
      <trkpt lat="47.86951" lon="-2.43342">
        <ele>70.201636</ele>
        <time>2023-05-05T11:13:44.154Z</time>
      </trkpt>
      <trkpt lat="47.86944" lon="-2.43356">
        <ele>69.886688</ele>
        <time>2023-05-05T11:13:47.152Z</time>
      </trkpt>
      <trkpt lat="47.86937" lon="-2.43368">
        <ele>69.602058</ele>
        <time>2023-05-05T11:13:50.153Z</time>
      </trkpt>
      <trkpt lat="47.86927" lon="-2.4338">
        <ele>69.528067</ele>
        <time>2023-05-05T11:13:53.157Z</time>
      </trkpt>
      <trkpt lat="47.86918" lon="-2.43392">
        <ele>69.454969</ele>
        <time>2023-05-05T11:13:56.156Z</time>
      </trkpt>
      <trkpt lat="47.86907" lon="-2.43402">
        <ele>69.380517</ele>
        <time>2023-05-05T11:13:59.155Z</time>
      </trkpt>
      <trkpt lat="47.86897" lon="-2.4341">
        <ele>69.315985</ele>
        <time>2023-05-05T11:14:02.151Z</time>
      </trkpt>
      <trkpt lat="47.86888" lon="-2.43419">
        <ele>69.253724</ele>
        <time>2023-05-05T11:14:05.153Z</time>
      </trkpt>
      <trkpt lat="47.8688" lon="-2.43428">
        <ele>69.192254</ele>
        <time>2023-05-05T11:14:08.153Z</time>
      </trkpt>
      <trkpt lat="47.8687" lon="-2.43437">
        <ele>69.126471</ele>
        <time>2023-05-05T11:14:11.145Z</time>
      </trkpt>
      <trkpt lat="47.86861" lon="-2.43446">
        <ele>69.058431</ele>
        <time>2023-05-05T11:14:14.147Z</time>
      </trkpt>
      <trkpt lat="47.8685" lon="-2.43456">
        <ele>68.984055</ele>
        <time>2023-05-05T11:14:17.148Z</time>
      </trkpt>
      <trkpt lat="47.8684" lon="-2.43466">
        <ele>68.916914</ele>
        <time>2023-05-05T11:14:20.153Z</time>
      </trkpt>
      <trkpt lat="47.86831" lon="-2.43475">
        <ele>68.852754</ele>
        <time>2023-05-05T11:14:23.152Z</time>
      </trkpt>
      <trkpt lat="47.86822" lon="-2.43485">
        <ele>68.786149</ele>
        <time>2023-05-05T11:14:26.157Z</time>
      </trkpt>
      <trkpt lat="47.86815" lon="-2.43495">
        <ele>68.729158</ele>
        <time>2023-05-05T11:14:29.154Z</time>
      </trkpt>
      <trkpt lat="47.86809" lon="-2.43506">
        <ele>68.673875</ele>
        <time>2023-05-05T11:14:32.149Z</time>
      </trkpt>
      <trkpt lat="47.86801" lon="-2.43519">
        <ele>68.605609</ele>
        <time>2023-05-05T11:14:35.156Z</time>
      </trkpt>
      <trkpt lat="47.86794" lon="-2.43531">
        <ele>68.536464</ele>
        <time>2023-05-05T11:14:38.154Z</time>
      </trkpt>
      <trkpt lat="47.86788" lon="-2.43545">
        <ele>68.439912</ele>
        <time>2023-05-05T11:14:41.157Z</time>
      </trkpt>
      <trkpt lat="47.86782" lon="-2.43561">
        <ele>68.335135</ele>
        <time>2023-05-05T11:14:44.152Z</time>
      </trkpt>
      <trkpt lat="47.86776" lon="-2.43576">
        <ele>68.230282</ele>
        <time>2023-05-05T11:14:47.146Z</time>
      </trkpt>
      <trkpt lat="47.8677" lon="-2.43591">
        <ele>68.125303</ele>
        <time>2023-05-05T11:14:50.152Z</time>
      </trkpt>
      <trkpt lat="47.86764" lon="-2.43604">
        <ele>68.032684</ele>
        <time>2023-05-05T11:14:53.154Z</time>
      </trkpt>
      <trkpt lat="47.86759" lon="-2.43617">
        <ele>67.943996</ele>
        <time>2023-05-05T11:14:56.149Z</time>
      </trkpt>
      <trkpt lat="47.86754" lon="-2.43631">
        <ele>67.847951</ele>
        <time>2023-05-05T11:14:59.151Z</time>
      </trkpt>
      <trkpt lat="47.86748" lon="-2.43646">
        <ele>67.749775</ele>
        <time>2023-05-05T11:15:02.153Z</time>
      </trkpt>
      <trkpt lat="47.86743" lon="-2.43661">
        <ele>67.648092</ele>
        <time>2023-05-05T11:15:05.154Z</time>
      </trkpt>
      <trkpt lat="47.86738" lon="-2.43673">
        <ele>67.562251</ele>
        <time>2023-05-05T11:15:08.155Z</time>
      </trkpt>
      <trkpt lat="47.86733" lon="-2.43685">
        <ele>67.478829</ele>
        <time>2023-05-05T11:15:11.153Z</time>
      </trkpt>
      <trkpt lat="47.86727" lon="-2.437">
        <ele>67.375758</ele>
        <time>2023-05-05T11:15:14.154Z</time>
      </trkpt>
      <trkpt lat="47.86722" lon="-2.43717">
        <ele>67.266622</ele>
        <time>2023-05-05T11:15:17.154Z</time>
      </trkpt>
      <trkpt lat="47.86717" lon="-2.43734">
        <ele>67.160139</ele>
        <time>2023-05-05T11:15:20.155Z</time>
      </trkpt>
      <trkpt lat="47.86713" lon="-2.43751">
        <ele>67.055081</ele>
        <time>2023-05-05T11:15:23.155Z</time>
      </trkpt>
      <trkpt lat="47.8671" lon="-2.43764">
        <ele>66.972298</ele>
        <time>2023-05-05T11:15:25.156Z</time>
      </trkpt>
      <trkpt lat="47.86706" lon="-2.43782">
        <ele>67.046107</ele>
        <time>2023-05-05T11:15:28.155Z</time>
      </trkpt>
      <trkpt lat="47.86701" lon="-2.43796">
        <ele>67.10736</ele>
        <time>2023-05-05T11:15:31.157Z</time>
      </trkpt>
      <trkpt lat="47.86697" lon="-2.43811">
        <ele>67.171213</ele>
        <time>2023-05-05T11:15:34.153Z</time>
      </trkpt>
      <trkpt lat="47.86692" lon="-2.43826">
        <ele>67.235698</ele>
        <time>2023-05-05T11:15:37.156Z</time>
      </trkpt>
      <trkpt lat="47.86688" lon="-2.43843">
        <ele>67.303711</ele>
        <time>2023-05-05T11:15:40.157Z</time>
      </trkpt>
      <trkpt lat="47.86685" lon="-2.43858">
        <ele>67.364537</ele>
        <time>2023-05-05T11:15:43.147Z</time>
      </trkpt>
      <trkpt lat="47.86682" lon="-2.43874">
        <ele>67.428794</ele>
        <time>2023-05-05T11:15:47.146Z</time>
      </trkpt>
      <trkpt lat="47.8668" lon="-2.43888">
        <ele>67.484083</ele>
        <time>2023-05-05T11:15:51.151Z</time>
      </trkpt>
      <trkpt lat="47.86679" lon="-2.43904">
        <ele>67.547715</ele>
        <time>2023-05-05T11:15:56.147Z</time>
      </trkpt>
      <trkpt lat="47.86677" lon="-2.43917">
        <ele>67.600434</ele>
        <time>2023-05-05T11:16:23.150Z</time>
      </trkpt>
      <trkpt lat="47.86673" lon="-2.4393">
        <ele>67.655953</ele>
        <time>2023-05-05T11:16:45.150Z</time>
      </trkpt>
      <trkpt lat="47.86671" lon="-2.43945">
        <ele>67.713599</ele>
        <time>2023-05-05T11:16:49.153Z</time>
      </trkpt>
      <trkpt lat="47.86669" lon="-2.43961">
        <ele>67.775877</ele>
        <time>2023-05-05T11:16:53.155Z</time>
      </trkpt>
      <trkpt lat="47.86668" lon="-2.43974">
        <ele>67.827904</ele>
        <time>2023-05-05T11:16:57.154Z</time>
      </trkpt>
      <trkpt lat="47.86665" lon="-2.43989">
        <ele>67.889239</ele>
        <time>2023-05-05T11:17:02.154Z</time>
      </trkpt>
      <trkpt lat="47.86664" lon="-2.44005">
        <ele>67.951039</ele>
        <time>2023-05-05T11:17:06.153Z</time>
      </trkpt>
      <trkpt lat="47.86662" lon="-2.44018">
        <ele>68.003548</ele>
        <time>2023-05-05T11:17:09.150Z</time>
      </trkpt>
      <trkpt lat="47.8666" lon="-2.44032">
        <ele>68.031581</ele>
        <time>2023-05-05T11:17:12.163Z</time>
      </trkpt>
      <trkpt lat="47.86658" lon="-2.44047">
        <ele>68.053692</ele>
        <time>2023-05-05T11:17:15.149Z</time>
      </trkpt>
      <trkpt lat="47.86656" lon="-2.44062">
        <ele>68.076747</ele>
        <time>2023-05-05T11:17:18.137Z</time>
      </trkpt>
      <trkpt lat="47.86655" lon="-2.44077">
        <ele>68.099707</ele>
        <time>2023-05-05T11:17:21.145Z</time>
      </trkpt>
      <trkpt lat="47.86653" lon="-2.44093">
        <ele>68.123584</ele>
        <time>2023-05-05T11:17:24.155Z</time>
      </trkpt>
      <trkpt lat="47.86652" lon="-2.44109">
        <ele>68.147608</ele>
        <time>2023-05-05T11:17:27.149Z</time>
      </trkpt>
      <trkpt lat="47.86651" lon="-2.44125">
        <ele>68.171585</ele>
        <time>2023-05-05T11:17:30.153Z</time>
      </trkpt>
      <trkpt lat="47.86649" lon="-2.44142">
        <ele>68.196548</ele>
        <time>2023-05-05T11:17:33.153Z</time>
      </trkpt>
      <trkpt lat="47.86649" lon="-2.44158">
        <ele>68.221632</ele>
        <time>2023-05-05T11:17:36.156Z</time>
      </trkpt>
      <trkpt lat="47.86648" lon="-2.44175">
        <ele>68.247032</ele>
        <time>2023-05-05T11:17:39.154Z</time>
      </trkpt>
      <trkpt lat="47.86648" lon="-2.44193">
        <ele>68.272712</ele>
        <time>2023-05-05T11:17:42.153Z</time>
      </trkpt>
      <trkpt lat="47.86648" lon="-2.44209">
        <ele>68.297779</ele>
        <time>2023-05-05T11:17:45.156Z</time>
      </trkpt>
      <trkpt lat="47.86647" lon="-2.44226">
        <ele>68.321977</ele>
        <time>2023-05-05T11:17:48.149Z</time>
      </trkpt>
      <trkpt lat="47.86647" lon="-2.44242">
        <ele>68.346158</ele>
        <time>2023-05-05T11:17:51.160Z</time>
      </trkpt>
      <trkpt lat="47.86646" lon="-2.44258">
        <ele>68.370963</ele>
        <time>2023-05-05T11:17:54.158Z</time>
      </trkpt>
      <trkpt lat="47.86646" lon="-2.44275">
        <ele>68.395349</ele>
        <time>2023-05-05T11:17:57.156Z</time>
      </trkpt>
      <trkpt lat="47.86645" lon="-2.4429">
        <ele>68.425706</ele>
        <time>2023-05-05T11:18:00.159Z</time>
      </trkpt>
      <trkpt lat="47.86644" lon="-2.44306">
        <ele>68.483872</ele>
        <time>2023-05-05T11:18:03.150Z</time>
      </trkpt>
      <trkpt lat="47.86643" lon="-2.44324">
        <ele>68.54956</ele>
        <time>2023-05-05T11:18:06.182Z</time>
      </trkpt>
      <trkpt lat="47.86643" lon="-2.44343">
        <ele>68.6174</ele>
        <time>2023-05-05T11:18:09.154Z</time>
      </trkpt>
      <trkpt lat="47.86641" lon="-2.44359">
        <ele>68.678594</ele>
        <time>2023-05-05T11:18:12.155Z</time>
      </trkpt>
      <trkpt lat="47.86639" lon="-2.44375">
        <ele>68.736344</ele>
        <time>2023-05-05T11:18:15.153Z</time>
      </trkpt>
      <trkpt lat="47.86638" lon="-2.44392">
        <ele>68.798755</ele>
        <time>2023-05-05T11:18:18.153Z</time>
      </trkpt>
      <trkpt lat="47.8625" lon="-2.44555">
        <ele>67.724943</ele>
        <time>2023-05-05T11:22:20.153Z</time>
      </trkpt>
      <trkpt lat="47.86235" lon="-2.44557">
        <ele>67.381092</ele>
        <time>2023-05-05T11:25:42.154Z</time>
      </trkpt>
      <trkpt lat="47.86223" lon="-2.44557">
        <ele>67.104002</ele>
        <time>2023-05-05T11:25:46.153Z</time>
      </trkpt>
      <trkpt lat="47.86212" lon="-2.44557">
        <ele>66.838554</ele>
        <time>2023-05-05T11:25:50.149Z</time>
      </trkpt>
      <trkpt lat="47.86201" lon="-2.44555">
        <ele>66.587828</ele>
        <time>2023-05-05T11:25:54.160Z</time>
      </trkpt>
      <trkpt lat="47.86191" lon="-2.44553">
        <ele>66.34932</ele>
        <time>2023-05-05T11:25:57.149Z</time>
      </trkpt>
      <trkpt lat="47.8618" lon="-2.44553">
        <ele>66.218144</ele>
        <time>2023-05-05T11:26:00.144Z</time>
      </trkpt>
      <trkpt lat="47.86171" lon="-2.44553">
        <ele>66.286199</ele>
        <time>2023-05-05T11:26:03.156Z</time>
      </trkpt>
      <trkpt lat="47.86162" lon="-2.44553">
        <ele>66.352108</ele>
        <time>2023-05-05T11:26:06.170Z</time>
      </trkpt>
      <trkpt lat="47.86152" lon="-2.44553">
        <ele>66.423043</ele>
        <time>2023-05-05T11:26:09.162Z</time>
      </trkpt>
      <trkpt lat="47.86142" lon="-2.44555">
        <ele>66.495805</ele>
        <time>2023-05-05T11:26:12.160Z</time>
      </trkpt>
      <trkpt lat="47.86131" lon="-2.44556">
        <ele>66.572673</ele>
        <time>2023-05-05T11:26:16.159Z</time>
      </trkpt>
      <trkpt lat="47.86121" lon="-2.44558">
        <ele>66.642586</ele>
        <time>2023-05-05T11:26:20.158Z</time>
      </trkpt>
      <trkpt lat="47.86111" lon="-2.44559">
        <ele>66.713976</ele>
        <time>2023-05-05T11:26:24.157Z</time>
      </trkpt>
      <trkpt lat="47.861" lon="-2.44563">
        <ele>66.799968</ele>
        <time>2023-05-05T11:26:28.156Z</time>
      </trkpt>
      <trkpt lat="47.86091" lon="-2.44568">
        <ele>66.868072</ele>
        <time>2023-05-05T11:26:31.159Z</time>
      </trkpt>
      <trkpt lat="47.8608" lon="-2.44571">
        <ele>66.94386</ele>
        <time>2023-05-05T11:26:35.163Z</time>
      </trkpt>
      <trkpt lat="47.86071" lon="-2.44576">
        <ele>67.014011</ele>
        <time>2023-05-05T11:26:40.151Z</time>
      </trkpt>
      <trkpt lat="47.86063" lon="-2.44582">
        <ele>67.081161</ele>
        <time>2023-05-05T11:26:45.158Z</time>
      </trkpt>
      <trkpt lat="47.86053" lon="-2.44581">
        <ele>67.148076</ele>
        <time>2023-05-05T11:27:58.154Z</time>
      </trkpt>
      <trkpt lat="47.86044" lon="-2.44587">
        <ele>67.224456</ele>
        <time>2023-05-05T11:28:03.154Z</time>
      </trkpt>
      <trkpt lat="47.86034" lon="-2.44596">
        <ele>67.306309</ele>
        <time>2023-05-05T11:28:07.150Z</time>
      </trkpt>
      <trkpt lat="47.86023" lon="-2.44606">
        <ele>67.394711</ele>
        <time>2023-05-05T11:28:11.151Z</time>
      </trkpt>
      <trkpt lat="47.86014" lon="-2.44614">
        <ele>67.471503</ele>
        <time>2023-05-05T11:28:14.149Z</time>
      </trkpt>
      <trkpt lat="47.86006" lon="-2.44621">
        <ele>67.395294</ele>
        <time>2023-05-05T11:28:17.158Z</time>
      </trkpt>
      <trkpt lat="47.85997" lon="-2.4463">
        <ele>67.294969</ele>
        <time>2023-05-05T11:28:20.145Z</time>
      </trkpt>
      <trkpt lat="47.85988" lon="-2.44638">
        <ele>67.193751</ele>
        <time>2023-05-05T11:28:23.154Z</time>
      </trkpt>
      <trkpt lat="47.85979" lon="-2.44646">
        <ele>67.096086</ele>
        <time>2023-05-05T11:28:26.155Z</time>
      </trkpt>
      <trkpt lat="47.8597" lon="-2.44655">
        <ele>66.991608</ele>
        <time>2023-05-05T11:28:30.154Z</time>
      </trkpt>
      <trkpt lat="47.8596" lon="-2.44661">
        <ele>66.883133</ele>
        <time>2023-05-05T11:28:34.155Z</time>
      </trkpt>
      <trkpt lat="47.85952" lon="-2.44667">
        <ele>66.79465</ele>
        <time>2023-05-05T11:28:37.146Z</time>
      </trkpt>
      <trkpt lat="47.85942" lon="-2.44672">
        <ele>66.700778</ele>
        <time>2023-05-05T11:28:40.158Z</time>
      </trkpt>
      <trkpt lat="47.85933" lon="-2.44675">
        <ele>66.605826</ele>
        <time>2023-05-05T11:28:43.150Z</time>
      </trkpt>
      <trkpt lat="47.85923" lon="-2.44678">
        <ele>66.509259</ele>
        <time>2023-05-05T11:28:46.155Z</time>
      </trkpt>
      <trkpt lat="47.85913" lon="-2.4468">
        <ele>66.409686</ele>
        <time>2023-05-05T11:28:49.153Z</time>
      </trkpt>
      <trkpt lat="47.85903" lon="-2.44681">
        <ele>66.31106</ele>
        <time>2023-05-05T11:28:52.155Z</time>
      </trkpt>
      <trkpt lat="47.85892" lon="-2.44682">
        <ele>66.210376</ele>
        <time>2023-05-05T11:28:55.155Z</time>
      </trkpt>
      <trkpt lat="47.85883" lon="-2.44685">
        <ele>66.12054</ele>
        <time>2023-05-05T11:28:58.156Z</time>
      </trkpt>
      <trkpt lat="47.85874" lon="-2.44686">
        <ele>66.030438</ele>
        <time>2023-05-05T11:29:01.150Z</time>
      </trkpt>
      <trkpt lat="47.85864" lon="-2.44685">
        <ele>65.937592</ele>
        <time>2023-05-05T11:29:04.156Z</time>
      </trkpt>
      <trkpt lat="47.85854" lon="-2.44687">
        <ele>65.842117</ele>
        <time>2023-05-05T11:29:07.155Z</time>
      </trkpt>
      <trkpt lat="47.85843" lon="-2.44687">
        <ele>65.761863</ele>
        <time>2023-05-05T11:29:10.150Z</time>
      </trkpt>
      <trkpt lat="47.85833" lon="-2.44688">
        <ele>65.995033</ele>
        <time>2023-05-05T11:29:13.146Z</time>
      </trkpt>
      <trkpt lat="47.85822" lon="-2.44689">
        <ele>66.235152</ele>
        <time>2023-05-05T11:29:16.161Z</time>
      </trkpt>
      <trkpt lat="47.85811" lon="-2.4469">
        <ele>66.461868</ele>
        <time>2023-05-05T11:29:19.156Z</time>
      </trkpt>
      <trkpt lat="47.85801" lon="-2.4469">
        <ele>66.684049</ele>
        <time>2023-05-05T11:29:22.151Z</time>
      </trkpt>
      <trkpt lat="47.85792" lon="-2.44689">
        <ele>66.887153</ele>
        <time>2023-05-05T11:29:25.154Z</time>
      </trkpt>
      <trkpt lat="47.85781" lon="-2.44686">
        <ele>67.124186</ele>
        <time>2023-05-05T11:29:29.154Z</time>
      </trkpt>
      <trkpt lat="47.85771" lon="-2.44682">
        <ele>67.346038</ele>
        <time>2023-05-05T11:29:34.162Z</time>
      </trkpt>
      <trkpt lat="47.85762" lon="-2.4468">
        <ele>67.542445</ele>
        <time>2023-05-05T11:29:37.175Z</time>
      </trkpt>
      <trkpt lat="47.85753" lon="-2.44676">
        <ele>67.751498</ele>
        <time>2023-05-05T11:29:40.157Z</time>
      </trkpt>
      <trkpt lat="47.85744" lon="-2.4467">
        <ele>67.968133</ele>
        <time>2023-05-05T11:29:43.157Z</time>
      </trkpt>
      <trkpt lat="47.85735" lon="-2.44665">
        <ele>68.177754</ele>
        <time>2023-05-05T11:29:46.160Z</time>
      </trkpt>
      <trkpt lat="47.85725" lon="-2.44659">
        <ele>68.400707</ele>
        <time>2023-05-05T11:29:49.159Z</time>
      </trkpt>
      <trkpt lat="47.85716" lon="-2.44652">
        <ele>68.628896</ele>
        <time>2023-05-05T11:29:52.161Z</time>
      </trkpt>
      <trkpt lat="47.85706" lon="-2.44646">
        <ele>68.865607</ele>
        <time>2023-05-05T11:29:55.157Z</time>
      </trkpt>
      <trkpt lat="47.85696" lon="-2.44638">
        <ele>69.112669</ele>
        <time>2023-05-05T11:29:58.156Z</time>
      </trkpt>
      <trkpt lat="47.85685" lon="-2.44634">
        <ele>69.358906</ele>
        <time>2023-05-05T11:30:01.157Z</time>
      </trkpt>
      <trkpt lat="47.85674" lon="-2.44629">
        <ele>69.612619</ele>
        <time>2023-05-05T11:30:04.151Z</time>
      </trkpt>
      <trkpt lat="47.85664" lon="-2.44626">
        <ele>69.744472</ele>
        <time>2023-05-05T11:30:07.152Z</time>
      </trkpt>
      <trkpt lat="47.85654" lon="-2.44622">
        <ele>69.844477</ele>
        <time>2023-05-05T11:30:10.158Z</time>
      </trkpt>
      <trkpt lat="47.85643" lon="-2.4462">
        <ele>69.96019</ele>
        <time>2023-05-05T11:30:14.164Z</time>
      </trkpt>
      <trkpt lat="47.85633" lon="-2.44617">
        <ele>70.065291</ele>
        <time>2023-05-05T11:30:18.146Z</time>
      </trkpt>
      <trkpt lat="47.85624" lon="-2.44615">
        <ele>70.162477</ele>
        <time>2023-05-05T11:30:22.153Z</time>
      </trkpt>
      <trkpt lat="47.85614" lon="-2.44615">
        <ele>70.264303</ele>
        <time>2023-05-05T11:30:27.158Z</time>
      </trkpt>
      <trkpt lat="47.85605" lon="-2.44615">
        <ele>70.360966</ele>
        <time>2023-05-05T11:30:31.160Z</time>
      </trkpt>
      <trkpt lat="47.85594" lon="-2.44613">
        <ele>70.476015</ele>
        <time>2023-05-05T11:30:35.159Z</time>
      </trkpt>
      <trkpt lat="47.85584" lon="-2.44613">
        <ele>70.574835</ele>
        <time>2023-05-05T11:30:38.161Z</time>
      </trkpt>
      <trkpt lat="47.85574" lon="-2.44613">
        <ele>70.679917</ele>
        <time>2023-05-05T11:30:41.161Z</time>
      </trkpt>
      <trkpt lat="47.85564" lon="-2.44612">
        <ele>70.785303</ele>
        <time>2023-05-05T11:30:44.153Z</time>
      </trkpt>
      <trkpt lat="47.85555" lon="-2.44611">
        <ele>70.881092</ele>
        <time>2023-05-05T11:30:47.161Z</time>
      </trkpt>
      <trkpt lat="47.85544" lon="-2.44613">
        <ele>70.998056</ele>
        <time>2023-05-05T11:30:51.152Z</time>
      </trkpt>
      <trkpt lat="47.85534" lon="-2.44614">
        <ele>71.105342</ele>
        <time>2023-05-05T11:30:55.159Z</time>
      </trkpt>
      <trkpt lat="47.85524" lon="-2.44613">
        <ele>71.206411</ele>
        <time>2023-05-05T11:30:59.153Z</time>
      </trkpt>
      <trkpt lat="47.85512" lon="-2.44613">
        <ele>71.324902</ele>
        <time>2023-05-05T11:31:03.164Z</time>
      </trkpt>
      <trkpt lat="47.85503" lon="-2.44615">
        <ele>71.421885</ele>
        <time>2023-05-05T11:31:06.161Z</time>
      </trkpt>
      <trkpt lat="47.85493" lon="-2.44616">
        <ele>71.52566</ele>
        <time>2023-05-05T11:31:09.161Z</time>
      </trkpt>
      <trkpt lat="47.85482" lon="-2.44621">
        <ele>71.301062</ele>
        <time>2023-05-05T11:31:12.167Z</time>
      </trkpt>
      <trkpt lat="47.8547" lon="-2.44625">
        <ele>71.061038</ele>
        <time>2023-05-05T11:31:15.158Z</time>
      </trkpt>
      <trkpt lat="47.85458" lon="-2.44629">
        <ele>70.820732</ele>
        <time>2023-05-05T11:31:18.152Z</time>
      </trkpt>
      <trkpt lat="47.85447" lon="-2.44632">
        <ele>70.59053</ele>
        <time>2023-05-05T11:31:21.160Z</time>
      </trkpt>
      <trkpt lat="47.85437" lon="-2.44635">
        <ele>70.383204</ele>
        <time>2023-05-05T11:31:24.157Z</time>
      </trkpt>
      <trkpt lat="47.85427" lon="-2.44636">
        <ele>70.188632</ele>
        <time>2023-05-05T11:31:27.155Z</time>
      </trkpt>
      <trkpt lat="47.85416" lon="-2.44638">
        <ele>69.974208</ele>
        <time>2023-05-05T11:31:30.167Z</time>
      </trkpt>
      <trkpt lat="47.85405" lon="-2.44637">
        <ele>69.76206</ele>
        <time>2023-05-05T11:31:33.155Z</time>
      </trkpt>
      <trkpt lat="47.85395" lon="-2.44638">
        <ele>69.555848</ele>
        <time>2023-05-05T11:31:36.162Z</time>
      </trkpt>
      <trkpt lat="47.85384" lon="-2.44639">
        <ele>69.344371</ele>
        <time>2023-05-05T11:31:39.156Z</time>
      </trkpt>
      <trkpt lat="47.85373" lon="-2.4464">
        <ele>69.1222</ele>
        <time>2023-05-05T11:31:42.150Z</time>
      </trkpt>
      <trkpt lat="47.85362" lon="-2.44641">
        <ele>68.894375</ele>
        <time>2023-05-05T11:31:45.156Z</time>
      </trkpt>
      <trkpt lat="47.8535" lon="-2.44641">
        <ele>68.672427</ele>
        <time>2023-05-05T11:31:48.155Z</time>
      </trkpt>
      <trkpt lat="47.85339" lon="-2.4464">
        <ele>68.452074</ele>
        <time>2023-05-05T11:31:51.157Z</time>
      </trkpt>
      <trkpt lat="47.85328" lon="-2.4464">
        <ele>68.22823</ele>
        <time>2023-05-05T11:31:54.156Z</time>
      </trkpt>
      <trkpt lat="47.85317" lon="-2.44638">
        <ele>68.004949</ele>
        <time>2023-05-05T11:31:57.161Z</time>
      </trkpt>
      <trkpt lat="47.85307" lon="-2.44636">
        <ele>68.022274</ele>
        <time>2023-05-05T11:32:00.146Z</time>
      </trkpt>
      <trkpt lat="47.85297" lon="-2.44634">
        <ele>68.094717</ele>
        <time>2023-05-05T11:32:03.150Z</time>
      </trkpt>
      <trkpt lat="47.85287" lon="-2.44632">
        <ele>68.159895</ele>
        <time>2023-05-05T11:32:06.162Z</time>
      </trkpt>
      <trkpt lat="47.85277" lon="-2.4463">
        <ele>68.229197</ele>
        <time>2023-05-05T11:32:09.160Z</time>
      </trkpt>
      <trkpt lat="47.85267" lon="-2.44624">
        <ele>68.30341</ele>
        <time>2023-05-05T11:32:12.154Z</time>
      </trkpt>
      <trkpt lat="47.85257" lon="-2.4462">
        <ele>68.380566</ele>
        <time>2023-05-05T11:32:15.163Z</time>
      </trkpt>
      <trkpt lat="47.85246" lon="-2.44616">
        <ele>68.458045</ele>
        <time>2023-05-05T11:32:18.150Z</time>
      </trkpt>
      <trkpt lat="47.85235" lon="-2.44612">
        <ele>68.535304</ele>
        <time>2023-05-05T11:32:21.158Z</time>
      </trkpt>
      <trkpt lat="47.85224" lon="-2.44607">
        <ele>68.61404</ele>
        <time>2023-05-05T11:32:24.139Z</time>
      </trkpt>
      <trkpt lat="47.85213" lon="-2.44603">
        <ele>68.696702</ele>
        <time>2023-05-05T11:32:27.149Z</time>
      </trkpt>
      <trkpt lat="47.85201" lon="-2.44598">
        <ele>68.779601</ele>
        <time>2023-05-05T11:32:30.152Z</time>
      </trkpt>
      <trkpt lat="47.8519" lon="-2.44594">
        <ele>68.858216</ele>
        <time>2023-05-05T11:32:33.153Z</time>
      </trkpt>
      <trkpt lat="47.8518" lon="-2.44591">
        <ele>68.934385</ele>
        <time>2023-05-05T11:32:36.146Z</time>
      </trkpt>
      <trkpt lat="47.8517" lon="-2.44588">
        <ele>69.00591</ele>
        <time>2023-05-05T11:32:39.150Z</time>
      </trkpt>
      <trkpt lat="47.85161" lon="-2.44585">
        <ele>69.068964</ele>
        <time>2023-05-05T11:32:42.150Z</time>
      </trkpt>
      <trkpt lat="47.85151" lon="-2.44582">
        <ele>69.139697</ele>
        <time>2023-05-05T11:32:45.151Z</time>
      </trkpt>
      <trkpt lat="47.85141" lon="-2.44579">
        <ele>69.206346</ele>
        <time>2023-05-05T11:32:48.154Z</time>
      </trkpt>
      <trkpt lat="47.8513" lon="-2.44576">
        <ele>69.245282</ele>
        <time>2023-05-05T11:32:52.148Z</time>
      </trkpt>
      <trkpt lat="47.85122" lon="-2.44571">
        <ele>69.272932</ele>
        <time>2023-05-05T11:32:55.156Z</time>
      </trkpt>
      <trkpt lat="47.85111" lon="-2.44568">
        <ele>69.303554</ele>
        <time>2023-05-05T11:32:58.154Z</time>
      </trkpt>
      <trkpt lat="47.851" lon="-2.44564">
        <ele>69.336389</ele>
        <time>2023-05-05T11:33:01.158Z</time>
      </trkpt>
      <trkpt lat="47.85089" lon="-2.4456">
        <ele>69.369493</ele>
        <time>2023-05-05T11:33:04.158Z</time>
      </trkpt>
      <trkpt lat="47.85078" lon="-2.44556">
        <ele>69.402629</ele>
        <time>2023-05-05T11:33:07.156Z</time>
      </trkpt>
      <trkpt lat="47.85067" lon="-2.44551">
        <ele>69.435952</ele>
        <time>2023-05-05T11:33:10.158Z</time>
      </trkpt>
      <trkpt lat="47.85056" lon="-2.44545">
        <ele>69.470497</ele>
        <time>2023-05-05T11:33:13.163Z</time>
      </trkpt>
      <trkpt lat="47.85044" lon="-2.4454">
        <ele>69.506164</ele>
        <time>2023-05-05T11:33:16.156Z</time>
      </trkpt>
      <trkpt lat="47.85032" lon="-2.44535">
        <ele>69.543489</ele>
        <time>2023-05-05T11:33:19.155Z</time>
      </trkpt>
      <trkpt lat="47.85019" lon="-2.4453">
        <ele>69.57977</ele>
        <time>2023-05-05T11:33:22.153Z</time>
      </trkpt>
      <trkpt lat="47.85007" lon="-2.44526">
        <ele>69.61516</ele>
        <time>2023-05-05T11:33:25.151Z</time>
      </trkpt>
      <trkpt lat="47.80997" lon="-2.38329">
        <ele>65.826424</ele>
        <time>2023-05-05T12:08:27.135Z</time>
      </trkpt>
      <trkpt lat="47.81005" lon="-2.38335">
        <ele>66.09971</ele>
        <time>2023-05-05T12:09:27.160Z</time>
      </trkpt>
      <trkpt lat="47.81012" lon="-2.38337">
        <ele>66.32831</ele>
        <time>2023-05-05T12:12:40.246Z</time>
      </trkpt>
      <trkpt lat="47.81022" lon="-2.38363">
        <ele>66.560139</ele>
        <time>2023-05-05T13:16:47.153Z</time>
      </trkpt>
      <trkpt lat="47.81019" lon="-2.38376">
        <ele>66.63974</ele>
        <time>2023-05-05T13:17:00.147Z</time>
      </trkpt>
      <trkpt lat="47.8101" lon="-2.38382">
        <ele>66.730091</ele>
        <time>2023-05-05T13:17:09.147Z</time>
      </trkpt>
      <trkpt lat="47.81002" lon="-2.3839">
        <ele>66.811949</ele>
        <time>2023-05-05T13:17:16.147Z</time>
      </trkpt>
      <trkpt lat="47.80994" lon="-2.38397">
        <ele>66.897357</ele>
        <time>2023-05-05T13:17:24.149Z</time>
      </trkpt>
      <trkpt lat="47.80987" lon="-2.38406">
        <ele>66.978642</ele>
        <time>2023-05-05T13:17:35.146Z</time>
      </trkpt>
      <trkpt lat="47.80999" lon="-2.38424">
        <ele>67.130001</ele>
        <time>2023-05-05T13:24:32.139Z</time>
      </trkpt>
      <trkpt lat="47.80998" lon="-2.38411">
        <ele>67.210248</ele>
        <time>2023-05-05T13:24:38.140Z</time>
      </trkpt>
      <trkpt lat="47.80997" lon="-2.38394">
        <ele>67.31083</ele>
        <time>2023-05-05T13:27:09.154Z</time>
      </trkpt>
      <trkpt lat="47.81006" lon="-2.3839">
        <ele>67.393668</ele>
        <time>2023-05-05T13:27:22.157Z</time>
      </trkpt>
      <trkpt lat="47.81014" lon="-2.38382">
        <ele>67.48182</ele>
        <time>2023-05-05T13:27:30.144Z</time>
      </trkpt>
      <trkpt lat="47.81024" lon="-2.38379">
        <ele>67.569374</ele>
        <time>2023-05-05T13:27:55.145Z</time>
      </trkpt>
      <trkpt lat="47.81031" lon="-2.38389">
        <ele>67.657641</ele>
        <time>2023-05-05T13:28:01.152Z</time>
      </trkpt>
      <trkpt lat="47.81039" lon="-2.38399">
        <ele>67.747112</ele>
        <time>2023-05-05T13:28:07.153Z</time>
      </trkpt>
      <trkpt lat="47.81045" lon="-2.38409">
        <ele>67.830292</ele>
        <time>2023-05-05T13:28:18.151Z</time>
      </trkpt>
      <trkpt lat="47.81059" lon="-2.3841">
        <ele>67.960787</ele>
        <time>2023-05-05T13:28:50.152Z</time>
      </trkpt>
      <trkpt lat="47.81069" lon="-2.38406">
        <ele>68.019412</ele>
        <time>2023-05-05T13:28:54.151Z</time>
      </trkpt>
      <trkpt lat="47.8108" lon="-2.384">
        <ele>68.056753</ele>
        <time>2023-05-05T13:28:59.149Z</time>
      </trkpt>
      <trkpt lat="47.81089" lon="-2.38393">
        <ele>68.091555</ele>
        <time>2023-05-05T13:29:03.153Z</time>
      </trkpt>
      <trkpt lat="47.81097" lon="-2.38384">
        <ele>68.125629</ele>
        <time>2023-05-05T13:29:07.149Z</time>
      </trkpt>
      <trkpt lat="47.81104" lon="-2.38374">
        <ele>68.160283</ele>
        <time>2023-05-05T13:29:12.154Z</time>
      </trkpt>
      <trkpt lat="47.81102" lon="-2.38388">
        <ele>68.193487</ele>
        <time>2023-05-05T13:30:39.150Z</time>
      </trkpt>
      <trkpt lat="47.81109" lon="-2.38399">
        <ele>68.228113</ele>
        <time>2023-05-05T13:30:45.148Z</time>
      </trkpt>
      <trkpt lat="47.81113" lon="-2.38412">
        <ele>68.259865</ele>
        <time>2023-05-05T13:30:50.154Z</time>
      </trkpt>
      <trkpt lat="47.81103" lon="-2.38414">
        <ele>68.291797</ele>
        <time>2023-05-05T13:30:56.152Z</time>
      </trkpt>
      <trkpt lat="47.81093" lon="-2.38417">
        <ele>68.328929</ele>
        <time>2023-05-05T13:31:00.157Z</time>
      </trkpt>
      <trkpt lat="47.81084" lon="-2.38422">
        <ele>68.359906</ele>
        <time>2023-05-05T13:31:03.155Z</time>
      </trkpt>
      <trkpt lat="47.81075" lon="-2.38428">
        <ele>68.393819</ele>
        <time>2023-05-05T13:31:06.149Z</time>
      </trkpt>
      <trkpt lat="47.81066" lon="-2.38437">
        <ele>68.430916</ele>
        <time>2023-05-05T13:31:10.151Z</time>
      </trkpt>
      <trkpt lat="47.81058" lon="-2.38447">
        <ele>68.464491</ele>
        <time>2023-05-05T13:31:14.154Z</time>
      </trkpt>
      <trkpt lat="47.81069" lon="-2.38446">
        <ele>68.501262</ele>
        <time>2023-05-05T13:35:51.151Z</time>
      </trkpt>
      <trkpt lat="47.8106" lon="-2.38446">
        <ele>68.532866</ele>
        <time>2023-05-05T13:36:12.148Z</time>
      </trkpt>
      <trkpt lat="47.81049" lon="-2.38448">
        <ele>68.570552</ele>
        <time>2023-05-05T13:38:04.165Z</time>
      </trkpt>
      <trkpt lat="47.81048" lon="-2.38431">
        <ele>68.609631</ele>
        <time>2023-05-05T13:40:55.155Z</time>
      </trkpt>
      <trkpt lat="47.81054" lon="-2.3842">
        <ele>68.417735</ele>
        <time>2023-05-05T13:41:01.144Z</time>
      </trkpt>
      <trkpt lat="47.81063" lon="-2.38411">
        <ele>68.204575</ele>
        <time>2023-05-05T13:41:05.156Z</time>
      </trkpt>
      <trkpt lat="47.81073" lon="-2.38405">
        <ele>67.995603</ele>
        <time>2023-05-05T13:41:10.145Z</time>
      </trkpt>
      <trkpt lat="47.81081" lon="-2.38399">
        <ele>67.810544</ele>
        <time>2023-05-05T13:41:15.143Z</time>
      </trkpt>
      <trkpt lat="47.81091" lon="-2.38391">
        <ele>67.580013</ele>
        <time>2023-05-05T13:41:20.141Z</time>
      </trkpt>
      <trkpt lat="47.81099" lon="-2.38381">
        <ele>67.358943</ele>
        <time>2023-05-05T13:41:24.150Z</time>
      </trkpt>
      <trkpt lat="47.8111" lon="-2.38372">
        <ele>67.1171</ele>
        <time>2023-05-05T13:41:28.153Z</time>
      </trkpt>
      <trkpt lat="47.81118" lon="-2.38364">
        <ele>66.920824</ele>
        <time>2023-05-05T13:41:32.150Z</time>
      </trkpt>
      <trkpt lat="47.81127" lon="-2.38358">
        <ele>66.717022</ele>
        <time>2023-05-05T13:41:36.147Z</time>
      </trkpt>
      <trkpt lat="47.81138" lon="-2.38352">
        <ele>66.478355</ele>
        <time>2023-05-05T13:41:40.151Z</time>
      </trkpt>
      <trkpt lat="47.81148" lon="-2.38346">
        <ele>66.258671</ele>
        <time>2023-05-05T13:41:43.148Z</time>
      </trkpt>
      <trkpt lat="47.81159" lon="-2.38341">
        <ele>66.030315</ele>
        <time>2023-05-05T13:41:46.153Z</time>
      </trkpt>
      <trkpt lat="47.81168" lon="-2.38336">
        <ele>65.839085</ele>
        <time>2023-05-05T13:41:49.151Z</time>
      </trkpt>
      <trkpt lat="47.81176" lon="-2.38329">
        <ele>65.642383</ele>
        <time>2023-05-05T13:41:52.153Z</time>
      </trkpt>
      <trkpt lat="47.81184" lon="-2.38318">
        <ele>65.420569</ele>
        <time>2023-05-05T13:41:56.154Z</time>
      </trkpt>
      <trkpt lat="47.8119" lon="-2.38305">
        <ele>65.212785</ele>
        <time>2023-05-05T13:42:01.146Z</time>
      </trkpt>
      <trkpt lat="47.81197" lon="-2.38294">
        <ele>65.004395</ele>
        <time>2023-05-05T13:42:08.146Z</time>
      </trkpt>
      <trkpt lat="47.81188" lon="-2.38279">
        <ele>64.707526</ele>
        <time>2023-05-05T13:42:34.143Z</time>
      </trkpt>
      <trkpt lat="47.81179" lon="-2.38268">
        <ele>64.452599</ele>
        <time>2023-05-05T13:42:38.135Z</time>
      </trkpt>
      <trkpt lat="47.81171" lon="-2.38258">
        <ele>64.226603</ele>
        <time>2023-05-05T13:42:41.147Z</time>
      </trkpt>
      <trkpt lat="47.81164" lon="-2.38247">
        <ele>64.001782</ele>
        <time>2023-05-05T13:42:44.146Z</time>
      </trkpt>
      <trkpt lat="47.81156" lon="-2.38236">
        <ele>63.764081</ele>
        <time>2023-05-05T13:42:47.150Z</time>
      </trkpt>
      <trkpt lat="47.8115" lon="-2.38226">
        <ele>63.568069</ele>
        <time>2023-05-05T13:42:50.148Z</time>
      </trkpt>
      <trkpt lat="47.8114" lon="-2.38216">
        <ele>63.305824</ele>
        <time>2023-05-05T13:42:53.148Z</time>
      </trkpt>
      <trkpt lat="47.81128" lon="-2.38206">
        <ele>63.017976</ele>
        <time>2023-05-05T13:42:56.147Z</time>
      </trkpt>
      <trkpt lat="47.81119" lon="-2.38198">
        <ele>62.776742</ele>
        <time>2023-05-05T13:42:59.147Z</time>
      </trkpt>
      <trkpt lat="47.81111" lon="-2.38191">
        <ele>62.5774</ele>
        <time>2023-05-05T13:43:02.155Z</time>
      </trkpt>
      <trkpt lat="47.81103" lon="-2.38184">
        <ele>62.373976</ele>
        <time>2023-05-05T13:43:06.135Z</time>
      </trkpt>
      <trkpt lat="47.81094" lon="-2.38179">
        <ele>62.169708</ele>
        <time>2023-05-05T13:43:11.138Z</time>
      </trkpt>
      <trkpt lat="47.81085" lon="-2.38171">
        <ele>61.946089</ele>
        <time>2023-05-05T13:43:16.149Z</time>
      </trkpt>
      <trkpt lat="47.81075" lon="-2.38166">
        <ele>61.71456</ele>
        <time>2023-05-05T13:43:20.152Z</time>
      </trkpt>
      <trkpt lat="47.81066" lon="-2.38161">
        <ele>61.495428</ele>
        <time>2023-05-05T13:43:24.150Z</time>
      </trkpt>
      <trkpt lat="47.81055" lon="-2.38153">
        <ele>61.238933</ele>
        <time>2023-05-05T13:43:28.146Z</time>
      </trkpt>
      <trkpt lat="47.81047" lon="-2.38147">
        <ele>61.055434</ele>
        <time>2023-05-05T13:43:31.146Z</time>
      </trkpt>
      <trkpt lat="47.81037" lon="-2.38139">
        <ele>61.149027</ele>
        <time>2023-05-05T13:43:34.149Z</time>
      </trkpt>
      <trkpt lat="47.81028" lon="-2.38134">
        <ele>61.235927</ele>
        <time>2023-05-05T13:43:37.145Z</time>
      </trkpt>
      <trkpt lat="47.81019" lon="-2.38126">
        <ele>61.323092</ele>
        <time>2023-05-05T13:43:40.156Z</time>
      </trkpt>
      <trkpt lat="47.81009" lon="-2.38119">
        <ele>61.417935</ele>
        <time>2023-05-05T13:43:43.147Z</time>
      </trkpt>
      <trkpt lat="47.80999" lon="-2.38113">
        <ele>61.512658</ele>
        <time>2023-05-05T13:43:46.151Z</time>
      </trkpt>
      <trkpt lat="47.80988" lon="-2.38108">
        <ele>61.612536</ele>
        <time>2023-05-05T13:43:50.156Z</time>
      </trkpt>
      <trkpt lat="47.80978" lon="-2.38103">
        <ele>61.698921</ele>
        <time>2023-05-05T13:43:54.145Z</time>
      </trkpt>
      <trkpt lat="47.80969" lon="-2.38096">
        <ele>61.789917</ele>
        <time>2023-05-05T13:43:58.154Z</time>
      </trkpt>
      <trkpt lat="47.80957" lon="-2.38089">
        <ele>61.89407</ele>
        <time>2023-05-05T13:44:02.148Z</time>
      </trkpt>
      <trkpt lat="47.80948" lon="-2.38083">
        <ele>61.982869</ele>
        <time>2023-05-05T13:44:05.148Z</time>
      </trkpt>
      <trkpt lat="47.80939" lon="-2.38076">
        <ele>62.066964</ele>
        <time>2023-05-05T13:44:08.134Z</time>
      </trkpt>
      <trkpt lat="47.8093" lon="-2.38071">
        <ele>62.150219</ele>
        <time>2023-05-05T13:44:11.146Z</time>
      </trkpt>
      <trkpt lat="47.80921" lon="-2.38066">
        <ele>62.229462</ele>
        <time>2023-05-05T13:44:14.146Z</time>
      </trkpt>
      <trkpt lat="47.80912" lon="-2.3806">
        <ele>62.315061</ele>
        <time>2023-05-05T13:44:17.145Z</time>
      </trkpt>
      <trkpt lat="47.80903" lon="-2.38054">
        <ele>62.407245</ele>
        <time>2023-05-05T13:44:20.147Z</time>
      </trkpt>
      <trkpt lat="47.80894" lon="-2.38048">
        <ele>62.488722</ele>
        <time>2023-05-05T13:44:23.147Z</time>
      </trkpt>
      <trkpt lat="47.80885" lon="-2.3804">
        <ele>62.574538</ele>
        <time>2023-05-05T13:44:27.150Z</time>
      </trkpt>
      <trkpt lat="47.80874" lon="-2.38039">
        <ele>62.603246</ele>
        <time>2023-05-05T13:44:44.143Z</time>
      </trkpt>
      <trkpt lat="47.80863" lon="-2.38043">
        <ele>62.617673</ele>
        <time>2023-05-05T13:44:49.144Z</time>
      </trkpt>
      <trkpt lat="47.80852" lon="-2.38046">
        <ele>62.632179</ele>
        <time>2023-05-05T13:44:54.147Z</time>
      </trkpt>
      <trkpt lat="47.80841" lon="-2.38043">
        <ele>62.646929</ele>
        <time>2023-05-05T13:44:58.149Z</time>
      </trkpt>
      <trkpt lat="47.80831" lon="-2.38041">
        <ele>62.659955</ele>
        <time>2023-05-05T13:45:01.150Z</time>
      </trkpt>
      <trkpt lat="47.8082" lon="-2.38041">
        <ele>62.673782</ele>
        <time>2023-05-05T13:45:04.147Z</time>
      </trkpt>
      <trkpt lat="47.8081" lon="-2.38042">
        <ele>62.686589</ele>
        <time>2023-05-05T13:45:07.144Z</time>
      </trkpt>
      <trkpt lat="47.80799" lon="-2.3804">
        <ele>62.701402</ele>
        <time>2023-05-05T13:45:11.148Z</time>
      </trkpt>
      <trkpt lat="47.80788" lon="-2.38039">
        <ele>62.714922</ele>
        <time>2023-05-05T13:45:15.145Z</time>
      </trkpt>
      <trkpt lat="47.80779" lon="-2.38039">
        <ele>62.726954</ele>
        <time>2023-05-05T13:45:18.149Z</time>
      </trkpt>
      <trkpt lat="47.80769" lon="-2.38038">
        <ele>62.739525</ele>
        <time>2023-05-05T13:45:21.148Z</time>
      </trkpt>
      <trkpt lat="47.8076" lon="-2.38038">
        <ele>62.751154</ele>
        <time>2023-05-05T13:45:24.147Z</time>
      </trkpt>
      <trkpt lat="47.80749" lon="-2.38042">
        <ele>62.765907</ele>
        <time>2023-05-05T13:45:28.146Z</time>
      </trkpt>
      <trkpt lat="47.8074" lon="-2.38045">
        <ele>62.777864</ele>
        <time>2023-05-05T13:45:31.144Z</time>
      </trkpt>
      <trkpt lat="47.80731" lon="-2.38046">
        <ele>62.789833</ele>
        <time>2023-05-05T13:45:34.148Z</time>
      </trkpt>
      <trkpt lat="47.80722" lon="-2.38048">
        <ele>62.80193</ele>
        <time>2023-05-05T13:45:37.146Z</time>
      </trkpt>
      <trkpt lat="47.80713" lon="-2.38048">
        <ele>62.813823</ele>
        <time>2023-05-05T13:45:40.140Z</time>
      </trkpt>
      <trkpt lat="47.80703" lon="-2.38047">
        <ele>62.816327</ele>
        <time>2023-05-05T13:45:43.159Z</time>
      </trkpt>
      <trkpt lat="47.80694" lon="-2.38045">
        <ele>62.779447</ele>
        <time>2023-05-05T13:45:46.145Z</time>
      </trkpt>
      <trkpt lat="47.80683" lon="-2.38042">
        <ele>62.738768</ele>
        <time>2023-05-05T13:45:49.143Z</time>
      </trkpt>
      <trkpt lat="47.80673" lon="-2.38037">
        <ele>62.696514</ele>
        <time>2023-05-05T13:45:52.147Z</time>
      </trkpt>
      <trkpt lat="47.80663" lon="-2.38031">
        <ele>62.657183</ele>
        <time>2023-05-05T13:45:55.148Z</time>
      </trkpt>
      <trkpt lat="47.80655" lon="-2.38024">
        <ele>62.620886</ele>
        <time>2023-05-05T13:45:58.136Z</time>
      </trkpt>
      <trkpt lat="47.80645" lon="-2.38016">
        <ele>62.577666</ele>
        <time>2023-05-05T13:46:02.139Z</time>
      </trkpt>
      <trkpt lat="47.80637" lon="-2.38006">
        <ele>62.536366</ele>
        <time>2023-05-05T13:46:06.138Z</time>
      </trkpt>
      <trkpt lat="47.8063" lon="-2.37998">
        <ele>62.501406</ele>
        <time>2023-05-05T13:46:09.138Z</time>
      </trkpt>
      <trkpt lat="47.80624" lon="-2.37987">
        <ele>62.465742</ele>
        <time>2023-05-05T13:46:12.142Z</time>
      </trkpt>
      <trkpt lat="47.80615" lon="-2.37977">
        <ele>62.422749</ele>
        <time>2023-05-05T13:46:15.142Z</time>
      </trkpt>
      <trkpt lat="47.80608" lon="-2.37967">
        <ele>62.386936</ele>
        <time>2023-05-05T13:46:18.143Z</time>
      </trkpt>
      <trkpt lat="47.80603" lon="-2.37956">
        <ele>62.350735</ele>
        <time>2023-05-05T13:46:21.136Z</time>
      </trkpt>
      <trkpt lat="47.80596" lon="-2.37942">
        <ele>62.307187</ele>
        <time>2023-05-05T13:46:25.139Z</time>
      </trkpt>
      <trkpt lat="47.80589" lon="-2.37928">
        <ele>62.263291</ele>
        <time>2023-05-05T13:46:29.134Z</time>
      </trkpt>
      <trkpt lat="47.80584" lon="-2.37913">
        <ele>62.218617</ele>
        <time>2023-05-05T13:46:33.145Z</time>
      </trkpt>
      <trkpt lat="47.80579" lon="-2.37901">
        <ele>62.183029</ele>
        <time>2023-05-05T13:46:36.146Z</time>
      </trkpt>
      <trkpt lat="47.80575" lon="-2.37888">
        <ele>62.14508</ele>
        <time>2023-05-05T13:46:39.132Z</time>
      </trkpt>
      <trkpt lat="47.8057" lon="-2.37873">
        <ele>62.128446</ele>
        <time>2023-05-05T13:46:42.134Z</time>
      </trkpt>
      <trkpt lat="47.80566" lon="-2.37859">
        <ele>62.122301</ele>
        <time>2023-05-05T13:46:45.133Z</time>
      </trkpt>
      <trkpt lat="47.80561" lon="-2.37843">
        <ele>62.115797</ele>
        <time>2023-05-05T13:46:48.135Z</time>
      </trkpt>
      <trkpt lat="47.80557" lon="-2.37828">
        <ele>62.109239</ele>
        <time>2023-05-05T13:46:51.136Z</time>
      </trkpt>
      <trkpt lat="47.80551" lon="-2.3781">
        <ele>62.10175</ele>
        <time>2023-05-05T13:46:54.144Z</time>
      </trkpt>
      <trkpt lat="47.80546" lon="-2.37794">
        <ele>62.094687</ele>
        <time>2023-05-05T13:46:57.142Z</time>
      </trkpt>
      <trkpt lat="47.80542" lon="-2.37777">
        <ele>62.087573</ele>
        <time>2023-05-05T13:47:00.132Z</time>
      </trkpt>
      <trkpt lat="47.80537" lon="-2.37758">
        <ele>62.079942</ele>
        <time>2023-05-05T13:47:03.135Z</time>
      </trkpt>
      <trkpt lat="47.80532" lon="-2.37741">
        <ele>62.072534</ele>
        <time>2023-05-05T13:47:06.142Z</time>
      </trkpt>
      <trkpt lat="47.80528" lon="-2.37728">
        <ele>62.0671</ele>
        <time>2023-05-05T13:47:08.142Z</time>
      </trkpt>
      <trkpt lat="47.80524" lon="-2.37712">
        <ele>62.060602</ele>
        <time>2023-05-05T13:47:11.135Z</time>
      </trkpt>
      <trkpt lat="47.80519" lon="-2.37695">
        <ele>62.053525</ele>
        <time>2023-05-05T13:47:14.133Z</time>
      </trkpt>
      <trkpt lat="47.80515" lon="-2.37677">
        <ele>62.046113</ele>
        <time>2023-05-05T13:47:17.139Z</time>
      </trkpt>
      <trkpt lat="47.8051" lon="-2.37661">
        <ele>62.039049</ele>
        <time>2023-05-05T13:47:20.136Z</time>
      </trkpt>
      <trkpt lat="47.80504" lon="-2.37643">
        <ele>62.03142</ele>
        <time>2023-05-05T13:47:23.141Z</time>
      </trkpt>
      <trkpt lat="47.805" lon="-2.37625">
        <ele>62.037801</ele>
        <time>2023-05-05T13:47:26.135Z</time>
      </trkpt>
      <trkpt lat="47.80496" lon="-2.37609">
        <ele>62.049156</ele>
        <time>2023-05-05T13:47:29.144Z</time>
      </trkpt>
      <trkpt lat="47.80493" lon="-2.37593">
        <ele>62.060441</ele>
        <time>2023-05-05T13:47:32.146Z</time>
      </trkpt>
      <trkpt lat="47.80489" lon="-2.37578">
        <ele>62.070975</ele>
        <time>2023-05-05T13:47:35.151Z</time>
      </trkpt>
      <trkpt lat="47.80485" lon="-2.37562">
        <ele>62.081948</ele>
        <time>2023-05-05T13:47:38.150Z</time>
      </trkpt>
      <trkpt lat="47.80481" lon="-2.37545">
        <ele>62.093674</ele>
        <time>2023-05-05T13:47:41.143Z</time>
      </trkpt>
      <trkpt lat="47.80477" lon="-2.37528">
        <ele>62.106115</ele>
        <time>2023-05-05T13:47:44.149Z</time>
      </trkpt>
      <trkpt lat="47.80473" lon="-2.37509">
        <ele>62.119029</ele>
        <time>2023-05-05T13:47:47.148Z</time>
      </trkpt>
      <trkpt lat="47.80469" lon="-2.3749">
        <ele>62.132011</ele>
        <time>2023-05-05T13:47:50.147Z</time>
      </trkpt>
      <trkpt lat="47.80465" lon="-2.37474">
        <ele>62.143704</ele>
        <time>2023-05-05T13:47:53.148Z</time>
      </trkpt>
      <trkpt lat="47.80461" lon="-2.3746">
        <ele>62.153679</ele>
        <time>2023-05-05T13:47:56.144Z</time>
      </trkpt>
      <trkpt lat="47.80458" lon="-2.37446">
        <ele>62.163285</ele>
        <time>2023-05-05T13:47:59.149Z</time>
      </trkpt>
      <trkpt lat="47.80455" lon="-2.37431">
        <ele>62.173539</ele>
        <time>2023-05-05T13:48:02.147Z</time>
      </trkpt>
      <trkpt lat="47.80453" lon="-2.37417">
        <ele>62.183156</ele>
        <time>2023-05-05T13:48:05.149Z</time>
      </trkpt>
      <trkpt lat="47.80451" lon="-2.37402">
        <ele>62.192977</ele>
        <time>2023-05-05T13:48:08.140Z</time>
      </trkpt>
      <trkpt lat="47.8045" lon="-2.37387">
        <ele>62.203091</ele>
        <time>2023-05-05T13:48:11.133Z</time>
      </trkpt>
      <trkpt lat="47.80449" lon="-2.37371">
        <ele>62.411669</ele>
        <time>2023-05-05T13:48:14.143Z</time>
      </trkpt>
      <trkpt lat="47.80448" lon="-2.37354">
        <ele>62.709385</ele>
        <time>2023-05-05T13:48:17.147Z</time>
      </trkpt>
      <trkpt lat="47.80448" lon="-2.37335">
        <ele>63.023832</ele>
        <time>2023-05-05T13:48:20.143Z</time>
      </trkpt>
      <trkpt lat="47.80449" lon="-2.37318">
        <ele>63.317953</ele>
        <time>2023-05-05T13:48:23.140Z</time>
      </trkpt>
      <trkpt lat="47.80451" lon="-2.37301">
        <ele>63.616395</ele>
        <time>2023-05-05T13:48:26.139Z</time>
      </trkpt>
      <trkpt lat="47.80453" lon="-2.37283">
        <ele>63.932157</ele>
        <time>2023-05-05T13:48:29.143Z</time>
      </trkpt>
      <trkpt lat="47.80455" lon="-2.37267">
        <ele>64.225692</ele>
        <time>2023-05-05T13:48:32.142Z</time>
      </trkpt>
      <trkpt lat="47.80457" lon="-2.37248">
        <ele>64.546025</ele>
        <time>2023-05-05T13:48:35.148Z</time>
      </trkpt>
      <trkpt lat="47.80459" lon="-2.37231">
        <ele>64.854617</ele>
        <time>2023-05-05T13:48:38.146Z</time>
      </trkpt>
      <trkpt lat="47.80462" lon="-2.37214">
        <ele>65.149953</ele>
        <time>2023-05-05T13:48:41.148Z</time>
      </trkpt>
      <trkpt lat="47.80465" lon="-2.37198">
        <ele>65.447971</ele>
        <time>2023-05-05T13:48:44.147Z</time>
      </trkpt>
      <trkpt lat="47.80471" lon="-2.37182">
        <ele>65.754282</ele>
        <time>2023-05-05T13:48:47.150Z</time>
      </trkpt>
      <trkpt lat="47.80478" lon="-2.37165">
        <ele>66.093338</ele>
        <time>2023-05-05T13:48:50.144Z</time>
      </trkpt>
      <trkpt lat="47.80484" lon="-2.37148">
        <ele>66.429389</ele>
        <time>2023-05-05T13:48:53.146Z</time>
      </trkpt>
      <trkpt lat="47.8049" lon="-2.37131">
        <ele>66.753871</ele>
        <time>2023-05-05T13:48:56.147Z</time>
      </trkpt>
      <trkpt lat="47.80497" lon="-2.37117">
        <ele>66.760746</ele>
        <time>2023-05-05T13:48:59.149Z</time>
      </trkpt>
      <trkpt lat="47.80504" lon="-2.37103">
        <ele>66.666131</ele>
        <time>2023-05-05T13:49:02.146Z</time>
      </trkpt>
      <trkpt lat="47.80511" lon="-2.37093">
        <ele>66.586802</ele>
        <time>2023-05-05T13:49:05.147Z</time>
      </trkpt>
      <trkpt lat="47.80519" lon="-2.37085">
        <ele>66.513145</ele>
        <time>2023-05-05T13:49:08.151Z</time>
      </trkpt>
      <trkpt lat="47.80528" lon="-2.37076">
        <ele>66.422867</ele>
        <time>2023-05-05T13:49:12.149Z</time>
      </trkpt>
      <trkpt lat="47.80539" lon="-2.3707">
        <ele>66.328385</ele>
        <time>2023-05-05T13:49:16.145Z</time>
      </trkpt>
      <trkpt lat="47.80548" lon="-2.37064">
        <ele>66.250302</ele>
        <time>2023-05-05T13:49:19.141Z</time>
      </trkpt>
      <trkpt lat="47.80558" lon="-2.37059">
        <ele>66.169789</ele>
        <time>2023-05-05T13:49:22.144Z</time>
      </trkpt>
      <trkpt lat="47.80567" lon="-2.37053">
        <ele>66.089456</ele>
        <time>2023-05-05T13:49:25.146Z</time>
      </trkpt>
      <trkpt lat="47.80577" lon="-2.37047">
        <ele>66.003777</ele>
        <time>2023-05-05T13:49:28.152Z</time>
      </trkpt>
      <trkpt lat="47.80588" lon="-2.37041">
        <ele>65.911</ele>
        <time>2023-05-05T13:49:31.133Z</time>
      </trkpt>
      <trkpt lat="47.80598" lon="-2.37033">
        <ele>65.818256</ele>
        <time>2023-05-05T13:49:34.144Z</time>
      </trkpt>
      <trkpt lat="47.80609" lon="-2.37027">
        <ele>65.725995</ele>
        <time>2023-05-05T13:49:37.152Z</time>
      </trkpt>
      <trkpt lat="47.80621" lon="-2.37018">
        <ele>65.619904</ele>
        <time>2023-05-05T13:49:40.151Z</time>
      </trkpt>
      <trkpt lat="47.80633" lon="-2.37011">
        <ele>65.515471</ele>
        <time>2023-05-05T13:49:43.147Z</time>
      </trkpt>
      <trkpt lat="47.80643" lon="-2.37007">
        <ele>65.433714</ele>
        <time>2023-05-05T13:49:45.148Z</time>
      </trkpt>
      <trkpt lat="47.80652" lon="-2.37002">
        <ele>65.293628</ele>
        <time>2023-05-05T13:49:47.136Z</time>
      </trkpt>
      <trkpt lat="47.80662" lon="-2.36992">
        <ele>65.068072</ele>
        <time>2023-05-05T13:49:50.149Z</time>
      </trkpt>
      <trkpt lat="47.80671" lon="-2.36987">
        <ele>64.881786</ele>
        <time>2023-05-05T13:49:52.144Z</time>
      </trkpt>
      <trkpt lat="47.80681" lon="-2.3698">
        <ele>64.668961</ele>
        <time>2023-05-05T13:49:54.153Z</time>
      </trkpt>
      <trkpt lat="47.80689" lon="-2.36972">
        <ele>64.490743</ele>
        <time>2023-05-05T13:49:56.147Z</time>
      </trkpt>
      <trkpt lat="47.80699" lon="-2.36961">
        <ele>64.244705</ele>
        <time>2023-05-05T13:49:59.157Z</time>
      </trkpt>
      <trkpt lat="47.80708" lon="-2.36949">
        <ele>64.009256</ele>
        <time>2023-05-05T13:50:02.146Z</time>
      </trkpt>
      <trkpt lat="47.80717" lon="-2.3694">
        <ele>63.808687</ele>
        <time>2023-05-05T13:50:04.145Z</time>
      </trkpt>
      <trkpt lat="47.80724" lon="-2.36926">
        <ele>63.591304</ele>
        <time>2023-05-05T13:50:07.150Z</time>
      </trkpt>
      <trkpt lat="47.80731" lon="-2.36916">
        <ele>63.395217</ele>
        <time>2023-05-05T13:50:10.156Z</time>
      </trkpt>
      <trkpt lat="47.80737" lon="-2.36901">
        <ele>63.176284</ele>
        <time>2023-05-05T13:50:13.146Z</time>
      </trkpt>
      <trkpt lat="47.80743" lon="-2.36886">
        <ele>62.954146</ele>
        <time>2023-05-05T13:50:16.155Z</time>
      </trkpt>
      <trkpt lat="47.80747" lon="-2.3687">
        <ele>62.719859</ele>
        <time>2023-05-05T13:50:19.146Z</time>
      </trkpt>
      <trkpt lat="47.8075" lon="-2.36852">
        <ele>62.489125</ele>
        <time>2023-05-05T13:50:22.155Z</time>
      </trkpt>
      <trkpt lat="47.80752" lon="-2.36835">
        <ele>62.266573</ele>
        <time>2023-05-05T13:50:25.157Z</time>
      </trkpt>
      <trkpt lat="47.80754" lon="-2.36817">
        <ele>62.025554</ele>
        <time>2023-05-05T13:50:28.152Z</time>
      </trkpt>
      <trkpt lat="47.80755" lon="-2.36799">
        <ele>61.872803</ele>
        <time>2023-05-05T13:50:31.152Z</time>
      </trkpt>
      <trkpt lat="47.80756" lon="-2.36782">
        <ele>61.777332</ele>
        <time>2023-05-05T13:50:34.147Z</time>
      </trkpt>
      <trkpt lat="47.80756" lon="-2.36766">
        <ele>61.682459</ele>
        <time>2023-05-05T13:50:37.150Z</time>
      </trkpt>
      <trkpt lat="47.80755" lon="-2.36749">
        <ele>61.584706</ele>
        <time>2023-05-05T13:50:40.149Z</time>
      </trkpt>
      <trkpt lat="47.80756" lon="-2.36732">
        <ele>61.483767</ele>
        <time>2023-05-05T13:50:43.149Z</time>
      </trkpt>
      <trkpt lat="47.80758" lon="-2.36715">
        <ele>61.384021</ele>
        <time>2023-05-05T13:50:46.147Z</time>
      </trkpt>
      <trkpt lat="47.80759" lon="-2.36699">
        <ele>61.294135</ele>
        <time>2023-05-05T13:50:49.153Z</time>
      </trkpt>
      <trkpt lat="47.8076" lon="-2.36683">
        <ele>61.200818</ele>
        <time>2023-05-05T13:50:52.150Z</time>
      </trkpt>
      <trkpt lat="47.80761" lon="-2.36668">
        <ele>61.112652</ele>
        <time>2023-05-05T13:50:55.145Z</time>
      </trkpt>
      <trkpt lat="47.80763" lon="-2.36651">
        <ele>61.011185</ele>
        <time>2023-05-05T13:50:58.150Z</time>
      </trkpt>
      <trkpt lat="47.80764" lon="-2.36632">
        <ele>60.900805</ele>
        <time>2023-05-05T13:51:01.140Z</time>
      </trkpt>
      <trkpt lat="47.80765" lon="-2.36613">
        <ele>60.791849</ele>
        <time>2023-05-05T13:51:04.151Z</time>
      </trkpt>
      <trkpt lat="47.80765" lon="-2.36594">
        <ele>60.684842</ele>
        <time>2023-05-05T13:51:07.135Z</time>
      </trkpt>
      <trkpt lat="47.80765" lon="-2.36579">
        <ele>60.595153</ele>
        <time>2023-05-05T13:51:10.152Z</time>
      </trkpt>
      <trkpt lat="47.80766" lon="-2.36562">
        <ele>60.496007</ele>
        <time>2023-05-05T13:51:13.155Z</time>
      </trkpt>
      <trkpt lat="47.80766" lon="-2.36543">
        <ele>60.391248</ele>
        <time>2023-05-05T13:51:16.147Z</time>
      </trkpt>
      <trkpt lat="47.80767" lon="-2.36525">
        <ele>60.537603</ele>
        <time>2023-05-05T13:51:19.148Z</time>
      </trkpt>
      <trkpt lat="47.80767" lon="-2.36507">
        <ele>60.677454</ele>
        <time>2023-05-05T13:51:22.149Z</time>
      </trkpt>
      <trkpt lat="47.80767" lon="-2.36492">
        <ele>60.8036</ele>
        <time>2023-05-05T13:51:25.155Z</time>
      </trkpt>
      <trkpt lat="47.80766" lon="-2.36474">
        <ele>60.94293</ele>
        <time>2023-05-05T13:51:28.144Z</time>
      </trkpt>
      <trkpt lat="47.80766" lon="-2.36456">
        <ele>61.090775</ele>
        <time>2023-05-05T13:51:31.134Z</time>
      </trkpt>
      <trkpt lat="47.80765" lon="-2.36437">
        <ele>61.24024</ele>
        <time>2023-05-05T13:51:34.141Z</time>
      </trkpt>
      <trkpt lat="47.80765" lon="-2.3642">
        <ele>61.378485</ele>
        <time>2023-05-05T13:51:37.138Z</time>
      </trkpt>
      <trkpt lat="47.80765" lon="-2.36402">
        <ele>61.520781</ele>
        <time>2023-05-05T13:51:40.136Z</time>
      </trkpt>
      <trkpt lat="47.80765" lon="-2.36386">
        <ele>61.654206</ele>
        <time>2023-05-05T13:51:43.134Z</time>
      </trkpt>
      <trkpt lat="47.80766" lon="-2.36369">
        <ele>61.786323</ele>
        <time>2023-05-05T13:51:46.152Z</time>
      </trkpt>
      <trkpt lat="47.80766" lon="-2.36352">
        <ele>61.926937</ele>
        <time>2023-05-05T13:51:49.136Z</time>
      </trkpt>
      <trkpt lat="47.80766" lon="-2.36334">
        <ele>62.070838</ele>
        <time>2023-05-05T13:51:52.136Z</time>
      </trkpt>
      <trkpt lat="47.80767" lon="-2.36319">
        <ele>62.191153</ele>
        <time>2023-05-05T13:51:55.137Z</time>
      </trkpt>
      <trkpt lat="47.80767" lon="-2.36304">
        <ele>62.31102</ele>
        <time>2023-05-05T13:51:58.153Z</time>
      </trkpt>
      <trkpt lat="47.80766" lon="-2.36289">
        <ele>62.433242</ele>
        <time>2023-05-05T13:52:01.149Z</time>
      </trkpt>
      <trkpt lat="47.80766" lon="-2.36274">
        <ele>62.536466</ele>
        <time>2023-05-05T13:52:04.150Z</time>
      </trkpt>
      <trkpt lat="47.80766" lon="-2.36258">
        <ele>62.493095</ele>
        <time>2023-05-05T13:52:07.144Z</time>
      </trkpt>
      <trkpt lat="47.80766" lon="-2.36239">
        <ele>62.441913</ele>
        <time>2023-05-05T13:52:10.153Z</time>
      </trkpt>
      <trkpt lat="47.80768" lon="-2.36222">
        <ele>62.395993</ele>
        <time>2023-05-05T13:52:13.155Z</time>
      </trkpt>
      <trkpt lat="47.80768" lon="-2.36207">
        <ele>62.356094</ele>
        <time>2023-05-05T13:52:16.150Z</time>
      </trkpt>
      <trkpt lat="47.8077" lon="-2.3619">
        <ele>62.30964</ele>
        <time>2023-05-05T13:52:19.146Z</time>
      </trkpt>
      <trkpt lat="47.80771" lon="-2.36175">
        <ele>62.269262</ele>
        <time>2023-05-05T13:52:21.147Z</time>
      </trkpt>
      <trkpt lat="47.8077" lon="-2.36159">
        <ele>62.226012</ele>
        <time>2023-05-05T13:52:24.149Z</time>
      </trkpt>
      <trkpt lat="47.80771" lon="-2.36145">
        <ele>62.187775</ele>
        <time>2023-05-05T13:52:27.149Z</time>
      </trkpt>
      <trkpt lat="47.80772" lon="-2.36131">
        <ele>62.150567</ele>
        <time>2023-05-05T13:52:30.153Z</time>
      </trkpt>
      <trkpt lat="47.80772" lon="-2.36117">
        <ele>62.110937</ele>
        <time>2023-05-05T13:52:33.148Z</time>
      </trkpt>
      <trkpt lat="47.80771" lon="-2.36101">
        <ele>62.069115</ele>
        <time>2023-05-05T13:52:36.147Z</time>
      </trkpt>
      <trkpt lat="47.80772" lon="-2.36084">
        <ele>62.023832</ele>
        <time>2023-05-05T13:52:39.140Z</time>
      </trkpt>
      <trkpt lat="47.80773" lon="-2.36068">
        <ele>61.980345</ele>
        <time>2023-05-05T13:52:42.148Z</time>
      </trkpt>
      <trkpt lat="47.80774" lon="-2.3605">
        <ele>61.930816</ele>
        <time>2023-05-05T13:52:45.154Z</time>
      </trkpt>
      <trkpt lat="47.80775" lon="-2.36033">
        <ele>61.884104</ele>
        <time>2023-05-05T13:52:48.148Z</time>
      </trkpt>
      <trkpt lat="47.80776" lon="-2.36014">
        <ele>61.835026</ele>
        <time>2023-05-05T13:52:51.151Z</time>
      </trkpt>
      <trkpt lat="47.80777" lon="-2.35995">
        <ele>61.765161</ele>
        <time>2023-05-05T13:52:54.149Z</time>
      </trkpt>
      <trkpt lat="47.80778" lon="-2.35977">
        <ele>61.688849</ele>
        <time>2023-05-05T13:52:57.146Z</time>
      </trkpt>
      <trkpt lat="47.80781" lon="-2.35958">
        <ele>61.611744</ele>
        <time>2023-05-05T13:53:00.146Z</time>
      </trkpt>
      <trkpt lat="47.80782" lon="-2.35939">
        <ele>61.533679</ele>
        <time>2023-05-05T13:53:03.155Z</time>
      </trkpt>
      <trkpt lat="47.80784" lon="-2.35925">
        <ele>61.47768</ele>
        <time>2023-05-05T13:53:05.153Z</time>
      </trkpt>
      <trkpt lat="47.80786" lon="-2.35909">
        <ele>61.410684</ele>
        <time>2023-05-05T13:53:08.151Z</time>
      </trkpt>
      <trkpt lat="47.80787" lon="-2.35895">
        <ele>61.352638</ele>
        <time>2023-05-05T13:53:10.157Z</time>
      </trkpt>
      <trkpt lat="47.80787" lon="-2.35881">
        <ele>61.296104</ele>
        <time>2023-05-05T13:53:12.150Z</time>
      </trkpt>
      <trkpt lat="47.80788" lon="-2.35867">
        <ele>61.238256</ele>
        <time>2023-05-05T13:53:14.150Z</time>
      </trkpt>
      <trkpt lat="47.80789" lon="-2.35846">
        <ele>61.153386</ele>
        <time>2023-05-05T13:53:17.148Z</time>
      </trkpt>
      <trkpt lat="47.80793" lon="-2.3583">
        <ele>61.086198</ele>
        <time>2023-05-05T13:53:20.149Z</time>
      </trkpt>
      <trkpt lat="47.80796" lon="-2.35813">
        <ele>61.013631</ele>
        <time>2023-05-05T13:53:23.148Z</time>
      </trkpt>
      <trkpt lat="47.80798" lon="-2.35794">
        <ele>60.936017</ele>
        <time>2023-05-05T13:53:26.154Z</time>
      </trkpt>
      <trkpt lat="47.808" lon="-2.35779">
        <ele>60.874596</ele>
        <time>2023-05-05T13:53:28.154Z</time>
      </trkpt>
      <trkpt lat="47.80801" lon="-2.35765">
        <ele>60.818823</ele>
        <time>2023-05-05T13:53:30.143Z</time>
      </trkpt>
      <trkpt lat="47.80804" lon="-2.35753">
        <ele>60.76342</ele>
        <time>2023-05-05T13:53:32.139Z</time>
      </trkpt>
      <trkpt lat="47.80805" lon="-2.35739">
        <ele>60.698334</ele>
        <time>2023-05-05T13:53:34.146Z</time>
      </trkpt>
      <trkpt lat="47.80807" lon="-2.35722">
        <ele>60.605867</ele>
        <time>2023-05-05T13:53:37.149Z</time>
      </trkpt>
      <trkpt lat="47.8081" lon="-2.35707">
        <ele>60.520178</ele>
        <time>2023-05-05T13:53:40.149Z</time>
      </trkpt>
      <trkpt lat="47.80813" lon="-2.35691">
        <ele>60.431353</ele>
        <time>2023-05-05T13:53:43.142Z</time>
      </trkpt>
      <trkpt lat="47.80815" lon="-2.35674">
        <ele>60.33586</ele>
        <time>2023-05-05T13:53:47.151Z</time>
      </trkpt>
      <trkpt lat="47.80818" lon="-2.35655">
        <ele>60.231911</ele>
        <time>2023-05-05T13:53:50.148Z</time>
      </trkpt>
      <trkpt lat="47.8082" lon="-2.35637">
        <ele>60.132218</ele>
        <time>2023-05-05T13:53:53.147Z</time>
      </trkpt>
      <trkpt lat="47.80823" lon="-2.35617">
        <ele>60.026548</ele>
        <time>2023-05-05T13:53:56.152Z</time>
      </trkpt>
      <trkpt lat="47.80824" lon="-2.35604">
        <ele>59.953635</ele>
        <time>2023-05-05T13:53:58.156Z</time>
      </trkpt>
      <trkpt lat="47.80825" lon="-2.35585">
        <ele>59.849774</ele>
        <time>2023-05-05T13:54:01.153Z</time>
      </trkpt>
      <trkpt lat="47.80826" lon="-2.35567">
        <ele>59.751233</ele>
        <time>2023-05-05T13:54:04.151Z</time>
      </trkpt>
      <trkpt lat="47.80828" lon="-2.35547">
        <ele>59.645658</ele>
        <time>2023-05-05T13:54:07.150Z</time>
      </trkpt>
      <trkpt lat="47.80828" lon="-2.3553">
        <ele>59.551708</ele>
        <time>2023-05-05T13:54:10.148Z</time>
      </trkpt>
      <trkpt lat="47.80827" lon="-2.35513">
        <ele>59.45861</ele>
        <time>2023-05-05T13:54:13.150Z</time>
      </trkpt>
      <trkpt lat="47.80825" lon="-2.35497">
        <ele>59.370478</ele>
        <time>2023-05-05T13:54:16.154Z</time>
      </trkpt>
      <trkpt lat="47.80822" lon="-2.3548">
        <ele>59.301969</ele>
        <time>2023-05-05T13:54:19.147Z</time>
      </trkpt>
      <trkpt lat="47.80818" lon="-2.35462">
        <ele>59.423074</ele>
        <time>2023-05-05T13:54:22.153Z</time>
      </trkpt>
      <trkpt lat="47.80814" lon="-2.35445">
        <ele>59.536058</ele>
        <time>2023-05-05T13:54:25.150Z</time>
      </trkpt>
      <trkpt lat="47.8081" lon="-2.35428">
        <ele>59.655031</ele>
        <time>2023-05-05T13:54:28.147Z</time>
      </trkpt>
      <trkpt lat="47.80806" lon="-2.35411">
        <ele>59.769754</ele>
        <time>2023-05-05T13:54:31.152Z</time>
      </trkpt>
      <trkpt lat="47.80803" lon="-2.35394">
        <ele>59.882669</ele>
        <time>2023-05-05T13:54:34.154Z</time>
      </trkpt>
      <trkpt lat="47.80799" lon="-2.35378">
        <ele>59.990109</ele>
        <time>2023-05-05T13:54:37.147Z</time>
      </trkpt>
      <trkpt lat="47.80797" lon="-2.35364">
        <ele>60.085732</ele>
        <time>2023-05-05T13:54:40.154Z</time>
      </trkpt>
      <trkpt lat="47.80795" lon="-2.35349">
        <ele>60.183653</ele>
        <time>2023-05-05T13:54:44.152Z</time>
      </trkpt>
      <trkpt lat="47.80792" lon="-2.35332">
        <ele>60.291551</ele>
        <time>2023-05-05T13:54:48.148Z</time>
      </trkpt>
      <trkpt lat="47.80788" lon="-2.35317">
        <ele>60.396202</ele>
        <time>2023-05-05T13:54:53.154Z</time>
      </trkpt>
      <trkpt lat="47.80784" lon="-2.35302">
        <ele>60.499454</ele>
        <time>2023-05-05T13:54:57.154Z</time>
      </trkpt>
      <trkpt lat="47.80781" lon="-2.35286">
        <ele>60.608413</ele>
        <time>2023-05-05T13:55:01.151Z</time>
      </trkpt>
      <trkpt lat="47.80777" lon="-2.3527">
        <ele>60.715556</ele>
        <time>2023-05-05T13:55:05.151Z</time>
      </trkpt>
      <trkpt lat="47.80774" lon="-2.35257">
        <ele>60.801479</ele>
        <time>2023-05-05T13:55:08.148Z</time>
      </trkpt>
      <trkpt lat="47.80771" lon="-2.35244">
        <ele>60.890175</ele>
        <time>2023-05-05T13:55:11.152Z</time>
      </trkpt>
      <trkpt lat="47.80769" lon="-2.3523">
        <ele>60.981219</ele>
        <time>2023-05-05T13:55:14.154Z</time>
      </trkpt>
      <trkpt lat="47.80765" lon="-2.35216">
        <ele>61.112146</ele>
        <time>2023-05-05T13:55:17.149Z</time>
      </trkpt>
      <trkpt lat="47.80763" lon="-2.35202">
        <ele>61.258078</ele>
        <time>2023-05-05T13:55:20.156Z</time>
      </trkpt>
      <trkpt lat="47.80759" lon="-2.35185">
        <ele>61.422691</ele>
        <time>2023-05-05T13:55:23.148Z</time>
      </trkpt>
      <trkpt lat="47.80755" lon="-2.35167">
        <ele>61.604888</ele>
        <time>2023-05-05T13:55:26.153Z</time>
      </trkpt>
      <trkpt lat="47.80751" lon="-2.3515">
        <ele>61.777213</ele>
        <time>2023-05-05T13:55:29.152Z</time>
      </trkpt>
      <trkpt lat="47.80749" lon="-2.35134">
        <ele>61.939674</ele>
        <time>2023-05-05T13:55:32.153Z</time>
      </trkpt>
      <trkpt lat="47.80746" lon="-2.35119">
        <ele>62.085101</ele>
        <time>2023-05-05T13:55:35.152Z</time>
      </trkpt>
      <trkpt lat="47.80743" lon="-2.35105">
        <ele>62.230042</ele>
        <time>2023-05-05T13:55:38.151Z</time>
      </trkpt>
      <trkpt lat="47.80739" lon="-2.3509">
        <ele>62.381784</ele>
        <time>2023-05-05T13:55:41.150Z</time>
      </trkpt>
      <trkpt lat="47.80736" lon="-2.35072">
        <ele>62.557719</ele>
        <time>2023-05-05T13:55:44.153Z</time>
      </trkpt>
      <trkpt lat="47.80731" lon="-2.35054">
        <ele>62.748117</ele>
        <time>2023-05-05T13:55:47.151Z</time>
      </trkpt>
      <trkpt lat="47.80727" lon="-2.35035">
        <ele>62.936303</ele>
        <time>2023-05-05T13:55:50.153Z</time>
      </trkpt>
      <trkpt lat="47.80723" lon="-2.35017">
        <ele>63.117578</ele>
        <time>2023-05-05T13:55:53.150Z</time>
      </trkpt>
      <trkpt lat="47.80719" lon="-2.35">
        <ele>63.29249</ele>
        <time>2023-05-05T13:55:56.146Z</time>
      </trkpt>
      <trkpt lat="47.80715" lon="-2.34982">
        <ele>63.47659</ele>
        <time>2023-05-05T13:55:59.151Z</time>
      </trkpt>
      <trkpt lat="47.80711" lon="-2.34964">
        <ele>63.561091</ele>
        <time>2023-05-05T13:56:02.146Z</time>
      </trkpt>
      <trkpt lat="47.80707" lon="-2.34949">
        <ele>63.543903</ele>
        <time>2023-05-05T13:56:05.148Z</time>
      </trkpt>
      <trkpt lat="47.80703" lon="-2.3493">
        <ele>63.52388</ele>
        <time>2023-05-05T13:56:08.152Z</time>
      </trkpt>
      <trkpt lat="47.807" lon="-2.34917">
        <ele>63.509693</ele>
        <time>2023-05-05T13:56:10.145Z</time>
      </trkpt>
      <trkpt lat="47.80696" lon="-2.349">
        <ele>63.490582</ele>
        <time>2023-05-05T13:56:13.150Z</time>
      </trkpt>
      <trkpt lat="47.80692" lon="-2.34886">
        <ele>63.475216</ele>
        <time>2023-05-05T13:56:15.139Z</time>
      </trkpt>
      <trkpt lat="47.80687" lon="-2.34874">
        <ele>63.46141</ele>
        <time>2023-05-05T13:56:18.142Z</time>
      </trkpt>
      <trkpt lat="47.80684" lon="-2.34861">
        <ele>63.446528</ele>
        <time>2023-05-05T13:56:21.146Z</time>
      </trkpt>
      <trkpt lat="47.8068" lon="-2.34845">
        <ele>63.429856</ele>
        <time>2023-05-05T13:56:24.150Z</time>
      </trkpt>
      <trkpt lat="47.80677" lon="-2.3483">
        <ele>63.412983</ele>
        <time>2023-05-05T13:56:27.146Z</time>
      </trkpt>
      <trkpt lat="47.80675" lon="-2.34815">
        <ele>63.397225</ele>
        <time>2023-05-05T13:56:30.151Z</time>
      </trkpt>
      <trkpt lat="47.80672" lon="-2.34798">
        <ele>63.379094</ele>
        <time>2023-05-05T13:56:33.149Z</time>
      </trkpt>
      <trkpt lat="47.8067" lon="-2.3478">
        <ele>63.360827</ele>
        <time>2023-05-05T13:56:36.147Z</time>
      </trkpt>
      <trkpt lat="47.80667" lon="-2.34763">
        <ele>63.34275</ele>
        <time>2023-05-05T13:56:39.153Z</time>
      </trkpt>
      <trkpt lat="47.80664" lon="-2.34746">
        <ele>63.324774</ele>
        <time>2023-05-05T13:56:42.149Z</time>
      </trkpt>
      <trkpt lat="47.80661" lon="-2.3473">
        <ele>63.30767</ele>
        <time>2023-05-05T13:56:45.147Z</time>
      </trkpt>
      <trkpt lat="47.80658" lon="-2.34715">
        <ele>63.29377</ele>
        <time>2023-05-05T13:56:48.152Z</time>
      </trkpt>
      <trkpt lat="47.80656" lon="-2.34698">
        <ele>63.288808</ele>
        <time>2023-05-05T13:56:51.148Z</time>
      </trkpt>
      <trkpt lat="47.80653" lon="-2.34681">
        <ele>63.283531</ele>
        <time>2023-05-05T13:56:54.153Z</time>
      </trkpt>
      <trkpt lat="47.80651" lon="-2.34667">
        <ele>63.279476</ele>
        <time>2023-05-05T13:56:56.154Z</time>
      </trkpt>
      <trkpt lat="47.80648" lon="-2.3465">
        <ele>63.274259</ele>
        <time>2023-05-05T13:56:59.148Z</time>
      </trkpt>
      <trkpt lat="47.80646" lon="-2.34633">
        <ele>63.269191</ele>
        <time>2023-05-05T13:57:03.155Z</time>
      </trkpt>
      <trkpt lat="47.80644" lon="-2.34619">
        <ele>63.265031</ele>
        <time>2023-05-05T13:57:06.151Z</time>
      </trkpt>
      <trkpt lat="47.80641" lon="-2.34605">
        <ele>63.261018</ele>
        <time>2023-05-05T13:57:09.150Z</time>
      </trkpt>
      <trkpt lat="47.80639" lon="-2.34593">
        <ele>63.257104</ele>
        <time>2023-05-05T13:57:12.151Z</time>
      </trkpt>
      <trkpt lat="47.77174" lon="-2.31542">
        <ele>60.865535</ele>
        <time>2023-05-05T14:22:06.161Z</time>
      </trkpt>
      <trkpt lat="47.77161" lon="-2.31544">
        <ele>60.802726</ele>
        <time>2023-05-05T14:23:31.160Z</time>
      </trkpt>
      <trkpt lat="47.77152" lon="-2.31546">
        <ele>60.759002</ele>
        <time>2023-05-05T14:23:35.137Z</time>
      </trkpt>
      <trkpt lat="47.7714" lon="-2.31547">
        <ele>60.661624</ele>
        <time>2023-05-05T14:23:39.148Z</time>
      </trkpt>
      <trkpt lat="47.77129" lon="-2.31549">
        <ele>60.56429</ele>
        <time>2023-05-05T14:23:42.145Z</time>
      </trkpt>
      <trkpt lat="47.77119" lon="-2.31552">
        <ele>60.469029</ele>
        <time>2023-05-05T14:23:45.154Z</time>
      </trkpt>
      <trkpt lat="47.7711" lon="-2.31554">
        <ele>60.382132</ele>
        <time>2023-05-05T14:23:48.150Z</time>
      </trkpt>
      <trkpt lat="47.771" lon="-2.31556">
        <ele>60.295383</ele>
        <time>2023-05-05T14:23:51.162Z</time>
      </trkpt>
      <trkpt lat="47.77089" lon="-2.31558">
        <ele>60.18869</ele>
        <time>2023-05-05T14:23:55.149Z</time>
      </trkpt>
      <trkpt lat="47.77077" lon="-2.31561">
        <ele>60.080732</ele>
        <time>2023-05-05T14:23:59.155Z</time>
      </trkpt>
      <trkpt lat="47.77067" lon="-2.31563">
        <ele>59.985222</ele>
        <time>2023-05-05T14:24:02.154Z</time>
      </trkpt>
      <trkpt lat="47.77059" lon="-2.31567">
        <ele>59.90247</ele>
        <time>2023-05-05T14:24:05.156Z</time>
      </trkpt>
      <trkpt lat="47.77051" lon="-2.31579">
        <ele>59.799941</ele>
        <time>2023-05-05T14:24:10.158Z</time>
      </trkpt>
      <trkpt lat="47.77042" lon="-2.31582">
        <ele>59.71575</ele>
        <time>2023-05-05T14:24:14.156Z</time>
      </trkpt>
      <trkpt lat="47.77031" lon="-2.31579">
        <ele>59.616045</ele>
        <time>2023-05-05T14:24:18.153Z</time>
      </trkpt>
      <trkpt lat="47.77022" lon="-2.31574">
        <ele>59.522755</ele>
        <time>2023-05-05T14:24:22.155Z</time>
      </trkpt>
      <trkpt lat="47.77013" lon="-2.31567">
        <ele>59.435712</ele>
        <time>2023-05-05T14:24:26.154Z</time>
      </trkpt>
      <trkpt lat="47.77004" lon="-2.31565">
        <ele>59.344582</ele>
        <time>2023-05-05T14:24:30.154Z</time>
      </trkpt>
      <trkpt lat="47.76992" lon="-2.31568">
        <ele>59.236426</ele>
        <time>2023-05-05T14:24:34.157Z</time>
      </trkpt>
      <trkpt lat="47.76981" lon="-2.3157">
        <ele>59.135198</ele>
        <time>2023-05-05T14:24:38.152Z</time>
      </trkpt>
      <trkpt lat="47.7697" lon="-2.31571">
        <ele>59.131289</ele>
        <time>2023-05-05T14:24:42.146Z</time>
      </trkpt>
      <trkpt lat="47.76961" lon="-2.31571">
        <ele>59.178616</ele>
        <time>2023-05-05T14:24:45.160Z</time>
      </trkpt>
      <trkpt lat="47.76949" lon="-2.31573">
        <ele>59.240539</ele>
        <time>2023-05-05T14:24:49.163Z</time>
      </trkpt>
      <trkpt lat="47.76939" lon="-2.31574">
        <ele>59.291619</ele>
        <time>2023-05-05T14:24:52.149Z</time>
      </trkpt>
      <trkpt lat="47.76929" lon="-2.31575">
        <ele>59.344399</ele>
        <time>2023-05-05T14:24:55.155Z</time>
      </trkpt>
      <trkpt lat="47.76919" lon="-2.31575">
        <ele>59.397505</ele>
        <time>2023-05-05T14:24:58.155Z</time>
      </trkpt>
      <trkpt lat="47.76908" lon="-2.31576">
        <ele>59.454401</ele>
        <time>2023-05-05T14:25:01.156Z</time>
      </trkpt>
      <trkpt lat="47.76897" lon="-2.31577">
        <ele>59.514905</ele>
        <time>2023-05-05T14:25:04.159Z</time>
      </trkpt>
      <trkpt lat="47.76886" lon="-2.31577">
        <ele>59.573846</ele>
        <time>2023-05-05T14:25:07.151Z</time>
      </trkpt>
      <trkpt lat="47.76875" lon="-2.31578">
        <ele>59.628584</ele>
        <time>2023-05-05T14:25:10.159Z</time>
      </trkpt>
      <trkpt lat="47.76864" lon="-2.31579">
        <ele>59.690185</ele>
        <time>2023-05-05T14:25:13.158Z</time>
      </trkpt>
      <trkpt lat="47.76852" lon="-2.3158">
        <ele>59.75231</ele>
        <time>2023-05-05T14:25:16.155Z</time>
      </trkpt>
      <trkpt lat="47.76838" lon="-2.31579">
        <ele>59.822874</ele>
        <time>2023-05-05T14:25:19.146Z</time>
      </trkpt>
      <trkpt lat="47.76826" lon="-2.31581">
        <ele>59.88674</ele>
        <time>2023-05-05T14:25:22.159Z</time>
      </trkpt>
      <trkpt lat="47.76814" lon="-2.31583">
        <ele>59.95258</ele>
        <time>2023-05-05T14:25:25.156Z</time>
      </trkpt>
      <trkpt lat="47.76802" lon="-2.31584">
        <ele>60.013278</ele>
        <time>2023-05-05T14:25:28.151Z</time>
      </trkpt>
      <trkpt lat="47.76791" lon="-2.31586">
        <ele>59.965438</ele>
        <time>2023-05-05T14:25:31.160Z</time>
      </trkpt>
      <trkpt lat="47.76779" lon="-2.31587">
        <ele>59.837085</ele>
        <time>2023-05-05T14:25:34.155Z</time>
      </trkpt>
      <trkpt lat="47.76768" lon="-2.31591">
        <ele>59.715103</ele>
        <time>2023-05-05T14:25:37.159Z</time>
      </trkpt>
      <trkpt lat="47.76757" lon="-2.31594">
        <ele>59.590571</ele>
        <time>2023-05-05T14:25:40.196Z</time>
      </trkpt>
      <trkpt lat="47.76747" lon="-2.31598">
        <ele>59.479145</ele>
        <time>2023-05-05T14:25:43.149Z</time>
      </trkpt>
      <trkpt lat="47.76737" lon="-2.31603">
        <ele>59.363856</ele>
        <time>2023-05-05T14:25:46.164Z</time>
      </trkpt>
      <trkpt lat="47.76727" lon="-2.31607">
        <ele>59.240576</ele>
        <time>2023-05-05T14:25:49.158Z</time>
      </trkpt>
      <trkpt lat="47.76717" lon="-2.31612">
        <ele>59.12995</ele>
        <time>2023-05-05T14:25:52.162Z</time>
      </trkpt>
      <trkpt lat="47.76706" lon="-2.31616">
        <ele>59.004644</ele>
        <time>2023-05-05T14:25:55.160Z</time>
      </trkpt>
      <trkpt lat="47.76697" lon="-2.3162">
        <ele>58.899139</ele>
        <time>2023-05-05T14:25:57.157Z</time>
      </trkpt>
      <trkpt lat="47.76685" lon="-2.31627">
        <ele>58.758025</ele>
        <time>2023-05-05T14:26:00.154Z</time>
      </trkpt>
      <trkpt lat="47.76673" lon="-2.31635">
        <ele>58.607507</ele>
        <time>2023-05-05T14:26:03.154Z</time>
      </trkpt>
      <trkpt lat="47.76665" lon="-2.31641">
        <ele>58.506064</ele>
        <time>2023-05-05T14:26:05.162Z</time>
      </trkpt>
      <trkpt lat="47.76656" lon="-2.31647">
        <ele>58.404418</ele>
        <time>2023-05-05T14:26:07.155Z</time>
      </trkpt>
      <trkpt lat="47.76645" lon="-2.31657">
        <ele>58.263854</ele>
        <time>2023-05-05T14:26:10.156Z</time>
      </trkpt>
      <trkpt lat="47.76634" lon="-2.31667">
        <ele>58.11591</ele>
        <time>2023-05-05T14:26:13.147Z</time>
      </trkpt>
      <trkpt lat="47.76624" lon="-2.3168">
        <ele>58.115878</ele>
        <time>2023-05-05T14:26:16.139Z</time>
      </trkpt>
      <trkpt lat="47.76614" lon="-2.31692">
        <ele>58.225645</ele>
        <time>2023-05-05T14:26:19.159Z</time>
      </trkpt>
      <trkpt lat="47.76606" lon="-2.31705">
        <ele>58.33163</ele>
        <time>2023-05-05T14:26:22.142Z</time>
      </trkpt>
      <trkpt lat="47.76597" lon="-2.31718">
        <ele>58.43864</ele>
        <time>2023-05-05T14:26:25.154Z</time>
      </trkpt>
      <trkpt lat="47.76587" lon="-2.3173">
        <ele>58.547219</ele>
        <time>2023-05-05T14:26:28.158Z</time>
      </trkpt>
      <trkpt lat="47.76577" lon="-2.31741">
        <ele>58.657193</ele>
        <time>2023-05-05T14:26:31.161Z</time>
      </trkpt>
      <trkpt lat="47.76569" lon="-2.31749">
        <ele>58.736267</ele>
        <time>2023-05-05T14:26:33.156Z</time>
      </trkpt>
      <trkpt lat="47.76561" lon="-2.31759">
        <ele>58.832382</ele>
        <time>2023-05-05T14:26:36.160Z</time>
      </trkpt>
      <trkpt lat="47.76551" lon="-2.31767">
        <ele>58.926389</ele>
        <time>2023-05-05T14:26:39.158Z</time>
      </trkpt>
      <trkpt lat="47.7654" lon="-2.31771">
        <ele>59.023001</ele>
        <time>2023-05-05T14:26:42.152Z</time>
      </trkpt>
      <trkpt lat="47.76528" lon="-2.31774">
        <ele>59.129713</ele>
        <time>2023-05-05T14:26:45.153Z</time>
      </trkpt>
      <trkpt lat="47.76517" lon="-2.31776">
        <ele>59.227896</ele>
        <time>2023-05-05T14:26:48.155Z</time>
      </trkpt>
      <trkpt lat="47.76504" lon="-2.31777">
        <ele>59.338671</ele>
        <time>2023-05-05T14:26:51.165Z</time>
      </trkpt>
      <trkpt lat="47.7649" lon="-2.31776">
        <ele>59.46146</ele>
        <time>2023-05-05T14:26:54.158Z</time>
      </trkpt>
      <trkpt lat="47.7648" lon="-2.31776">
        <ele>59.543617</ele>
        <time>2023-05-05T14:26:56.167Z</time>
      </trkpt>
      <trkpt lat="47.76471" lon="-2.31776">
        <ele>59.605373</ele>
        <time>2023-05-05T14:26:58.160Z</time>
      </trkpt>
      <trkpt lat="47.76462" lon="-2.31775">
        <ele>59.594932</ele>
        <time>2023-05-05T14:27:00.150Z</time>
      </trkpt>
      <trkpt lat="47.76452" lon="-2.31775">
        <ele>59.584144</ele>
        <time>2023-05-05T14:27:02.151Z</time>
      </trkpt>
      <trkpt lat="47.76441" lon="-2.31774">
        <ele>59.570613</ele>
        <time>2023-05-05T14:27:05.154Z</time>
      </trkpt>
      <trkpt lat="47.76428" lon="-2.31773">
        <ele>59.555695</ele>
        <time>2023-05-05T14:27:08.155Z</time>
      </trkpt>
      <trkpt lat="47.76415" lon="-2.31773">
        <ele>59.541016</ele>
        <time>2023-05-05T14:27:11.157Z</time>
      </trkpt>
      <trkpt lat="47.76403" lon="-2.31771">
        <ele>59.527464</ele>
        <time>2023-05-05T14:27:14.156Z</time>
      </trkpt>
      <trkpt lat="47.76391" lon="-2.31771">
        <ele>59.514156</ele>
        <time>2023-05-05T14:27:17.157Z</time>
      </trkpt>
      <trkpt lat="47.7638" lon="-2.3177">
        <ele>59.50049</ele>
        <time>2023-05-05T14:27:20.156Z</time>
      </trkpt>
      <trkpt lat="47.76371" lon="-2.31769">
        <ele>59.49015</ele>
        <time>2023-05-05T14:27:22.157Z</time>
      </trkpt>
      <trkpt lat="47.76358" lon="-2.31767">
        <ele>59.475494</ele>
        <time>2023-05-05T14:27:25.154Z</time>
      </trkpt>
      <trkpt lat="47.76345" lon="-2.31764">
        <ele>59.460232</ele>
        <time>2023-05-05T14:27:28.161Z</time>
      </trkpt>
      <trkpt lat="47.76331" lon="-2.31762">
        <ele>59.444937</ele>
        <time>2023-05-05T14:27:31.155Z</time>
      </trkpt>
      <trkpt lat="47.76319" lon="-2.3176">
        <ele>59.430736</ele>
        <time>2023-05-05T14:27:34.155Z</time>
      </trkpt>
      <trkpt lat="47.76306" lon="-2.31758">
        <ele>59.416194</ele>
        <time>2023-05-05T14:27:37.158Z</time>
      </trkpt>
      <trkpt lat="47.76294" lon="-2.31755">
        <ele>59.401781</ele>
        <time>2023-05-05T14:27:40.158Z</time>
      </trkpt>
      <trkpt lat="47.76285" lon="-2.31753">
        <ele>59.512392</ele>
        <time>2023-05-05T14:27:42.157Z</time>
      </trkpt>
      <trkpt lat="47.76273" lon="-2.31749">
        <ele>59.673921</ele>
        <time>2023-05-05T14:27:45.151Z</time>
      </trkpt>
      <trkpt lat="47.7626" lon="-2.31745">
        <ele>59.834082</ele>
        <time>2023-05-05T14:27:48.151Z</time>
      </trkpt>
      <trkpt lat="47.7625" lon="-2.31743">
        <ele>59.963911</ele>
        <time>2023-05-05T14:27:51.160Z</time>
      </trkpt>
      <trkpt lat="47.76239" lon="-2.3174">
        <ele>60.106327</ele>
        <time>2023-05-05T14:27:54.159Z</time>
      </trkpt>
      <trkpt lat="47.76226" lon="-2.31736">
        <ele>60.275671</ele>
        <time>2023-05-05T14:27:57.160Z</time>
      </trkpt>
      <trkpt lat="47.76213" lon="-2.31732">
        <ele>60.435658</ele>
        <time>2023-05-05T14:28:00.153Z</time>
      </trkpt>
      <trkpt lat="47.76201" lon="-2.31727">
        <ele>60.600835</ele>
        <time>2023-05-05T14:28:03.151Z</time>
      </trkpt>
      <trkpt lat="47.76189" lon="-2.31724">
        <ele>60.751835</ele>
        <time>2023-05-05T14:28:06.153Z</time>
      </trkpt>
      <trkpt lat="47.76176" lon="-2.31721">
        <ele>60.914753</ele>
        <time>2023-05-05T14:28:09.154Z</time>
      </trkpt>
      <trkpt lat="47.76166" lon="-2.31717">
        <ele>61.04477</ele>
        <time>2023-05-05T14:28:11.155Z</time>
      </trkpt>
      <trkpt lat="47.76154" lon="-2.31714">
        <ele>61.201467</ele>
        <time>2023-05-05T14:28:14.157Z</time>
      </trkpt>
      <trkpt lat="47.76143" lon="-2.31709">
        <ele>61.349989</ele>
        <time>2023-05-05T14:28:17.160Z</time>
      </trkpt>
      <trkpt lat="47.76131" lon="-2.31704">
        <ele>61.50018</ele>
        <time>2023-05-05T14:28:20.155Z</time>
      </trkpt>
      <trkpt lat="47.76122" lon="-2.31699">
        <ele>61.629539</ele>
        <time>2023-05-05T14:28:23.156Z</time>
      </trkpt>
      <trkpt lat="47.76112" lon="-2.31695">
        <ele>61.636369</ele>
        <time>2023-05-05T14:28:26.156Z</time>
      </trkpt>
      <trkpt lat="47.76101" lon="-2.31688">
        <ele>61.562648</ele>
        <time>2023-05-05T14:28:30.156Z</time>
      </trkpt>
      <trkpt lat="47.76091" lon="-2.31681">
        <ele>61.49444</ele>
        <time>2023-05-05T14:28:34.159Z</time>
      </trkpt>
      <trkpt lat="47.7608" lon="-2.31674">
        <ele>61.423055</ele>
        <time>2023-05-05T14:28:38.158Z</time>
      </trkpt>
      <trkpt lat="47.76069" lon="-2.31667">
        <ele>61.347581</ele>
        <time>2023-05-05T14:28:42.165Z</time>
      </trkpt>
      <trkpt lat="47.7606" lon="-2.31661">
        <ele>61.285894</ele>
        <time>2023-05-05T14:28:45.162Z</time>
      </trkpt>
      <trkpt lat="47.76049" lon="-2.31657">
        <ele>61.217401</ele>
        <time>2023-05-05T14:28:48.157Z</time>
      </trkpt>
      <trkpt lat="47.76038" lon="-2.31653">
        <ele>61.148436</ele>
        <time>2023-05-05T14:28:51.155Z</time>
      </trkpt>
      <trkpt lat="47.76028" lon="-2.31651">
        <ele>61.089179</ele>
        <time>2023-05-05T14:28:54.154Z</time>
      </trkpt>
      <trkpt lat="47.76018" lon="-2.3165">
        <ele>61.027333</ele>
        <time>2023-05-05T14:28:57.153Z</time>
      </trkpt>
      <trkpt lat="47.76008" lon="-2.31649">
        <ele>60.963773</ele>
        <time>2023-05-05T14:29:00.147Z</time>
      </trkpt>
      <trkpt lat="47.75997" lon="-2.31649">
        <ele>60.897813</ele>
        <time>2023-05-05T14:29:03.157Z</time>
      </trkpt>
      <trkpt lat="47.75987" lon="-2.31651">
        <ele>60.836298</ele>
        <time>2023-05-05T14:29:06.158Z</time>
      </trkpt>
      <trkpt lat="47.75977" lon="-2.31652">
        <ele>60.77483</ele>
        <time>2023-05-05T14:29:09.156Z</time>
      </trkpt>
      <trkpt lat="47.75966" lon="-2.31654">
        <ele>60.705382</ele>
        <time>2023-05-05T14:29:12.155Z</time>
      </trkpt>
      <trkpt lat="47.75953" lon="-2.31655">
        <ele>60.627692</ele>
        <time>2023-05-05T14:29:15.157Z</time>
      </trkpt>
      <trkpt lat="47.7594" lon="-2.31656">
        <ele>60.559478</ele>
        <time>2023-05-05T14:29:18.150Z</time>
      </trkpt>
      <trkpt lat="47.7593" lon="-2.31657">
        <ele>60.515759</ele>
        <time>2023-05-05T14:29:21.153Z</time>
      </trkpt>
      <trkpt lat="47.7592" lon="-2.31658">
        <ele>60.47609</ele>
        <time>2023-05-05T14:29:24.148Z</time>
      </trkpt>
      <trkpt lat="47.75909" lon="-2.31659">
        <ele>60.432435</ele>
        <time>2023-05-05T14:29:27.155Z</time>
      </trkpt>
      <trkpt lat="47.75899" lon="-2.31659">
        <ele>60.390411</ele>
        <time>2023-05-05T14:29:30.162Z</time>
      </trkpt>
      <trkpt lat="47.75889" lon="-2.31659">
        <ele>60.348001</ele>
        <time>2023-05-05T14:29:33.155Z</time>
      </trkpt>
      <trkpt lat="47.75878" lon="-2.31658">
        <ele>60.304148</ele>
        <time>2023-05-05T14:29:36.163Z</time>
      </trkpt>
      <trkpt lat="47.75867" lon="-2.31654">
        <ele>60.257178</ele>
        <time>2023-05-05T14:29:40.158Z</time>
      </trkpt>
      <trkpt lat="47.75856" lon="-2.3165">
        <ele>60.212105</ele>
        <time>2023-05-05T14:29:44.159Z</time>
      </trkpt>
      <trkpt lat="47.75846" lon="-2.31647">
        <ele>60.17226</ele>
        <time>2023-05-05T14:29:47.154Z</time>
      </trkpt>
      <trkpt lat="47.75837" lon="-2.31642">
        <ele>60.130486</ele>
        <time>2023-05-05T14:29:50.157Z</time>
      </trkpt>
      <trkpt lat="47.75828" lon="-2.31636">
        <ele>60.090155</ele>
        <time>2023-05-05T14:29:53.150Z</time>
      </trkpt>
      <trkpt lat="47.75818" lon="-2.3163">
        <ele>60.04662</ele>
        <time>2023-05-05T14:29:56.159Z</time>
      </trkpt>
      <trkpt lat="47.75808" lon="-2.31623">
        <ele>60.003022</ele>
        <time>2023-05-05T14:29:59.154Z</time>
      </trkpt>
      <trkpt lat="47.758" lon="-2.31616">
        <ele>59.962457</ele>
        <time>2023-05-05T14:30:02.161Z</time>
      </trkpt>
      <trkpt lat="47.75791" lon="-2.31607">
        <ele>59.918908</ele>
        <time>2023-05-05T14:30:06.158Z</time>
      </trkpt>
      <trkpt lat="47.75781" lon="-2.316">
        <ele>59.876889</ele>
        <time>2023-05-05T14:30:09.154Z</time>
      </trkpt>
      <trkpt lat="47.75772" lon="-2.31591">
        <ele>59.820888</ele>
        <time>2023-05-05T14:30:12.162Z</time>
      </trkpt>
      <trkpt lat="47.75763" lon="-2.31583">
        <ele>59.749676</ele>
        <time>2023-05-05T14:30:15.157Z</time>
      </trkpt>
      <trkpt lat="47.75754" lon="-2.31575">
        <ele>59.681105</ele>
        <time>2023-05-05T14:30:18.154Z</time>
      </trkpt>
      <trkpt lat="47.75746" lon="-2.31566">
        <ele>59.608679</ele>
        <time>2023-05-05T14:30:21.158Z</time>
      </trkpt>
      <trkpt lat="47.75738" lon="-2.31557">
        <ele>59.538986</ele>
        <time>2023-05-05T14:30:24.154Z</time>
      </trkpt>
      <trkpt lat="47.75729" lon="-2.31549">
        <ele>59.468099</ele>
        <time>2023-05-05T14:30:28.154Z</time>
      </trkpt>
      <trkpt lat="47.75722" lon="-2.31539">
        <ele>59.399592</ele>
        <time>2023-05-05T14:30:33.158Z</time>
      </trkpt>
      <trkpt lat="47.75715" lon="-2.31526">
        <ele>59.325702</ele>
        <time>2023-05-05T14:30:37.150Z</time>
      </trkpt>
      <trkpt lat="47.75709" lon="-2.31511">
        <ele>59.245361</ele>
        <time>2023-05-05T14:30:41.158Z</time>
      </trkpt>
      <trkpt lat="47.75705" lon="-2.31499">
        <ele>59.180733</ele>
        <time>2023-05-05T14:30:44.156Z</time>
      </trkpt>
      <trkpt lat="47.75701" lon="-2.31486">
        <ele>59.116297</ele>
        <time>2023-05-05T14:30:47.158Z</time>
      </trkpt>
      <trkpt lat="47.75697" lon="-2.31473">
        <ele>59.048156</ele>
        <time>2023-05-05T14:30:50.160Z</time>
      </trkpt>
      <trkpt lat="47.75695" lon="-2.31459">
        <ele>58.980356</ele>
        <time>2023-05-05T14:30:53.163Z</time>
      </trkpt>
      <trkpt lat="47.75694" lon="-2.31445">
        <ele>58.914451</ele>
        <time>2023-05-05T14:30:56.157Z</time>
      </trkpt>
      <trkpt lat="47.75694" lon="-2.31427">
        <ele>58.834291</ele>
        <time>2023-05-05T14:31:00.150Z</time>
      </trkpt>
      <trkpt lat="47.75698" lon="-2.31413">
        <ele>58.76212</ele>
        <time>2023-05-05T14:31:04.157Z</time>
      </trkpt>
      <trkpt lat="47.75702" lon="-2.31399">
        <ele>58.691659</ele>
        <time>2023-05-05T14:31:08.157Z</time>
      </trkpt>
      <trkpt lat="47.75706" lon="-2.31386">
        <ele>58.628247</ele>
        <time>2023-05-05T14:31:13.155Z</time>
      </trkpt>
      <trkpt lat="47.75711" lon="-2.31374">
        <ele>58.609557</ele>
        <time>2023-05-05T14:31:24.154Z</time>
      </trkpt>
      <trkpt lat="47.75715" lon="-2.3136">
        <ele>58.620651</ele>
        <time>2023-05-05T14:31:28.155Z</time>
      </trkpt>
      <trkpt lat="47.75719" lon="-2.31347">
        <ele>58.630402</ele>
        <time>2023-05-05T14:31:31.147Z</time>
      </trkpt>
      <trkpt lat="47.75721" lon="-2.31332">
        <ele>58.640889</ele>
        <time>2023-05-05T14:31:34.153Z</time>
      </trkpt>
      <trkpt lat="47.75722" lon="-2.31317">
        <ele>58.651895</ele>
        <time>2023-05-05T14:31:37.165Z</time>
      </trkpt>
      <trkpt lat="47.75722" lon="-2.31302">
        <ele>58.662313</ele>
        <time>2023-05-05T14:31:40.158Z</time>
      </trkpt>
      <trkpt lat="47.75722" lon="-2.31287">
        <ele>58.672519</ele>
        <time>2023-05-05T14:31:43.157Z</time>
      </trkpt>
      <trkpt lat="47.75723" lon="-2.31273">
        <ele>58.682267</ele>
        <time>2023-05-05T14:31:46.149Z</time>
      </trkpt>
      <trkpt lat="47.75724" lon="-2.31256">
        <ele>58.694707</ele>
        <time>2023-05-05T14:31:50.155Z</time>
      </trkpt>
      <trkpt lat="47.75724" lon="-2.3124">
        <ele>58.70557</ele>
        <time>2023-05-05T14:31:53.158Z</time>
      </trkpt>
      <trkpt lat="47.75723" lon="-2.31225">
        <ele>58.716707</ele>
        <time>2023-05-05T14:31:56.153Z</time>
      </trkpt>
      <trkpt lat="47.75721" lon="-2.31208">
        <ele>58.728684</ele>
        <time>2023-05-05T14:31:59.158Z</time>
      </trkpt>
      <trkpt lat="47.75718" lon="-2.31191">
        <ele>58.741116</ele>
        <time>2023-05-05T14:32:02.154Z</time>
      </trkpt>
      <trkpt lat="47.75715" lon="-2.31174">
        <ele>58.753124</ele>
        <time>2023-05-05T14:32:05.153Z</time>
      </trkpt>
      <trkpt lat="47.75711" lon="-2.31159">
        <ele>58.765043</ele>
        <time>2023-05-05T14:32:08.156Z</time>
      </trkpt>
      <trkpt lat="47.75706" lon="-2.31143">
        <ele>58.776805</ele>
        <time>2023-05-05T14:32:11.156Z</time>
      </trkpt>
      <trkpt lat="47.75702" lon="-2.31128">
        <ele>58.788646</ele>
        <time>2023-05-05T14:32:14.145Z</time>
      </trkpt>
      <trkpt lat="47.75221" lon="-2.30149">
        <ele>59.059357</ele>
        <time>2023-05-05T14:36:32.168Z</time>
      </trkpt>
      <trkpt lat="47.75211" lon="-2.30133">
        <ele>59.070335</ele>
        <time>2023-05-05T14:38:12.150Z</time>
      </trkpt>
      <trkpt lat="47.75205" lon="-2.3012">
        <ele>59.078005</ele>
        <time>2023-05-05T14:38:16.156Z</time>
      </trkpt>
      <trkpt lat="47.75197" lon="-2.30107">
        <ele>59.086518</ele>
        <time>2023-05-05T14:38:20.156Z</time>
      </trkpt>
      <trkpt lat="47.75191" lon="-2.30095">
        <ele>59.093824</ele>
        <time>2023-05-05T14:38:23.157Z</time>
      </trkpt>
      <trkpt lat="47.75185" lon="-2.30083">
        <ele>59.101795</ele>
        <time>2023-05-05T14:38:26.158Z</time>
      </trkpt>
      <trkpt lat="47.75178" lon="-2.30069">
        <ele>59.109881</ele>
        <time>2023-05-05T14:38:29.156Z</time>
      </trkpt>
      <trkpt lat="47.75172" lon="-2.30057">
        <ele>59.117426</ele>
        <time>2023-05-05T14:38:32.154Z</time>
      </trkpt>
      <trkpt lat="47.75166" lon="-2.30042">
        <ele>59.100381</ele>
        <time>2023-05-05T14:38:35.157Z</time>
      </trkpt>
      <trkpt lat="47.7516" lon="-2.30028">
        <ele>59.021036</ele>
        <time>2023-05-05T14:38:38.149Z</time>
      </trkpt>
      <trkpt lat="47.75156" lon="-2.30012">
        <ele>58.943729</ele>
        <time>2023-05-05T14:38:41.153Z</time>
      </trkpt>
      <trkpt lat="47.75152" lon="-2.29997">
        <ele>58.870114</ele>
        <time>2023-05-05T14:38:44.158Z</time>
      </trkpt>
      <trkpt lat="47.75149" lon="-2.29982">
        <ele>58.795836</ele>
        <time>2023-05-05T14:38:47.144Z</time>
      </trkpt>
      <trkpt lat="47.75146" lon="-2.29969">
        <ele>58.732</ele>
        <time>2023-05-05T14:38:50.150Z</time>
      </trkpt>
      <trkpt lat="47.75143" lon="-2.29953">
        <ele>58.659206</ele>
        <time>2023-05-05T14:38:54.156Z</time>
      </trkpt>
      <trkpt lat="47.75139" lon="-2.29938">
        <ele>58.582732</ele>
        <time>2023-05-05T14:38:58.151Z</time>
      </trkpt>
      <trkpt lat="47.75136" lon="-2.29923">
        <ele>58.512828</ele>
        <time>2023-05-05T14:39:01.143Z</time>
      </trkpt>
      <trkpt lat="47.75132" lon="-2.29908">
        <ele>58.436784</ele>
        <time>2023-05-05T14:39:04.155Z</time>
      </trkpt>
      <trkpt lat="47.75129" lon="-2.29891">
        <ele>58.35664</ele>
        <time>2023-05-05T14:39:07.162Z</time>
      </trkpt>
      <trkpt lat="47.75126" lon="-2.29873">
        <ele>58.273378</ele>
        <time>2023-05-05T14:39:10.148Z</time>
      </trkpt>
      <trkpt lat="47.75122" lon="-2.29855">
        <ele>58.18632</ele>
        <time>2023-05-05T14:39:13.153Z</time>
      </trkpt>
      <trkpt lat="47.7512" lon="-2.29838">
        <ele>58.105764</ele>
        <time>2023-05-05T14:39:16.161Z</time>
      </trkpt>
      <trkpt lat="47.75118" lon="-2.29821">
        <ele>58.027248</ele>
        <time>2023-05-05T14:39:19.161Z</time>
      </trkpt>
      <trkpt lat="47.75116" lon="-2.29805">
        <ele>57.951456</ele>
        <time>2023-05-05T14:39:22.154Z</time>
      </trkpt>
      <trkpt lat="47.75114" lon="-2.29788">
        <ele>57.918188</ele>
        <time>2023-05-05T14:39:25.149Z</time>
      </trkpt>
      <trkpt lat="47.75111" lon="-2.29769">
        <ele>58.003252</ele>
        <time>2023-05-05T14:39:28.152Z</time>
      </trkpt>
      <trkpt lat="47.75108" lon="-2.29752">
        <ele>58.084677</ele>
        <time>2023-05-05T14:39:31.154Z</time>
      </trkpt>
      <trkpt lat="47.75104" lon="-2.29735">
        <ele>58.168091</ele>
        <time>2023-05-05T14:39:34.153Z</time>
      </trkpt>
      <trkpt lat="47.75101" lon="-2.29717">
        <ele>58.24919</ele>
        <time>2023-05-05T14:39:37.165Z</time>
      </trkpt>
      <trkpt lat="47.75096" lon="-2.29699">
        <ele>58.336701</ele>
        <time>2023-05-05T14:39:40.156Z</time>
      </trkpt>
      <trkpt lat="47.75092" lon="-2.29681">
        <ele>58.425554</ele>
        <time>2023-05-05T14:39:43.156Z</time>
      </trkpt>
      <trkpt lat="47.75088" lon="-2.29669">
        <ele>58.486678</ele>
        <time>2023-05-05T14:39:45.155Z</time>
      </trkpt>
      <trkpt lat="47.75082" lon="-2.29652">
        <ele>58.57441</ele>
        <time>2023-05-05T14:39:48.155Z</time>
      </trkpt>
      <trkpt lat="47.75077" lon="-2.29635">
        <ele>58.658112</ele>
        <time>2023-05-05T14:39:51.150Z</time>
      </trkpt>
      <trkpt lat="47.75073" lon="-2.29619">
        <ele>58.734061</ele>
        <time>2023-05-05T14:39:54.146Z</time>
      </trkpt>
      <trkpt lat="47.75069" lon="-2.29605">
        <ele>58.805687</ele>
        <time>2023-05-05T14:39:57.148Z</time>
      </trkpt>
      <trkpt lat="47.75064" lon="-2.29592">
        <ele>58.872096</ele>
        <time>2023-05-05T14:40:00.147Z</time>
      </trkpt>
      <trkpt lat="47.7506" lon="-2.2958">
        <ele>58.934742</ele>
        <time>2023-05-05T14:40:03.147Z</time>
      </trkpt>
      <trkpt lat="47.75055" lon="-2.29565">
        <ele>59.00795</ele>
        <time>2023-05-05T14:40:06.152Z</time>
      </trkpt>
      <trkpt lat="47.75049" lon="-2.29549">
        <ele>59.090873</ele>
        <time>2023-05-05T14:40:09.157Z</time>
      </trkpt>
      <trkpt lat="47.75045" lon="-2.29537">
        <ele>59.165118</ele>
        <time>2023-05-05T14:40:11.154Z</time>
      </trkpt>
      <trkpt lat="47.75041" lon="-2.29524">
        <ele>59.247682</ele>
        <time>2023-05-05T14:40:13.161Z</time>
      </trkpt>
      <trkpt lat="47.75036" lon="-2.29511">
        <ele>59.330535</ele>
        <time>2023-05-05T14:40:15.156Z</time>
      </trkpt>
      <trkpt lat="47.75032" lon="-2.29498">
        <ele>59.415404</ele>
        <time>2023-05-05T14:40:17.150Z</time>
      </trkpt>
      <trkpt lat="47.75028" lon="-2.29486">
        <ele>59.49567</ele>
        <time>2023-05-05T14:40:19.153Z</time>
      </trkpt>
      <trkpt lat="47.75024" lon="-2.2947">
        <ele>59.591308</ele>
        <time>2023-05-05T14:40:22.168Z</time>
      </trkpt>
      <trkpt lat="47.75018" lon="-2.29456">
        <ele>59.687465</ele>
        <time>2023-05-05T14:40:25.156Z</time>
      </trkpt>
      <trkpt lat="47.75013" lon="-2.2944">
        <ele>59.792007</ele>
        <time>2023-05-05T14:40:28.159Z</time>
      </trkpt>
      <trkpt lat="47.75006" lon="-2.29423">
        <ele>59.901615</ele>
        <time>2023-05-05T14:40:31.157Z</time>
      </trkpt>
      <trkpt lat="47.74999" lon="-2.29408">
        <ele>60.007744</ele>
        <time>2023-05-05T14:40:34.153Z</time>
      </trkpt>
      <trkpt lat="47.74992" lon="-2.29392">
        <ele>60.121519</ele>
        <time>2023-05-05T14:40:37.156Z</time>
      </trkpt>
      <trkpt lat="47.74984" lon="-2.29377">
        <ele>60.230635</ele>
        <time>2023-05-05T14:40:40.156Z</time>
      </trkpt>
      <trkpt lat="47.74976" lon="-2.29361">
        <ele>60.34165</ele>
        <time>2023-05-05T14:40:43.160Z</time>
      </trkpt>
      <trkpt lat="47.74968" lon="-2.29347">
        <ele>60.451601</ele>
        <time>2023-05-05T14:40:46.151Z</time>
      </trkpt>
      <trkpt lat="47.74961" lon="-2.29336">
        <ele>60.537188</ele>
        <time>2023-05-05T14:40:48.153Z</time>
      </trkpt>
      <trkpt lat="47.74954" lon="-2.29326">
        <ele>60.617136</ele>
        <time>2023-05-05T14:40:50.155Z</time>
      </trkpt>
      <trkpt lat="47.74948" lon="-2.29316">
        <ele>60.643014</ele>
        <time>2023-05-05T14:40:52.162Z</time>
      </trkpt>
      <trkpt lat="47.74941" lon="-2.29303">
        <ele>60.622444</ele>
        <time>2023-05-05T14:40:55.154Z</time>
      </trkpt>
      <trkpt lat="47.74933" lon="-2.29292">
        <ele>60.603694</ele>
        <time>2023-05-05T14:40:58.156Z</time>
      </trkpt>
      <trkpt lat="47.74925" lon="-2.29279">
        <ele>60.58382</ele>
        <time>2023-05-05T14:41:01.155Z</time>
      </trkpt>
      <trkpt lat="47.74917" lon="-2.29264">
        <ele>60.561126</ele>
        <time>2023-05-05T14:41:04.154Z</time>
      </trkpt>
      <trkpt lat="47.74908" lon="-2.2925">
        <ele>60.538638</ele>
        <time>2023-05-05T14:41:07.165Z</time>
      </trkpt>
      <trkpt lat="47.74899" lon="-2.29237">
        <ele>60.517085</ele>
        <time>2023-05-05T14:41:10.152Z</time>
      </trkpt>
      <trkpt lat="47.74891" lon="-2.29222">
        <ele>60.494628</ele>
        <time>2023-05-05T14:41:13.150Z</time>
      </trkpt>
      <trkpt lat="47.74882" lon="-2.29209">
        <ele>60.472721</ele>
        <time>2023-05-05T14:41:16.158Z</time>
      </trkpt>
      <trkpt lat="47.74875" lon="-2.292">
        <ele>60.456972</ele>
        <time>2023-05-05T14:41:18.161Z</time>
      </trkpt>
      <trkpt lat="47.74866" lon="-2.29186">
        <ele>60.434215</ele>
        <time>2023-05-05T14:41:21.156Z</time>
      </trkpt>
      <trkpt lat="47.74857" lon="-2.29174">
        <ele>60.412572</ele>
        <time>2023-05-05T14:41:24.156Z</time>
      </trkpt>
      <trkpt lat="47.74849" lon="-2.29163">
        <ele>60.393605</ele>
        <time>2023-05-05T14:41:27.152Z</time>
      </trkpt>
      <trkpt lat="47.7484" lon="-2.29151">
        <ele>60.373024</ele>
        <time>2023-05-05T14:41:30.158Z</time>
      </trkpt>
      <trkpt lat="47.7483" lon="-2.2914">
        <ele>60.35158</ele>
        <time>2023-05-05T14:41:33.152Z</time>
      </trkpt>
      <trkpt lat="47.7482" lon="-2.29131">
        <ele>60.266041</ele>
        <time>2023-05-05T14:41:36.147Z</time>
      </trkpt>
      <trkpt lat="47.7481" lon="-2.29122">
        <ele>60.066257</ele>
        <time>2023-05-05T14:41:39.153Z</time>
      </trkpt>
      <trkpt lat="47.748" lon="-2.29113">
        <ele>59.85758</ele>
        <time>2023-05-05T14:41:42.155Z</time>
      </trkpt>
      <trkpt lat="47.74789" lon="-2.29104">
        <ele>59.642351</ele>
        <time>2023-05-05T14:41:45.154Z</time>
      </trkpt>
      <trkpt lat="47.74778" lon="-2.29095">
        <ele>59.428409</ele>
        <time>2023-05-05T14:41:48.158Z</time>
      </trkpt>
      <trkpt lat="47.74767" lon="-2.29085">
        <ele>59.203865</ele>
        <time>2023-05-05T14:41:51.156Z</time>
      </trkpt>
      <trkpt lat="47.74756" lon="-2.29077">
        <ele>58.999471</ele>
        <time>2023-05-05T14:41:54.157Z</time>
      </trkpt>
      <trkpt lat="47.74747" lon="-2.29068">
        <ele>58.807938</ele>
        <time>2023-05-05T14:41:57.157Z</time>
      </trkpt>
      <trkpt lat="47.74737" lon="-2.29059">
        <ele>58.606355</ele>
        <time>2023-05-05T14:42:00.148Z</time>
      </trkpt>
      <trkpt lat="47.74726" lon="-2.2905">
        <ele>58.401229</ele>
        <time>2023-05-05T14:42:03.159Z</time>
      </trkpt>
      <trkpt lat="47.74716" lon="-2.29043">
        <ele>58.214351</ele>
        <time>2023-05-05T14:42:06.152Z</time>
      </trkpt>
      <trkpt lat="47.74706" lon="-2.29036">
        <ele>58.023656</ele>
        <time>2023-05-05T14:42:09.157Z</time>
      </trkpt>
      <trkpt lat="47.74696" lon="-2.29028">
        <ele>57.824139</ele>
        <time>2023-05-05T14:42:12.153Z</time>
      </trkpt>
      <trkpt lat="47.74685" lon="-2.29019">
        <ele>57.611341</ele>
        <time>2023-05-05T14:42:15.155Z</time>
      </trkpt>
      <trkpt lat="47.74673" lon="-2.29011">
        <ele>57.390663</ele>
        <time>2023-05-05T14:42:18.155Z</time>
      </trkpt>
      <trkpt lat="47.74666" lon="-2.29003">
        <ele>57.245783</ele>
        <time>2023-05-05T14:42:20.151Z</time>
      </trkpt>
      <trkpt lat="47.74655" lon="-2.28995">
        <ele>57.143964</ele>
        <time>2023-05-05T14:42:23.149Z</time>
      </trkpt>
      <trkpt lat="47.74643" lon="-2.28984">
        <ele>57.034354</ele>
        <time>2023-05-05T14:42:26.157Z</time>
      </trkpt>
      <trkpt lat="47.74632" lon="-2.28976">
        <ele>56.934456</ele>
        <time>2023-05-05T14:42:29.156Z</time>
      </trkpt>
      <trkpt lat="47.74622" lon="-2.28968">
        <ele>56.841899</ele>
        <time>2023-05-05T14:42:32.165Z</time>
      </trkpt>
      <trkpt lat="47.74613" lon="-2.28961">
        <ele>56.757348</ele>
        <time>2023-05-05T14:42:35.157Z</time>
      </trkpt>
      <trkpt lat="47.74602" lon="-2.28954">
        <ele>56.659311</ele>
        <time>2023-05-05T14:42:39.153Z</time>
      </trkpt>
      <trkpt lat="47.74592" lon="-2.28948">
        <ele>56.578247</ele>
        <time>2023-05-05T14:42:42.164Z</time>
      </trkpt>
      <trkpt lat="47.74582" lon="-2.28941">
        <ele>56.488944</ele>
        <time>2023-05-05T14:42:45.159Z</time>
      </trkpt>
      <trkpt lat="47.74572" lon="-2.28935">
        <ele>56.399596</ele>
        <time>2023-05-05T14:42:48.146Z</time>
      </trkpt>
      <trkpt lat="47.74561" lon="-2.2893">
        <ele>56.310236</ele>
        <time>2023-05-05T14:42:51.155Z</time>
      </trkpt>
      <trkpt lat="47.74551" lon="-2.28924">
        <ele>56.221284</ele>
        <time>2023-05-05T14:42:54.160Z</time>
      </trkpt>
      <trkpt lat="47.74542" lon="-2.28916">
        <ele>56.137248</ele>
        <time>2023-05-05T14:42:57.157Z</time>
      </trkpt>
      <trkpt lat="47.74534" lon="-2.28907">
        <ele>56.057985</ele>
        <time>2023-05-05T14:43:00.150Z</time>
      </trkpt>
      <trkpt lat="47.74528" lon="-2.28898">
        <ele>55.984158</ele>
        <time>2023-05-05T14:43:03.155Z</time>
      </trkpt>
      <trkpt lat="47.74519" lon="-2.28889">
        <ele>55.899969</ele>
        <time>2023-05-05T14:43:07.163Z</time>
      </trkpt>
      <trkpt lat="47.74511" lon="-2.28879">
        <ele>55.813541</ele>
        <time>2023-05-05T14:43:11.156Z</time>
      </trkpt>
      <trkpt lat="47.74503" lon="-2.28866">
        <ele>55.865803</ele>
        <time>2023-05-05T14:43:14.152Z</time>
      </trkpt>
      <trkpt lat="47.74495" lon="-2.28852">
        <ele>55.939694</ele>
        <time>2023-05-05T14:43:17.156Z</time>
      </trkpt>
      <trkpt lat="47.74487" lon="-2.2884">
        <ele>56.005673</ele>
        <time>2023-05-05T14:43:20.150Z</time>
      </trkpt>
      <trkpt lat="47.74481" lon="-2.28828">
        <ele>56.063003</ele>
        <time>2023-05-05T14:43:23.146Z</time>
      </trkpt>
      <trkpt lat="47.74475" lon="-2.28816">
        <ele>56.118417</ele>
        <time>2023-05-05T14:43:26.157Z</time>
      </trkpt>
      <trkpt lat="47.74469" lon="-2.28802">
        <ele>56.183495</ele>
        <time>2023-05-05T14:43:30.157Z</time>
      </trkpt>
      <trkpt lat="47.74465" lon="-2.28787">
        <ele>56.24794</ele>
        <time>2023-05-05T14:43:33.155Z</time>
      </trkpt>
      <trkpt lat="47.74462" lon="-2.28771">
        <ele>56.314165</ele>
        <time>2023-05-05T14:43:36.154Z</time>
      </trkpt>
      <trkpt lat="47.74458" lon="-2.28754">
        <ele>56.380562</ele>
        <time>2023-05-05T14:43:39.155Z</time>
      </trkpt>
      <trkpt lat="47.74455" lon="-2.2874">
        <ele>56.438357</ele>
        <time>2023-05-05T14:43:42.151Z</time>
      </trkpt>
      <trkpt lat="47.74452" lon="-2.28726">
        <ele>56.494081</ele>
        <time>2023-05-05T14:43:45.154Z</time>
      </trkpt>
      <trkpt lat="47.74449" lon="-2.28709">
        <ele>56.562742</ele>
        <time>2023-05-05T14:43:48.153Z</time>
      </trkpt>
      <trkpt lat="47.74447" lon="-2.28691">
        <ele>56.634602</ele>
        <time>2023-05-05T14:43:51.156Z</time>
      </trkpt>
      <trkpt lat="47.74444" lon="-2.28673">
        <ele>56.708321</ele>
        <time>2023-05-05T14:43:54.151Z</time>
      </trkpt>
      <trkpt lat="47.74441" lon="-2.28658">
        <ele>56.766812</ele>
        <time>2023-05-05T14:43:56.148Z</time>
      </trkpt>
      <trkpt lat="47.74437" lon="-2.28642">
        <ele>56.834892</ele>
        <time>2023-05-05T14:43:59.147Z</time>
      </trkpt>
      <trkpt lat="47.74435" lon="-2.28624">
        <ele>56.906293</ele>
        <time>2023-05-05T14:44:02.148Z</time>
      </trkpt>
      <trkpt lat="47.74433" lon="-2.28605">
        <ele>56.979762</ele>
        <time>2023-05-05T14:44:05.153Z</time>
      </trkpt>
      <trkpt lat="47.7443" lon="-2.28588">
        <ele>57.049992</ele>
        <time>2023-05-05T14:44:08.153Z</time>
      </trkpt>
      <trkpt lat="47.74427" lon="-2.28569">
        <ele>57.124833</ele>
        <time>2023-05-05T14:44:11.160Z</time>
      </trkpt>
      <trkpt lat="47.74425" lon="-2.28551">
        <ele>57.196982</ele>
        <time>2023-05-05T14:44:14.153Z</time>
      </trkpt>
      <trkpt lat="47.74422" lon="-2.28533">
        <ele>57.268904</ele>
        <time>2023-05-05T14:44:17.164Z</time>
      </trkpt>
      <trkpt lat="47.7442" lon="-2.28517">
        <ele>57.334823</ele>
        <time>2023-05-05T14:44:20.152Z</time>
      </trkpt>
      <trkpt lat="47.74418" lon="-2.28501">
        <ele>57.39715</ele>
        <time>2023-05-05T14:44:23.154Z</time>
      </trkpt>
      <trkpt lat="47.74415" lon="-2.28485">
        <ele>57.462353</ele>
        <time>2023-05-05T14:44:26.152Z</time>
      </trkpt>
      <trkpt lat="47.74412" lon="-2.28472">
        <ele>57.5155</ele>
        <time>2023-05-05T14:44:28.153Z</time>
      </trkpt>
      <trkpt lat="47.74409" lon="-2.28453">
        <ele>57.593105</ele>
        <time>2023-05-05T14:44:31.158Z</time>
      </trkpt>
      <trkpt lat="47.74404" lon="-2.28436">
        <ele>57.66585</ele>
        <time>2023-05-05T14:44:34.152Z</time>
      </trkpt>
      <trkpt lat="47.74401" lon="-2.28418">
        <ele>57.737732</ele>
        <time>2023-05-05T14:44:37.157Z</time>
      </trkpt>
      <trkpt lat="47.74397" lon="-2.284">
        <ele>57.813664</ele>
        <time>2023-05-05T14:44:40.155Z</time>
      </trkpt>
      <trkpt lat="47.74393" lon="-2.28382">
        <ele>57.88678</ele>
        <time>2023-05-05T14:44:43.157Z</time>
      </trkpt>
      <trkpt lat="47.74391" lon="-2.28366">
        <ele>57.988877</ele>
        <time>2023-05-05T14:44:46.156Z</time>
      </trkpt>
      <trkpt lat="47.74389" lon="-2.28351">
        <ele>58.088331</ele>
        <time>2023-05-05T14:44:49.147Z</time>
      </trkpt>
      <trkpt lat="47.74388" lon="-2.28336">
        <ele>58.179612</ele>
        <time>2023-05-05T14:44:52.146Z</time>
      </trkpt>
      <trkpt lat="47.7439" lon="-2.2832">
        <ele>58.286116</ele>
        <time>2023-05-05T14:44:56.156Z</time>
      </trkpt>
      <trkpt lat="47.74391" lon="-2.28302">
        <ele>58.398311</ele>
        <time>2023-05-05T14:45:00.147Z</time>
      </trkpt>
      <trkpt lat="47.74392" lon="-2.28287">
        <ele>58.496787</ele>
        <time>2023-05-05T14:45:03.147Z</time>
      </trkpt>
      <trkpt lat="47.74392" lon="-2.28269">
        <ele>58.613904</ele>
        <time>2023-05-05T14:45:06.156Z</time>
      </trkpt>
      <trkpt lat="47.74391" lon="-2.28251">
        <ele>58.729983</ele>
        <time>2023-05-05T14:45:09.154Z</time>
      </trkpt>
      <trkpt lat="47.74388" lon="-2.28234">
        <ele>58.839274</ele>
        <time>2023-05-05T14:45:12.166Z</time>
      </trkpt>
      <trkpt lat="47.74384" lon="-2.2822">
        <ele>58.936613</ele>
        <time>2023-05-05T14:45:15.153Z</time>
      </trkpt>
      <trkpt lat="47.74379" lon="-2.28206">
        <ele>59.037257</ele>
        <time>2023-05-05T14:45:18.156Z</time>
      </trkpt>
      <trkpt lat="47.74375" lon="-2.28191">
        <ele>59.142833</ele>
        <time>2023-05-05T14:45:21.154Z</time>
      </trkpt>
      <trkpt lat="47.74369" lon="-2.28176">
        <ele>59.253844</ele>
        <time>2023-05-05T14:45:24.155Z</time>
      </trkpt>
      <trkpt lat="47.74364" lon="-2.28161">
        <ele>59.361819</ele>
        <time>2023-05-05T14:45:27.156Z</time>
      </trkpt>
      <trkpt lat="47.74359" lon="-2.28146">
        <ele>59.471264</ele>
        <time>2023-05-05T14:45:30.157Z</time>
      </trkpt>
      <trkpt lat="47.74352" lon="-2.28132">
        <ele>59.583431</ele>
        <time>2023-05-05T14:45:33.158Z</time>
      </trkpt>
      <trkpt lat="47.74344" lon="-2.28115">
        <ele>59.489177</ele>
        <time>2023-05-05T14:45:36.158Z</time>
      </trkpt>
      <trkpt lat="47.74336" lon="-2.281">
        <ele>59.359759</ele>
        <time>2023-05-05T14:45:39.157Z</time>
      </trkpt>
      <trkpt lat="47.74329" lon="-2.28085">
        <ele>59.234278</ele>
        <time>2023-05-05T14:45:42.155Z</time>
      </trkpt>
      <trkpt lat="47.74322" lon="-2.28072">
        <ele>59.121213</ele>
        <time>2023-05-05T14:45:45.155Z</time>
      </trkpt>
      <trkpt lat="47.74316" lon="-2.28059">
        <ele>59.017892</ele>
        <time>2023-05-05T14:45:48.142Z</time>
      </trkpt>
      <trkpt lat="47.74312" lon="-2.28047">
        <ele>58.920943</ele>
        <time>2023-05-05T14:45:51.158Z</time>
      </trkpt>
      <trkpt lat="47.74308" lon="-2.28032">
        <ele>58.814938</ele>
        <time>2023-05-05T14:45:54.153Z</time>
      </trkpt>
      <trkpt lat="47.74304" lon="-2.28017">
        <ele>58.708171</ele>
        <time>2023-05-05T14:45:57.156Z</time>
      </trkpt>
      <trkpt lat="47.74301" lon="-2.28003">
        <ele>58.606191</ele>
        <time>2023-05-05T14:46:00.149Z</time>
      </trkpt>
      <trkpt lat="47.74298" lon="-2.27988">
        <ele>58.498692</ele>
        <time>2023-05-05T14:46:03.157Z</time>
      </trkpt>
      <trkpt lat="47.74296" lon="-2.27971">
        <ele>58.379084</ele>
        <time>2023-05-05T14:46:06.155Z</time>
      </trkpt>
      <trkpt lat="47.74294" lon="-2.27955">
        <ele>58.269879</ele>
        <time>2023-05-05T14:46:09.162Z</time>
      </trkpt>
      <trkpt lat="47.74292" lon="-2.27937">
        <ele>58.149576</ele>
        <time>2023-05-05T14:46:12.163Z</time>
      </trkpt>
      <trkpt lat="47.74291" lon="-2.27919">
        <ele>58.020514</ele>
        <time>2023-05-05T14:46:15.161Z</time>
      </trkpt>
      <trkpt lat="47.74288" lon="-2.27901">
        <ele>57.899566</ele>
        <time>2023-05-05T14:46:18.164Z</time>
      </trkpt>
      <trkpt lat="47.74287" lon="-2.27885">
        <ele>57.792168</ele>
        <time>2023-05-05T14:46:21.163Z</time>
      </trkpt>
      <trkpt lat="47.74286" lon="-2.27871">
        <ele>57.765813</ele>
        <time>2023-05-05T14:46:24.159Z</time>
      </trkpt>
      <trkpt lat="47.74284" lon="-2.27856">
        <ele>57.744095</ele>
        <time>2023-05-05T14:46:27.163Z</time>
      </trkpt>
      <trkpt lat="47.74282" lon="-2.2784">
        <ele>57.720543</ele>
        <time>2023-05-05T14:46:30.160Z</time>
      </trkpt>
      <trkpt lat="47.7428" lon="-2.27823">
        <ele>57.695376</ele>
        <time>2023-05-05T14:46:33.160Z</time>
      </trkpt>
      <trkpt lat="47.74279" lon="-2.27807">
        <ele>57.671071</ele>
        <time>2023-05-05T14:46:36.158Z</time>
      </trkpt>
      <trkpt lat="47.74277" lon="-2.2779">
        <ele>57.646516</ele>
        <time>2023-05-05T14:46:39.160Z</time>
      </trkpt>
      <trkpt lat="47.74276" lon="-2.27774">
        <ele>57.622429</ele>
        <time>2023-05-05T14:46:42.164Z</time>
      </trkpt>
      <trkpt lat="47.74275" lon="-2.27757">
        <ele>57.598502</ele>
        <time>2023-05-05T14:46:45.163Z</time>
      </trkpt>
      <trkpt lat="47.73012" lon="-2.2186">
        <ele>52.080408</ele>
        <time>2023-05-05T15:14:41.165Z</time>
      </trkpt>
      <trkpt lat="47.73011" lon="-2.21844">
        <ele>52.39572</ele>
        <time>2023-05-05T15:14:48.153Z</time>
      </trkpt>
      <trkpt lat="47.73009" lon="-2.2183">
        <ele>52.6619</ele>
        <time>2023-05-05T15:14:53.157Z</time>
      </trkpt>
      <trkpt lat="47.73007" lon="-2.21817">
        <ele>52.931263</ele>
        <time>2023-05-05T15:14:58.158Z</time>
      </trkpt>
      <trkpt lat="47.73004" lon="-2.21804">
        <ele>53.203991</ele>
        <time>2023-05-05T15:15:02.155Z</time>
      </trkpt>
      <trkpt lat="47.73002" lon="-2.21789">
        <ele>53.496353</ele>
        <time>2023-05-05T15:15:06.154Z</time>
      </trkpt>
      <trkpt lat="47.72999" lon="-2.21776">
        <ele>53.766638</ele>
        <time>2023-05-05T15:15:10.158Z</time>
      </trkpt>
      <trkpt lat="47.72996" lon="-2.21762">
        <ele>54.049067</ele>
        <time>2023-05-05T15:15:14.152Z</time>
      </trkpt>
      <trkpt lat="47.72993" lon="-2.21748">
        <ele>53.992496</ele>
        <time>2023-05-05T15:15:18.151Z</time>
      </trkpt>
      <trkpt lat="47.72989" lon="-2.21732">
        <ele>53.928665</ele>
        <time>2023-05-05T15:15:22.161Z</time>
      </trkpt>
      <trkpt lat="47.72986" lon="-2.21718">
        <ele>53.872771</ele>
        <time>2023-05-05T15:15:26.161Z</time>
      </trkpt>
      <trkpt lat="47.72983" lon="-2.21705">
        <ele>53.816651</ele>
        <time>2023-05-05T15:15:31.162Z</time>
      </trkpt>
      <trkpt lat="47.7298" lon="-2.21692">
        <ele>53.765125</ele>
        <time>2023-05-05T15:15:36.157Z</time>
      </trkpt>
      <trkpt lat="47.72976" lon="-2.21679">
        <ele>53.708693</ele>
        <time>2023-05-05T15:15:41.152Z</time>
      </trkpt>
      <trkpt lat="47.72973" lon="-2.21663">
        <ele>53.64542</ele>
        <time>2023-05-05T15:15:46.154Z</time>
      </trkpt>
      <trkpt lat="47.7297" lon="-2.21649">
        <ele>53.589699</ele>
        <time>2023-05-05T15:15:50.155Z</time>
      </trkpt>
      <trkpt lat="47.72966" lon="-2.21636">
        <ele>53.532846</ele>
        <time>2023-05-05T15:15:54.154Z</time>
      </trkpt>
      <trkpt lat="47.72962" lon="-2.21623">
        <ele>53.479152</ele>
        <time>2023-05-05T15:15:58.158Z</time>
      </trkpt>
      <trkpt lat="47.72957" lon="-2.21611">
        <ele>53.425707</ele>
        <time>2023-05-05T15:16:03.153Z</time>
      </trkpt>
      <trkpt lat="47.72954" lon="-2.21597">
        <ele>53.367076</ele>
        <time>2023-05-05T15:16:09.152Z</time>
      </trkpt>
      <trkpt lat="47.72951" lon="-2.21583">
        <ele>53.311369</ele>
        <time>2023-05-05T15:16:31.151Z</time>
      </trkpt>
      <trkpt lat="47.72945" lon="-2.21572">
        <ele>53.256541</ele>
        <time>2023-05-05T15:16:35.154Z</time>
      </trkpt>
      <trkpt lat="47.72939" lon="-2.21561">
        <ele>53.20176</ele>
        <time>2023-05-05T15:16:38.160Z</time>
      </trkpt>
      <trkpt lat="47.72933" lon="-2.2155">
        <ele>53.148852</ele>
        <time>2023-05-05T15:16:41.155Z</time>
      </trkpt>
      <trkpt lat="47.72927" lon="-2.21538">
        <ele>53.087853</ele>
        <time>2023-05-05T15:16:44.157Z</time>
      </trkpt>
      <trkpt lat="47.72921" lon="-2.21526">
        <ele>53.034096</ele>
        <time>2023-05-05T15:16:47.155Z</time>
      </trkpt>
      <trkpt lat="47.72916" lon="-2.21515">
        <ele>53.146093</ele>
        <time>2023-05-05T15:16:50.164Z</time>
      </trkpt>
      <trkpt lat="47.72909" lon="-2.21503">
        <ele>53.330128</ele>
        <time>2023-05-05T15:16:53.157Z</time>
      </trkpt>
      <trkpt lat="47.72903" lon="-2.2149">
        <ele>53.525872</ele>
        <time>2023-05-05T15:16:56.158Z</time>
      </trkpt>
      <trkpt lat="47.72897" lon="-2.21477">
        <ele>53.708555</ele>
        <time>2023-05-05T15:17:00.154Z</time>
      </trkpt>
      <trkpt lat="47.72891" lon="-2.21464">
        <ele>53.904299</ele>
        <time>2023-05-05T15:17:04.157Z</time>
      </trkpt>
      <trkpt lat="47.72882" lon="-2.21453">
        <ele>54.096258</ele>
        <time>2023-05-05T15:17:09.156Z</time>
      </trkpt>
      <trkpt lat="47.72872" lon="-2.21446">
        <ele>54.302792</ele>
        <time>2023-05-05T15:17:13.164Z</time>
      </trkpt>
      <trkpt lat="47.72863" lon="-2.21441">
        <ele>54.471437</ele>
        <time>2023-05-05T15:17:16.155Z</time>
      </trkpt>
      <trkpt lat="47.72855" lon="-2.21434">
        <ele>54.634132</ele>
        <time>2023-05-05T15:17:19.158Z</time>
      </trkpt>
      <trkpt lat="47.72847" lon="-2.21426">
        <ele>54.800231</ele>
        <time>2023-05-05T15:17:22.158Z</time>
      </trkpt>
      <trkpt lat="47.72837" lon="-2.21416">
        <ele>55.01824</ele>
        <time>2023-05-05T15:17:26.161Z</time>
      </trkpt>
      <trkpt lat="47.72828" lon="-2.21409">
        <ele>55.200225</ele>
        <time>2023-05-05T15:17:29.159Z</time>
      </trkpt>
      <trkpt lat="47.7282" lon="-2.214">
        <ele>55.384413</ele>
        <time>2023-05-05T15:17:32.145Z</time>
      </trkpt>
      <trkpt lat="47.72811" lon="-2.21391">
        <ele>55.576563</ele>
        <time>2023-05-05T15:17:35.158Z</time>
      </trkpt>
      <trkpt lat="47.72801" lon="-2.21383">
        <ele>55.771752</ele>
        <time>2023-05-05T15:17:38.158Z</time>
      </trkpt>
      <trkpt lat="47.72793" lon="-2.21375">
        <ele>55.953099</ele>
        <time>2023-05-05T15:17:41.154Z</time>
      </trkpt>
      <trkpt lat="47.72784" lon="-2.21369">
        <ele>56.120999</ele>
        <time>2023-05-05T15:17:44.153Z</time>
      </trkpt>
      <trkpt lat="47.72776" lon="-2.21362">
        <ele>56.261864</ele>
        <time>2023-05-05T15:17:47.158Z</time>
      </trkpt>
      <trkpt lat="47.72765" lon="-2.21356">
        <ele>56.407729</ele>
        <time>2023-05-05T15:17:51.156Z</time>
      </trkpt>
      <trkpt lat="47.72755" lon="-2.21348">
        <ele>56.549063</ele>
        <time>2023-05-05T15:17:55.154Z</time>
      </trkpt>
      <trkpt lat="47.72746" lon="-2.21342">
        <ele>56.662353</ele>
        <time>2023-05-05T15:17:58.155Z</time>
      </trkpt>
      <trkpt lat="47.72737" lon="-2.21337">
        <ele>56.779372</ele>
        <time>2023-05-05T15:18:01.165Z</time>
      </trkpt>
      <trkpt lat="47.72728" lon="-2.21332">
        <ele>56.903912</ele>
        <time>2023-05-05T15:18:04.162Z</time>
      </trkpt>
      <trkpt lat="47.72718" lon="-2.21326">
        <ele>57.029072</ele>
        <time>2023-05-05T15:18:07.157Z</time>
      </trkpt>
      <trkpt lat="47.72708" lon="-2.21319">
        <ele>57.161423</ele>
        <time>2023-05-05T15:18:10.158Z</time>
      </trkpt>
      <trkpt lat="47.72698" lon="-2.21312">
        <ele>57.296129</ele>
        <time>2023-05-05T15:18:13.158Z</time>
      </trkpt>
      <trkpt lat="47.72689" lon="-2.21306">
        <ele>57.417293</ele>
        <time>2023-05-05T15:18:16.164Z</time>
      </trkpt>
      <trkpt lat="47.7268" lon="-2.213">
        <ele>57.543321</ele>
        <time>2023-05-05T15:18:19.164Z</time>
      </trkpt>
      <trkpt lat="47.72669" lon="-2.21294">
        <ele>57.679491</ele>
        <time>2023-05-05T15:18:22.158Z</time>
      </trkpt>
      <trkpt lat="47.72659" lon="-2.2129">
        <ele>57.813279</ele>
        <time>2023-05-05T15:18:25.156Z</time>
      </trkpt>
      <trkpt lat="47.72648" lon="-2.21287">
        <ele>57.939523</ele>
        <time>2023-05-05T15:18:28.161Z</time>
      </trkpt>
      <trkpt lat="47.72639" lon="-2.21286">
        <ele>58.055195</ele>
        <time>2023-05-05T15:18:31.162Z</time>
      </trkpt>
      <trkpt lat="47.7263" lon="-2.21287">
        <ele>58.168357</ele>
        <time>2023-05-05T15:18:34.155Z</time>
      </trkpt>
      <trkpt lat="47.7262" lon="-2.21287">
        <ele>58.287561</ele>
        <time>2023-05-05T15:18:37.162Z</time>
      </trkpt>
      <trkpt lat="47.72611" lon="-2.21287">
        <ele>58.396997</ele>
        <time>2023-05-05T15:18:40.159Z</time>
      </trkpt>
      <trkpt lat="47.72599" lon="-2.21287">
        <ele>58.234604</ele>
        <time>2023-05-05T15:18:44.159Z</time>
      </trkpt>
      <trkpt lat="47.72589" lon="-2.21287">
        <ele>58.05954</ele>
        <time>2023-05-05T15:18:48.174Z</time>
      </trkpt>
      <trkpt lat="47.72579" lon="-2.21287">
        <ele>57.894243</ele>
        <time>2023-05-05T15:18:53.155Z</time>
      </trkpt>
      <trkpt lat="47.7257" lon="-2.21293">
        <ele>57.73249</ele>
        <time>2023-05-05T15:18:58.159Z</time>
      </trkpt>
      <trkpt lat="47.7256" lon="-2.21296">
        <ele>57.568089</ele>
        <time>2023-05-05T15:19:03.156Z</time>
      </trkpt>
      <trkpt lat="47.7255" lon="-2.21297">
        <ele>57.402791</ele>
        <time>2023-05-05T15:19:09.157Z</time>
      </trkpt>
      <trkpt lat="47.72539" lon="-2.21295">
        <ele>57.22225</ele>
        <time>2023-05-05T15:19:14.155Z</time>
      </trkpt>
      <trkpt lat="47.72528" lon="-2.213">
        <ele>57.039794</ele>
        <time>2023-05-05T15:19:18.163Z</time>
      </trkpt>
      <trkpt lat="47.72518" lon="-2.21304">
        <ele>56.875186</ele>
        <time>2023-05-05T15:19:22.160Z</time>
      </trkpt>
      <trkpt lat="47.7251" lon="-2.21294">
        <ele>56.692027</ele>
        <time>2023-05-05T15:19:27.154Z</time>
      </trkpt>
      <trkpt lat="47.72505" lon="-2.21283">
        <ele>56.544004</ele>
        <time>2023-05-05T15:19:30.161Z</time>
      </trkpt>
      <trkpt lat="47.72498" lon="-2.21269">
        <ele>56.356842</ele>
        <time>2023-05-05T15:19:34.146Z</time>
      </trkpt>
      <trkpt lat="47.72492" lon="-2.21258">
        <ele>56.202322</ele>
        <time>2023-05-05T15:19:37.157Z</time>
      </trkpt>
      <trkpt lat="47.72484" lon="-2.21245">
        <ele>56.008785</ele>
        <time>2023-05-05T15:19:41.156Z</time>
      </trkpt>
      <trkpt lat="47.72477" lon="-2.21234">
        <ele>55.833006</ele>
        <time>2023-05-05T15:19:45.160Z</time>
      </trkpt>
      <trkpt lat="47.72472" lon="-2.2122">
        <ele>55.666972</ele>
        <time>2023-05-05T15:19:50.146Z</time>
      </trkpt>
      <trkpt lat="47.7247" lon="-2.21207">
        <ele>55.517759</ele>
        <time>2023-05-05T15:19:54.153Z</time>
      </trkpt>
      <trkpt lat="47.72467" lon="-2.21191">
        <ele>55.570389</ele>
        <time>2023-05-05T15:19:58.158Z</time>
      </trkpt>
      <trkpt lat="47.72465" lon="-2.21177">
        <ele>55.707388</ele>
        <time>2023-05-05T15:20:01.164Z</time>
      </trkpt>
      <trkpt lat="47.72464" lon="-2.21162">
        <ele>55.848269</ele>
        <time>2023-05-05T15:20:04.155Z</time>
      </trkpt>
      <trkpt lat="47.72462" lon="-2.21146">
        <ele>55.999394</ele>
        <time>2023-05-05T15:20:08.187Z</time>
      </trkpt>
      <trkpt lat="47.72463" lon="-2.21132">
        <ele>56.128968</ele>
        <time>2023-05-05T15:20:12.153Z</time>
      </trkpt>
      <trkpt lat="47.72464" lon="-2.21115">
        <ele>56.2799</ele>
        <time>2023-05-05T15:20:16.156Z</time>
      </trkpt>
      <trkpt lat="47.72464" lon="-2.21099">
        <ele>56.432494</ele>
        <time>2023-05-05T15:20:20.156Z</time>
      </trkpt>
      <trkpt lat="47.72462" lon="-2.21081">
        <ele>56.598984</ele>
        <time>2023-05-05T15:20:24.163Z</time>
      </trkpt>
      <trkpt lat="47.72461" lon="-2.21066">
        <ele>56.73766</ele>
        <time>2023-05-05T15:20:27.157Z</time>
      </trkpt>
      <trkpt lat="47.7246" lon="-2.21048">
        <ele>56.902773</ele>
        <time>2023-05-05T15:20:30.160Z</time>
      </trkpt>
      <trkpt lat="47.72459" lon="-2.2103">
        <ele>57.075637</ele>
        <time>2023-05-05T15:20:33.158Z</time>
      </trkpt>
      <trkpt lat="47.72457" lon="-2.21012">
        <ele>57.239955</ele>
        <time>2023-05-05T15:20:36.162Z</time>
      </trkpt>
      <trkpt lat="47.72455" lon="-2.20997">
        <ele>57.381368</ele>
        <time>2023-05-05T15:20:39.154Z</time>
      </trkpt>
      <trkpt lat="47.72452" lon="-2.20983">
        <ele>57.517074</ele>
        <time>2023-05-05T15:20:42.152Z</time>
      </trkpt>
      <trkpt lat="47.72451" lon="-2.20969">
        <ele>57.646799</ele>
        <time>2023-05-05T15:20:45.150Z</time>
      </trkpt>
      <trkpt lat="47.7245" lon="-2.20952">
        <ele>57.79906</ele>
        <time>2023-05-05T15:20:48.166Z</time>
      </trkpt>
      <trkpt lat="47.72449" lon="-2.20937">
        <ele>57.908595</ele>
        <time>2023-05-05T15:20:51.155Z</time>
      </trkpt>
      <trkpt lat="47.72452" lon="-2.2092">
        <ele>57.612036</ele>
        <time>2023-05-05T15:20:54.151Z</time>
      </trkpt>
      <trkpt lat="47.72456" lon="-2.20902">
        <ele>57.287359</ele>
        <time>2023-05-05T15:20:57.154Z</time>
      </trkpt>
      <trkpt lat="47.72459" lon="-2.20884">
        <ele>56.966492</ele>
        <time>2023-05-05T15:21:00.147Z</time>
      </trkpt>
      <trkpt lat="47.72461" lon="-2.20866">
        <ele>56.645098</ele>
        <time>2023-05-05T15:21:03.149Z</time>
      </trkpt>
      <trkpt lat="47.72462" lon="-2.20849">
        <ele>56.337985</ele>
        <time>2023-05-05T15:21:06.157Z</time>
      </trkpt>
      <trkpt lat="47.72462" lon="-2.20831">
        <ele>56.020714</ele>
        <time>2023-05-05T15:21:09.156Z</time>
      </trkpt>
      <trkpt lat="47.72458" lon="-2.20812">
        <ele>55.68951</ele>
        <time>2023-05-05T15:21:12.160Z</time>
      </trkpt>
      <trkpt lat="47.72456" lon="-2.20796">
        <ele>55.402125</ele>
        <time>2023-05-05T15:21:15.160Z</time>
      </trkpt>
      <trkpt lat="47.72453" lon="-2.20782">
        <ele>55.138659</ele>
        <time>2023-05-05T15:21:18.148Z</time>
      </trkpt>
      <trkpt lat="47.7245" lon="-2.20767">
        <ele>54.878371</ele>
        <time>2023-05-05T15:21:21.159Z</time>
      </trkpt>
      <trkpt lat="47.72447" lon="-2.20752">
        <ele>54.603982</ele>
        <time>2023-05-05T15:21:24.157Z</time>
      </trkpt>
      <trkpt lat="47.72444" lon="-2.20737">
        <ele>54.322173</ele>
        <time>2023-05-05T15:21:27.163Z</time>
      </trkpt>
      <trkpt lat="47.7244" lon="-2.20721">
        <ele>54.038052</ele>
        <time>2023-05-05T15:21:30.159Z</time>
      </trkpt>
      <trkpt lat="47.72438" lon="-2.20708">
        <ele>53.794275</ele>
        <time>2023-05-05T15:21:33.155Z</time>
      </trkpt>
      <trkpt lat="47.72435" lon="-2.20692">
        <ele>53.514582</ele>
        <time>2023-05-05T15:21:36.163Z</time>
      </trkpt>
      <trkpt lat="47.72433" lon="-2.20675">
        <ele>53.278204</ele>
        <time>2023-05-05T15:21:39.159Z</time>
      </trkpt>
      <trkpt lat="47.72434" lon="-2.20657">
        <ele>53.300271</ele>
        <time>2023-05-05T15:21:42.162Z</time>
      </trkpt>
      <trkpt lat="47.72432" lon="-2.20641">
        <ele>53.319639</ele>
        <time>2023-05-05T15:21:45.160Z</time>
      </trkpt>
      <trkpt lat="47.72432" lon="-2.20627">
        <ele>53.336875</ele>
        <time>2023-05-05T15:21:48.159Z</time>
      </trkpt>
      <trkpt lat="47.7243" lon="-2.2061">
        <ele>53.357007</ele>
        <time>2023-05-05T15:21:52.159Z</time>
      </trkpt>
      <trkpt lat="47.72429" lon="-2.20597">
        <ele>53.373601</ele>
        <time>2023-05-05T15:21:55.150Z</time>
      </trkpt>
      <trkpt lat="47.72427" lon="-2.2058">
        <ele>53.393454</ele>
        <time>2023-05-05T15:21:58.163Z</time>
      </trkpt>
      <trkpt lat="47.72425" lon="-2.20563">
        <ele>53.414165</ele>
        <time>2023-05-05T15:22:01.163Z</time>
      </trkpt>
      <trkpt lat="47.72423" lon="-2.20546">
        <ele>53.435478</ele>
        <time>2023-05-05T15:22:04.165Z</time>
      </trkpt>
      <trkpt lat="47.72423" lon="-2.2053">
        <ele>53.455574</ele>
        <time>2023-05-05T15:22:07.160Z</time>
      </trkpt>
      <trkpt lat="47.72423" lon="-2.20513">
        <ele>53.475918</ele>
        <time>2023-05-05T15:22:10.160Z</time>
      </trkpt>
      <trkpt lat="47.72424" lon="-2.20498">
        <ele>53.493516</ele>
        <time>2023-05-05T15:22:13.158Z</time>
      </trkpt>
      <trkpt lat="47.72425" lon="-2.20484">
        <ele>53.511114</ele>
        <time>2023-05-05T15:22:16.165Z</time>
      </trkpt>
      <trkpt lat="47.72425" lon="-2.20468">
        <ele>53.530161</ele>
        <time>2023-05-05T15:22:19.165Z</time>
      </trkpt>
      <trkpt lat="47.72427" lon="-2.20451">
        <ele>53.550853</ele>
        <time>2023-05-05T15:22:22.155Z</time>
      </trkpt>
      <trkpt lat="47.72428" lon="-2.20433">
        <ele>53.572268</ele>
        <time>2023-05-05T15:22:25.161Z</time>
      </trkpt>
      <trkpt lat="47.72431" lon="-2.20416">
        <ele>53.594002</ele>
        <time>2023-05-05T15:22:28.160Z</time>
      </trkpt>
      <trkpt lat="47.72433" lon="-2.20398">
        <ele>53.57374</ele>
        <time>2023-05-05T15:22:31.162Z</time>
      </trkpt>
      <trkpt lat="47.72434" lon="-2.2038">
        <ele>53.546343</ele>
        <time>2023-05-05T15:22:34.161Z</time>
      </trkpt>
      <trkpt lat="47.72437" lon="-2.20363">
        <ele>53.519656</ele>
        <time>2023-05-05T15:22:37.157Z</time>
      </trkpt>
      <trkpt lat="47.72438" lon="-2.20347">
        <ele>53.49574</ele>
        <time>2023-05-05T15:22:40.145Z</time>
      </trkpt>
      <trkpt lat="47.7244" lon="-2.20331">
        <ele>53.471023</ele>
        <time>2023-05-05T15:22:43.157Z</time>
      </trkpt>
      <trkpt lat="47.72442" lon="-2.20313">
        <ele>53.443599</ele>
        <time>2023-05-05T15:22:46.151Z</time>
      </trkpt>
      <trkpt lat="47.72442" lon="-2.20296">
        <ele>53.416918</ele>
        <time>2023-05-05T15:22:49.155Z</time>
      </trkpt>
      <trkpt lat="47.72442" lon="-2.20278">
        <ele>53.390431</ele>
        <time>2023-05-05T15:22:52.159Z</time>
      </trkpt>
      <trkpt lat="47.72443" lon="-2.2026">
        <ele>53.362995</ele>
        <time>2023-05-05T15:22:55.156Z</time>
      </trkpt>
      <trkpt lat="47.72445" lon="-2.20243">
        <ele>53.336268</ele>
        <time>2023-05-05T15:22:58.150Z</time>
      </trkpt>
      <trkpt lat="47.72445" lon="-2.20227">
        <ele>53.311902</ele>
        <time>2023-05-05T15:23:01.160Z</time>
      </trkpt>
      <trkpt lat="47.72444" lon="-2.20209">
        <ele>53.285869</ele>
        <time>2023-05-05T15:23:04.170Z</time>
      </trkpt>
      <trkpt lat="47.72445" lon="-2.20191">
        <ele>53.257411</ele>
        <time>2023-05-05T15:23:07.167Z</time>
      </trkpt>
      <trkpt lat="47.72443" lon="-2.20173">
        <ele>53.231218</ele>
        <time>2023-05-05T15:23:10.155Z</time>
      </trkpt>
      <trkpt lat="47.72441" lon="-2.20156">
        <ele>53.204096</ele>
        <time>2023-05-05T15:23:13.158Z</time>
      </trkpt>
      <trkpt lat="47.72437" lon="-2.20141">
        <ele>53.145267</ele>
        <time>2023-05-05T15:23:16.161Z</time>
      </trkpt>
      <trkpt lat="47.72432" lon="-2.20129">
        <ele>53.068948</ele>
        <time>2023-05-05T15:23:18.159Z</time>
      </trkpt>
      <trkpt lat="47.72428" lon="-2.20114">
        <ele>52.976723</ele>
        <time>2023-05-05T15:23:21.159Z</time>
      </trkpt>
      <trkpt lat="47.72425" lon="-2.20098">
        <ele>52.881365</ele>
        <time>2023-05-05T15:23:24.163Z</time>
      </trkpt>
      <trkpt lat="47.72421" lon="-2.20084">
        <ele>52.794603</ele>
        <time>2023-05-05T15:23:27.158Z</time>
      </trkpt>
      <trkpt lat="47.72418" lon="-2.20071">
        <ele>52.718743</ele>
        <time>2023-05-05T15:23:30.162Z</time>
      </trkpt>
      <trkpt lat="47.72415" lon="-2.20056">
        <ele>52.627843</ele>
        <time>2023-05-05T15:23:33.156Z</time>
      </trkpt>
      <trkpt lat="47.72413" lon="-2.20041">
        <ele>52.545851</ele>
        <time>2023-05-05T15:23:36.158Z</time>
      </trkpt>
      <trkpt lat="47.72411" lon="-2.20028">
        <ele>52.468671</ele>
        <time>2023-05-05T15:23:39.157Z</time>
      </trkpt>
      <trkpt lat="47.72409" lon="-2.20013">
        <ele>52.383042</ele>
        <time>2023-05-05T15:23:42.154Z</time>
      </trkpt>
      <trkpt lat="47.72408" lon="-2.19997">
        <ele>52.292309</ele>
        <time>2023-05-05T15:23:45.161Z</time>
      </trkpt>
      <trkpt lat="47.72408" lon="-2.19981">
        <ele>52.201568</ele>
        <time>2023-05-05T15:23:48.160Z</time>
      </trkpt>
      <trkpt lat="47.72406" lon="-2.19964">
        <ele>52.104444</ele>
        <time>2023-05-05T15:23:51.163Z</time>
      </trkpt>
      <trkpt lat="47.72404" lon="-2.19947">
        <ele>52.010156</ele>
        <time>2023-05-05T15:23:54.157Z</time>
      </trkpt>
      <trkpt lat="47.72402" lon="-2.19929">
        <ele>51.905847</ele>
        <time>2023-05-05T15:23:57.158Z</time>
      </trkpt>
      <trkpt lat="47.724" lon="-2.1991">
        <ele>51.799334</ele>
        <time>2023-05-05T15:24:00.149Z</time>
      </trkpt>
      <trkpt lat="47.724" lon="-2.19894">
        <ele>51.704618</ele>
        <time>2023-05-05T15:24:03.156Z</time>
      </trkpt>
      <trkpt lat="47.72398" lon="-2.19878">
        <ele>51.694019</ele>
        <time>2023-05-05T15:24:06.160Z</time>
      </trkpt>
      <trkpt lat="47.72397" lon="-2.19864">
        <ele>51.703698</ele>
        <time>2023-05-05T15:24:09.152Z</time>
      </trkpt>
      <trkpt lat="47.72395" lon="-2.19851">
        <ele>51.712819</ele>
        <time>2023-05-05T15:24:12.159Z</time>
      </trkpt>
      <trkpt lat="47.72394" lon="-2.19835">
        <ele>51.723859</ele>
        <time>2023-05-05T15:24:16.164Z</time>
      </trkpt>
      <trkpt lat="47.72393" lon="-2.19821">
        <ele>51.733366</ele>
        <time>2023-05-05T15:24:20.158Z</time>
      </trkpt>
      <trkpt lat="47.7239" lon="-2.19807">
        <ele>51.743357</ele>
        <time>2023-05-05T15:24:24.160Z</time>
      </trkpt>
      <trkpt lat="47.72387" lon="-2.19794">
        <ele>51.752675</ele>
        <time>2023-05-05T15:24:27.156Z</time>
      </trkpt>
      <trkpt lat="47.72384" lon="-2.19781">
        <ele>51.762054</ele>
        <time>2023-05-05T15:24:30.164Z</time>
      </trkpt>
      <trkpt lat="47.72381" lon="-2.19767">
        <ele>51.771828</ele>
        <time>2023-05-05T15:24:33.159Z</time>
      </trkpt>
      <trkpt lat="47.72379" lon="-2.19753">
        <ele>51.781547</ele>
        <time>2023-05-05T15:24:36.158Z</time>
      </trkpt>
      <trkpt lat="47.72377" lon="-2.19736">
        <ele>51.793284</ele>
        <time>2023-05-05T15:24:40.164Z</time>
      </trkpt>
      <trkpt lat="47.72375" lon="-2.1972">
        <ele>51.80419</ele>
        <time>2023-05-05T15:24:43.158Z</time>
      </trkpt>
      <trkpt lat="47.72372" lon="-2.19705">
        <ele>51.815028</ele>
        <time>2023-05-05T15:24:46.157Z</time>
      </trkpt>
      <trkpt lat="47.72368" lon="-2.1969">
        <ele>51.825929</ele>
        <time>2023-05-05T15:24:49.157Z</time>
      </trkpt>
      <trkpt lat="47.72365" lon="-2.19675">
        <ele>51.836955</ele>
        <time>2023-05-05T15:24:52.154Z</time>
      </trkpt>
      <trkpt lat="47.72361" lon="-2.1966">
        <ele>51.847432</ele>
        <time>2023-05-05T15:24:55.157Z</time>
      </trkpt>
      <trkpt lat="47.72358" lon="-2.19645">
        <ele>51.858364</ele>
        <time>2023-05-05T15:24:58.164Z</time>
      </trkpt>
      <trkpt lat="47.72355" lon="-2.1963">
        <ele>51.894063</ele>
        <time>2023-05-05T15:25:01.155Z</time>
      </trkpt>
      <trkpt lat="47.72351" lon="-2.19615">
        <ele>52.077923</ele>
        <time>2023-05-05T15:25:04.160Z</time>
      </trkpt>
      <trkpt lat="47.72346" lon="-2.19599">
        <ele>52.27328</ele>
        <time>2023-05-05T15:25:07.159Z</time>
      </trkpt>
      <trkpt lat="47.72341" lon="-2.19585">
        <ele>52.459951</ele>
        <time>2023-05-05T15:25:10.158Z</time>
      </trkpt>
      <trkpt lat="47.72339" lon="-2.19569">
        <ele>52.647991</ele>
        <time>2023-05-05T15:25:13.157Z</time>
      </trkpt>
      <trkpt lat="47.7234" lon="-2.19553">
        <ele>52.83275</ele>
        <time>2023-05-05T15:25:16.159Z</time>
      </trkpt>
      <trkpt lat="47.72344" lon="-2.19537">
        <ele>53.030183</ele>
        <time>2023-05-05T15:25:19.154Z</time>
      </trkpt>
      <trkpt lat="47.72347" lon="-2.19519">
        <ele>53.241448</ele>
        <time>2023-05-05T15:25:22.161Z</time>
      </trkpt>
      <trkpt lat="47.72347" lon="-2.19501">
        <ele>53.447636</ele>
        <time>2023-05-05T15:25:25.168Z</time>
      </trkpt>
      <trkpt lat="47.72348" lon="-2.19484">
        <ele>53.639311</ele>
        <time>2023-05-05T15:25:28.164Z</time>
      </trkpt>
      <trkpt lat="47.72349" lon="-2.19467">
        <ele>53.832932</ele>
        <time>2023-05-05T15:25:31.164Z</time>
      </trkpt>
      <trkpt lat="47.72349" lon="-2.19451">
        <ele>54.020939</ele>
        <time>2023-05-05T15:25:34.167Z</time>
      </trkpt>
      <trkpt lat="47.72351" lon="-2.19434">
        <ele>54.213089</ele>
        <time>2023-05-05T15:25:37.171Z</time>
      </trkpt>
      <trkpt lat="47.72352" lon="-2.19417">
        <ele>54.408482</ele>
        <time>2023-05-05T15:25:40.165Z</time>
      </trkpt>
      <trkpt lat="47.72338" lon="-2.19195">
        <ele>55.133818</ele>
        <time>2023-05-05T15:34:26.153Z</time>
      </trkpt>
      <trkpt lat="47.72347" lon="-2.19195">
        <ele>55.149447</ele>
        <time>2023-05-05T15:35:06.153Z</time>
      </trkpt>
      <trkpt lat="47.7234" lon="-2.19188">
        <ele>55.165298</ele>
        <time>2023-05-05T15:37:22.162Z</time>
      </trkpt>
      <trkpt lat="47.7234" lon="-2.1917">
        <ele>55.185747</ele>
        <time>2023-05-05T15:41:05.162Z</time>
      </trkpt>
      <trkpt lat="47.72338" lon="-2.19154">
        <ele>55.204709</ele>
        <time>2023-05-05T15:41:10.160Z</time>
      </trkpt>
      <trkpt lat="47.72337" lon="-2.1914">
        <ele>55.221658</ele>
        <time>2023-05-05T15:41:14.160Z</time>
      </trkpt>
      <trkpt lat="47.72337" lon="-2.19126">
        <ele>55.237909</ele>
        <time>2023-05-05T15:41:18.165Z</time>
      </trkpt>
      <trkpt lat="47.72336" lon="-2.19111">
        <ele>55.069622</ele>
        <time>2023-05-05T15:41:23.154Z</time>
      </trkpt>
      <trkpt lat="47.72337" lon="-2.19096">
        <ele>54.890535</ele>
        <time>2023-05-05T15:41:29.155Z</time>
      </trkpt>
      <trkpt lat="47.72336" lon="-2.1908">
        <ele>54.697875</ele>
        <time>2023-05-05T15:41:35.158Z</time>
      </trkpt>
      <trkpt lat="47.72336" lon="-2.19064">
        <ele>54.506529</ele>
        <time>2023-05-05T15:41:41.153Z</time>
      </trkpt>
      <trkpt lat="47.72337" lon="-2.1905">
        <ele>54.334645</ele>
        <time>2023-05-05T15:41:46.163Z</time>
      </trkpt>
      <trkpt lat="47.72336" lon="-2.19035">
        <ele>54.161521</ele>
        <time>2023-05-05T15:41:51.157Z</time>
      </trkpt>
      <trkpt lat="47.72336" lon="-2.1902">
        <ele>53.98595</ele>
        <time>2023-05-05T15:41:57.157Z</time>
      </trkpt>
      <trkpt lat="47.72336" lon="-2.19006">
        <ele>53.811706</ele>
        <time>2023-05-05T15:42:03.156Z</time>
      </trkpt>
      <trkpt lat="47.72335" lon="-2.18989">
        <ele>53.61415</ele>
        <time>2023-05-05T15:42:08.164Z</time>
      </trkpt>
      <trkpt lat="47.72336" lon="-2.18975">
        <ele>53.437996</ele>
        <time>2023-05-05T15:42:12.146Z</time>
      </trkpt>
      <trkpt lat="47.72336" lon="-2.18961">
        <ele>53.276879</ele>
        <time>2023-05-05T15:42:16.165Z</time>
      </trkpt>
      <trkpt lat="47.72336" lon="-2.18947">
        <ele>53.110912</ele>
        <time>2023-05-05T15:42:21.154Z</time>
      </trkpt>
      <trkpt lat="47.72337" lon="-2.18933">
        <ele>52.938935</ele>
        <time>2023-05-05T15:42:26.162Z</time>
      </trkpt>
      <trkpt lat="47.72336" lon="-2.1892">
        <ele>52.777104</ele>
        <time>2023-05-05T15:42:31.164Z</time>
      </trkpt>
      <trkpt lat="47.72335" lon="-2.18905">
        <ele>52.60808</ele>
        <time>2023-05-05T15:42:36.159Z</time>
      </trkpt>
      <trkpt lat="47.72334" lon="-2.1889">
        <ele>52.424451</ele>
        <time>2023-05-05T15:42:41.156Z</time>
      </trkpt>
      <trkpt lat="47.72334" lon="-2.18874">
        <ele>52.233377</ele>
        <time>2023-05-05T15:42:47.156Z</time>
      </trkpt>
      <trkpt lat="47.72334" lon="-2.18861">
        <ele>52.071791</ele>
        <time>2023-05-05T15:42:52.153Z</time>
      </trkpt>
      <trkpt lat="47.72332" lon="-2.18845">
        <ele>52.103149</ele>
        <time>2023-05-05T15:42:57.160Z</time>
      </trkpt>
      <trkpt lat="47.72331" lon="-2.18829">
        <ele>52.16853</ele>
        <time>2023-05-05T15:43:01.159Z</time>
      </trkpt>
      <trkpt lat="47.7233" lon="-2.18811">
        <ele>52.237967</ele>
        <time>2023-05-05T15:43:05.158Z</time>
      </trkpt>
      <trkpt lat="47.72328" lon="-2.18795">
        <ele>52.301395</ele>
        <time>2023-05-05T15:43:08.162Z</time>
      </trkpt>
      <trkpt lat="47.72327" lon="-2.1878">
        <ele>52.362319</ele>
        <time>2023-05-05T15:43:11.163Z</time>
      </trkpt>
      <trkpt lat="47.72325" lon="-2.18766">
        <ele>52.419353</ele>
        <time>2023-05-05T15:43:14.162Z</time>
      </trkpt>
      <trkpt lat="47.72322" lon="-2.18753">
        <ele>52.475905</ele>
        <time>2023-05-05T15:43:17.156Z</time>
      </trkpt>
      <trkpt lat="47.7232" lon="-2.18738">
        <ele>52.534232</ele>
        <time>2023-05-05T15:43:20.161Z</time>
      </trkpt>
      <trkpt lat="47.72318" lon="-2.18724">
        <ele>52.59148</ele>
        <time>2023-05-05T15:43:23.159Z</time>
      </trkpt>
      <trkpt lat="47.72316" lon="-2.18709">
        <ele>52.654612</ele>
        <time>2023-05-05T15:43:26.145Z</time>
      </trkpt>
      <trkpt lat="47.72313" lon="-2.18693">
        <ele>52.719431</ele>
        <time>2023-05-05T15:43:29.162Z</time>
      </trkpt>
      <trkpt lat="47.72311" lon="-2.18677">
        <ele>52.783251</ele>
        <time>2023-05-05T15:43:32.159Z</time>
      </trkpt>
      <trkpt lat="47.72308" lon="-2.18662">
        <ele>52.845442</ele>
        <time>2023-05-05T15:43:35.154Z</time>
      </trkpt>
      <trkpt lat="47.72305" lon="-2.18647">
        <ele>52.908596</ele>
        <time>2023-05-05T15:43:38.160Z</time>
      </trkpt>
      <trkpt lat="47.72303" lon="-2.18632">
        <ele>52.97132</ele>
        <time>2023-05-05T15:43:41.159Z</time>
      </trkpt>
      <trkpt lat="47.72301" lon="-2.18616">
        <ele>53.032887</ele>
        <time>2023-05-05T15:43:44.152Z</time>
      </trkpt>
      <trkpt lat="47.72299" lon="-2.18601">
        <ele>53.096813</ele>
        <time>2023-05-05T15:43:47.161Z</time>
      </trkpt>
      <trkpt lat="47.72297" lon="-2.18587">
        <ele>53.109321</ele>
        <time>2023-05-05T15:43:50.163Z</time>
      </trkpt>
      <trkpt lat="47.72295" lon="-2.18573">
        <ele>53.106986</ele>
        <time>2023-05-05T15:43:54.164Z</time>
      </trkpt>
      <trkpt lat="47.72293" lon="-2.18559">
        <ele>53.104577</ele>
        <time>2023-05-05T15:44:00.154Z</time>
      </trkpt>
      <trkpt lat="47.71719" lon="-2.14756">
        <ele>52.190154</ele>
        <time>2023-05-05T16:01:49.162Z</time>
      </trkpt>
      <trkpt lat="47.71717" lon="-2.14742">
        <ele>52.167743</ele>
        <time>2023-05-05T16:01:53.163Z</time>
      </trkpt>
      <trkpt lat="47.71715" lon="-2.14726">
        <ele>52.14069</ele>
        <time>2023-05-05T16:01:58.166Z</time>
      </trkpt>
      <trkpt lat="47.71715" lon="-2.14712">
        <ele>52.11893</ele>
        <time>2023-05-05T16:02:02.144Z</time>
      </trkpt>
      <trkpt lat="47.71714" lon="-2.14698">
        <ele>52.096794</ele>
        <time>2023-05-05T16:02:06.158Z</time>
      </trkpt>
      <trkpt lat="47.71711" lon="-2.14683">
        <ele>52.068279</ele>
        <time>2023-05-05T16:02:10.166Z</time>
      </trkpt>
      <trkpt lat="47.71709" lon="-2.1467">
        <ele>51.904703</ele>
        <time>2023-05-05T16:02:13.169Z</time>
      </trkpt>
      <trkpt lat="47.71706" lon="-2.14655">
        <ele>51.720272</ele>
        <time>2023-05-05T16:02:17.171Z</time>
      </trkpt>
      <trkpt lat="47.71702" lon="-2.14638">
        <ele>51.500814</ele>
        <time>2023-05-05T16:02:21.170Z</time>
      </trkpt>
      <trkpt lat="47.717" lon="-2.14624">
        <ele>51.3275</ele>
        <time>2023-05-05T16:02:24.164Z</time>
      </trkpt>
      <trkpt lat="47.71698" lon="-2.1461">
        <ele>51.154779</ele>
        <time>2023-05-05T16:02:27.152Z</time>
      </trkpt>
      <trkpt lat="47.71695" lon="-2.14597">
        <ele>50.990451</ele>
        <time>2023-05-05T16:02:30.160Z</time>
      </trkpt>
      <trkpt lat="47.71695" lon="-2.14582">
        <ele>50.817474</ele>
        <time>2023-05-05T16:02:32.166Z</time>
      </trkpt>
      <trkpt lat="47.7169" lon="-2.14567">
        <ele>50.621545</ele>
        <time>2023-05-05T16:02:36.171Z</time>
      </trkpt>
      <trkpt lat="47.71684" lon="-2.14557">
        <ele>50.45835</ele>
        <time>2023-05-05T16:02:39.168Z</time>
      </trkpt>
      <trkpt lat="47.71683" lon="-2.14539">
        <ele>50.244753</ele>
        <time>2023-05-05T16:02:43.160Z</time>
      </trkpt>
      <trkpt lat="47.71682" lon="-2.14524">
        <ele>50.06512</ele>
        <time>2023-05-05T16:02:46.165Z</time>
      </trkpt>
      <trkpt lat="47.7168" lon="-2.1451">
        <ele>49.889416</ele>
        <time>2023-05-05T16:02:49.168Z</time>
      </trkpt>
      <trkpt lat="47.71677" lon="-2.14494">
        <ele>49.686439</ele>
        <time>2023-05-05T16:02:52.164Z</time>
      </trkpt>
      <trkpt lat="47.71673" lon="-2.1448">
        <ele>49.504663</ele>
        <time>2023-05-05T16:02:55.171Z</time>
      </trkpt>
      <trkpt lat="47.71671" lon="-2.14465">
        <ele>49.324005</ele>
        <time>2023-05-05T16:02:58.167Z</time>
      </trkpt>
      <trkpt lat="47.71668" lon="-2.14451">
        <ele>49.153999</ele>
        <time>2023-05-05T16:03:01.181Z</time>
      </trkpt>
      <trkpt lat="47.71666" lon="-2.14435">
        <ele>48.952872</ele>
        <time>2023-05-05T16:03:05.155Z</time>
      </trkpt>
      <trkpt lat="47.71663" lon="-2.14421">
        <ele>48.896565</ele>
        <time>2023-05-05T16:03:10.170Z</time>
      </trkpt>
      <trkpt lat="47.71662" lon="-2.14404">
        <ele>48.963665</ele>
        <time>2023-05-05T16:03:14.174Z</time>
      </trkpt>
      <trkpt lat="47.71662" lon="-2.14388">
        <ele>49.02765</ele>
        <time>2023-05-05T16:03:17.168Z</time>
      </trkpt>
      <trkpt lat="47.7166" lon="-2.14371">
        <ele>49.097258</ele>
        <time>2023-05-05T16:03:21.165Z</time>
      </trkpt>
      <trkpt lat="47.71658" lon="-2.14354">
        <ele>49.167664</ele>
        <time>2023-05-05T16:03:25.166Z</time>
      </trkpt>
      <trkpt lat="47.71656" lon="-2.14337">
        <ele>49.236781</ele>
        <time>2023-05-05T16:03:29.165Z</time>
      </trkpt>
      <trkpt lat="47.71654" lon="-2.14321">
        <ele>49.301554</ele>
        <time>2023-05-05T16:03:32.165Z</time>
      </trkpt>
      <trkpt lat="47.71652" lon="-2.14306">
        <ele>49.363549</ele>
        <time>2023-05-05T16:03:35.175Z</time>
      </trkpt>
      <trkpt lat="47.71651" lon="-2.14291">
        <ele>49.420939</ele>
        <time>2023-05-05T16:03:38.164Z</time>
      </trkpt>
      <trkpt lat="47.71648" lon="-2.14276">
        <ele>49.485067</ele>
        <time>2023-05-05T16:03:41.169Z</time>
      </trkpt>
      <trkpt lat="47.71647" lon="-2.14261">
        <ele>49.546195</ele>
        <time>2023-05-05T16:03:44.166Z</time>
      </trkpt>
      <trkpt lat="47.71645" lon="-2.14245">
        <ele>49.61097</ele>
        <time>2023-05-05T16:03:47.165Z</time>
      </trkpt>
      <trkpt lat="47.71641" lon="-2.14226">
        <ele>49.689086</ele>
        <time>2023-05-05T16:03:50.170Z</time>
      </trkpt>
      <trkpt lat="47.71638" lon="-2.14211">
        <ele>49.753709</ele>
        <time>2023-05-05T16:03:53.168Z</time>
      </trkpt>
      <trkpt lat="47.71635" lon="-2.14196">
        <ele>49.815369</ele>
        <time>2023-05-05T16:03:56.166Z</time>
      </trkpt>
      <trkpt lat="47.71632" lon="-2.1418">
        <ele>49.881888</ele>
        <time>2023-05-05T16:03:59.166Z</time>
      </trkpt>
      <trkpt lat="47.71629" lon="-2.14165">
        <ele>49.885604</ele>
        <time>2023-05-05T16:04:02.169Z</time>
      </trkpt>
      <trkpt lat="47.71626" lon="-2.1415">
        <ele>49.432757</ele>
        <time>2023-05-05T16:04:05.165Z</time>
      </trkpt>
      <trkpt lat="47.71623" lon="-2.14136">
        <ele>49.001374</ele>
        <time>2023-05-05T16:04:08.164Z</time>
      </trkpt>
      <trkpt lat="47.71619" lon="-2.14122">
        <ele>48.561375</ele>
        <time>2023-05-05T16:04:11.165Z</time>
      </trkpt>
      <trkpt lat="47.71616" lon="-2.14108">
        <ele>48.13142</ele>
        <time>2023-05-05T16:04:14.164Z</time>
      </trkpt>
      <trkpt lat="47.71613" lon="-2.14093">
        <ele>47.673843</ele>
        <time>2023-05-05T16:04:17.169Z</time>
      </trkpt>
      <trkpt lat="47.71611" lon="-2.14079">
        <ele>47.257055</ele>
        <time>2023-05-05T16:04:20.167Z</time>
      </trkpt>
      <trkpt lat="47.71609" lon="-2.14066">
        <ele>46.863918</ele>
        <time>2023-05-05T16:04:23.163Z</time>
      </trkpt>
      <trkpt lat="47.71606" lon="-2.14052">
        <ele>46.44237</ele>
        <time>2023-05-05T16:04:26.167Z</time>
      </trkpt>
      <trkpt lat="47.71604" lon="-2.14037">
        <ele>46.011331</ele>
        <time>2023-05-05T16:04:29.171Z</time>
      </trkpt>
      <trkpt lat="47.71601" lon="-2.14024">
        <ele>45.61018</ele>
        <time>2023-05-05T16:04:32.169Z</time>
      </trkpt>
      <trkpt lat="47.71597" lon="-2.1401">
        <ele>45.160956</ele>
        <time>2023-05-05T16:04:35.165Z</time>
      </trkpt>
      <trkpt lat="47.71595" lon="-2.13994">
        <ele>44.678977</ele>
        <time>2023-05-05T16:04:38.169Z</time>
      </trkpt>
      <trkpt lat="47.71593" lon="-2.1398">
        <ele>44.284897</ele>
        <time>2023-05-05T16:04:41.163Z</time>
      </trkpt>
      <trkpt lat="47.7159" lon="-2.13963">
        <ele>43.77204</ele>
        <time>2023-05-05T16:04:44.186Z</time>
      </trkpt>
      <trkpt lat="47.71589" lon="-2.1395">
        <ele>43.383292</ele>
        <time>2023-05-05T16:04:47.169Z</time>
      </trkpt>
      <trkpt lat="47.71587" lon="-2.13934">
        <ele>42.933109</ele>
        <time>2023-05-05T16:04:50.168Z</time>
      </trkpt>
      <trkpt lat="47.71585" lon="-2.13919">
        <ele>42.480788</ele>
        <time>2023-05-05T16:04:53.172Z</time>
      </trkpt>
      <trkpt lat="47.71583" lon="-2.13904">
        <ele>42.300203</ele>
        <time>2023-05-05T16:04:56.157Z</time>
      </trkpt>
      <trkpt lat="47.7158" lon="-2.13889">
        <ele>42.626612</ele>
        <time>2023-05-05T16:04:59.168Z</time>
      </trkpt>
      <trkpt lat="47.71577" lon="-2.13873">
        <ele>42.960222</ele>
        <time>2023-05-05T16:05:02.170Z</time>
      </trkpt>
      <trkpt lat="47.71574" lon="-2.13856">
        <ele>43.331008</ele>
        <time>2023-05-05T16:05:05.170Z</time>
      </trkpt>
      <trkpt lat="47.71572" lon="-2.13843">
        <ele>43.606698</ele>
        <time>2023-05-05T16:05:07.160Z</time>
      </trkpt>
      <trkpt lat="47.7157" lon="-2.13827">
        <ele>43.950571</ele>
        <time>2023-05-05T16:05:10.167Z</time>
      </trkpt>
      <trkpt lat="47.71568" lon="-2.13809">
        <ele>44.308936</ele>
        <time>2023-05-05T16:05:13.167Z</time>
      </trkpt>
      <trkpt lat="47.71567" lon="-2.13794">
        <ele>44.628424</ele>
        <time>2023-05-05T16:05:16.171Z</time>
      </trkpt>
      <trkpt lat="47.71564" lon="-2.13781">
        <ele>44.91368</ele>
        <time>2023-05-05T16:05:20.171Z</time>
      </trkpt>
      <trkpt lat="47.71561" lon="-2.13767">
        <ele>45.222474</ele>
        <time>2023-05-05T16:05:23.172Z</time>
      </trkpt>
      <trkpt lat="47.71558" lon="-2.1375">
        <ele>45.585621</ele>
        <time>2023-05-05T16:05:26.166Z</time>
      </trkpt>
      <trkpt lat="47.71554" lon="-2.13731">
        <ele>45.997604</ele>
        <time>2023-05-05T16:05:29.165Z</time>
      </trkpt>
      <trkpt lat="47.71552" lon="-2.13712">
        <ele>46.38061</ele>
        <time>2023-05-05T16:05:33.167Z</time>
      </trkpt>
      <trkpt lat="47.71551" lon="-2.13698">
        <ele>46.690194</ele>
        <time>2023-05-05T16:05:36.168Z</time>
      </trkpt>
      <trkpt lat="47.71549" lon="-2.1368">
        <ele>47.062068</ele>
        <time>2023-05-05T16:05:39.165Z</time>
      </trkpt>
      <trkpt lat="47.71548" lon="-2.13663">
        <ele>47.413913</ele>
        <time>2023-05-05T16:05:42.171Z</time>
      </trkpt>
      <trkpt lat="47.71547" lon="-2.13645">
        <ele>47.786966</ele>
        <time>2023-05-05T16:05:45.167Z</time>
      </trkpt>
      <trkpt lat="47.71543" lon="-2.1363">
        <ele>48.091027</ele>
        <time>2023-05-05T16:05:48.178Z</time>
      </trkpt>
      <trkpt lat="47.7154" lon="-2.13616">
        <ele>48.360787</ele>
        <time>2023-05-05T16:05:50.166Z</time>
      </trkpt>
      <trkpt lat="47.7154" lon="-2.13602">
        <ele>48.625282</ele>
        <time>2023-05-05T16:05:53.170Z</time>
      </trkpt>
      <trkpt lat="47.71537" lon="-2.13586">
        <ele>48.9497</ele>
        <time>2023-05-05T16:05:57.169Z</time>
      </trkpt>
      <trkpt lat="47.71535" lon="-2.1357">
        <ele>49.256524</ele>
        <time>2023-05-05T16:06:00.163Z</time>
      </trkpt>
      <trkpt lat="47.71533" lon="-2.13553">
        <ele>49.577601</ele>
        <time>2023-05-05T16:06:03.163Z</time>
      </trkpt>
      <trkpt lat="47.71531" lon="-2.13536">
        <ele>49.904981</ele>
        <time>2023-05-05T16:06:06.167Z</time>
      </trkpt>
      <trkpt lat="47.7153" lon="-2.13522">
        <ele>50.175687</ele>
        <time>2023-05-05T16:06:09.168Z</time>
      </trkpt>
      <trkpt lat="47.71527" lon="-2.13507">
        <ele>50.482512</ele>
        <time>2023-05-05T16:06:13.164Z</time>
      </trkpt>
      <trkpt lat="47.71525" lon="-2.1349">
        <ele>50.817281</ele>
        <time>2023-05-05T16:06:17.165Z</time>
      </trkpt>
      <trkpt lat="47.71522" lon="-2.13476">
        <ele>51.085218</ele>
        <time>2023-05-05T16:06:20.172Z</time>
      </trkpt>
      <trkpt lat="47.7152" lon="-2.13463">
        <ele>51.344852</ele>
        <time>2023-05-05T16:06:23.167Z</time>
      </trkpt>
      <trkpt lat="47.71518" lon="-2.13449">
        <ele>51.620618</ele>
        <time>2023-05-05T16:06:26.168Z</time>
      </trkpt>
      <trkpt lat="47.71515" lon="-2.13435">
        <ele>51.894274</ele>
        <time>2023-05-05T16:06:29.173Z</time>
      </trkpt>
      <trkpt lat="47.71511" lon="-2.13421">
        <ele>52.177244</ele>
        <time>2023-05-05T16:06:32.168Z</time>
      </trkpt>
      <trkpt lat="47.71508" lon="-2.13404">
        <ele>52.516946</ele>
        <time>2023-05-05T16:06:36.165Z</time>
      </trkpt>
      <trkpt lat="47.71507" lon="-2.13387">
        <ele>52.787649</ele>
        <time>2023-05-05T16:06:40.165Z</time>
      </trkpt>
      <trkpt lat="47.71506" lon="-2.13372">
        <ele>52.441583</ele>
        <time>2023-05-05T16:06:43.170Z</time>
      </trkpt>
      <trkpt lat="47.71504" lon="-2.13357">
        <ele>52.092676</ele>
        <time>2023-05-05T16:06:46.164Z</time>
      </trkpt>
      <trkpt lat="47.71502" lon="-2.13342">
        <ele>51.74024</ele>
        <time>2023-05-05T16:06:49.173Z</time>
      </trkpt>
      <trkpt lat="47.71498" lon="-2.13325">
        <ele>51.356765</ele>
        <time>2023-05-05T16:06:52.165Z</time>
      </trkpt>
      <trkpt lat="47.71496" lon="-2.13312">
        <ele>51.038075</ele>
        <time>2023-05-05T16:06:55.167Z</time>
      </trkpt>
      <trkpt lat="47.71494" lon="-2.13297">
        <ele>50.700949</ele>
        <time>2023-05-05T16:06:58.172Z</time>
      </trkpt>
      <trkpt lat="47.71491" lon="-2.13282">
        <ele>50.338927</ele>
        <time>2023-05-05T16:07:01.170Z</time>
      </trkpt>
      <trkpt lat="47.7149" lon="-2.13267">
        <ele>49.998987</ele>
        <time>2023-05-05T16:07:04.172Z</time>
      </trkpt>
      <trkpt lat="47.71488" lon="-2.13252">
        <ele>49.658352</ele>
        <time>2023-05-05T16:07:07.166Z</time>
      </trkpt>
      <trkpt lat="47.71485" lon="-2.13237">
        <ele>49.292946</ele>
        <time>2023-05-05T16:07:10.172Z</time>
      </trkpt>
      <trkpt lat="47.71483" lon="-2.13223">
        <ele>48.964751</ele>
        <time>2023-05-05T16:07:13.175Z</time>
      </trkpt>
      <trkpt lat="47.71481" lon="-2.13207">
        <ele>48.61421</ele>
        <time>2023-05-05T16:07:16.177Z</time>
      </trkpt>
      <trkpt lat="47.7148" lon="-2.13192">
        <ele>48.251794</ele>
        <time>2023-05-05T16:07:19.174Z</time>
      </trkpt>
      <trkpt lat="47.71477" lon="-2.13176">
        <ele>47.881101</ele>
        <time>2023-05-05T16:07:22.166Z</time>
      </trkpt>
      <trkpt lat="47.71474" lon="-2.1316">
        <ele>47.513046</ele>
        <time>2023-05-05T16:07:25.172Z</time>
      </trkpt>
      <trkpt lat="47.71472" lon="-2.13146">
        <ele>47.177468</ele>
        <time>2023-05-05T16:07:28.171Z</time>
      </trkpt>
      <trkpt lat="47.7147" lon="-2.13131">
        <ele>46.833924</ele>
        <time>2023-05-05T16:07:31.173Z</time>
      </trkpt>
      <trkpt lat="47.71468" lon="-2.13117">
        <ele>46.800829</ele>
        <time>2023-05-05T16:07:34.168Z</time>
      </trkpt>
      <trkpt lat="47.71464" lon="-2.13103">
        <ele>46.874972</ele>
        <time>2023-05-05T16:07:37.165Z</time>
      </trkpt>
      <trkpt lat="47.71461" lon="-2.13086">
        <ele>46.961732</ele>
        <time>2023-05-05T16:07:41.167Z</time>
      </trkpt>
      <trkpt lat="47.71459" lon="-2.13069">
        <ele>47.050158</ele>
        <time>2023-05-05T16:07:44.168Z</time>
      </trkpt>
      <trkpt lat="47.71456" lon="-2.13053">
        <ele>47.13328</ele>
        <time>2023-05-05T16:07:47.162Z</time>
      </trkpt>
      <trkpt lat="47.71453" lon="-2.13037">
        <ele>47.21138</ele>
        <time>2023-05-05T16:07:50.167Z</time>
      </trkpt>
      <trkpt lat="47.71449" lon="-2.13023">
        <ele>47.290223</ele>
        <time>2023-05-05T16:07:53.167Z</time>
      </trkpt>
      <trkpt lat="47.71446" lon="-2.13008">
        <ele>47.366279</ele>
        <time>2023-05-05T16:07:56.172Z</time>
      </trkpt>
      <trkpt lat="47.71444" lon="-2.12991">
        <ele>47.452281</ele>
        <time>2023-05-05T16:07:59.159Z</time>
      </trkpt>
      <trkpt lat="47.71439" lon="-2.12977">
        <ele>47.528164</ele>
        <time>2023-05-05T16:08:02.170Z</time>
      </trkpt>
      <trkpt lat="47.71437" lon="-2.12964">
        <ele>47.597155</ele>
        <time>2023-05-05T16:08:05.165Z</time>
      </trkpt>
      <trkpt lat="47.71435" lon="-2.12949">
        <ele>47.672561</ele>
        <time>2023-05-05T16:08:08.168Z</time>
      </trkpt>
      <trkpt lat="47.71435" lon="-2.12934">
        <ele>47.746404</ele>
        <time>2023-05-05T16:08:11.165Z</time>
      </trkpt>
      <trkpt lat="47.71433" lon="-2.12919">
        <ele>47.822025</ele>
        <time>2023-05-05T16:08:14.167Z</time>
      </trkpt>
      <trkpt lat="47.71432" lon="-2.12904">
        <ele>47.896669</ele>
        <time>2023-05-05T16:08:17.167Z</time>
      </trkpt>
      <trkpt lat="47.71431" lon="-2.12887">
        <ele>47.978298</ele>
        <time>2023-05-05T16:08:20.168Z</time>
      </trkpt>
      <trkpt lat="47.7143" lon="-2.12872">
        <ele>48.054649</ele>
        <time>2023-05-05T16:08:23.165Z</time>
      </trkpt>
      <trkpt lat="47.71428" lon="-2.12857">
        <ele>47.977457</ele>
        <time>2023-05-05T16:08:26.167Z</time>
      </trkpt>
      <trkpt lat="47.71427" lon="-2.12843">
        <ele>47.865856</ele>
        <time>2023-05-05T16:08:29.179Z</time>
      </trkpt>
      <trkpt lat="47.71425" lon="-2.12827">
        <ele>47.744238</ele>
        <time>2023-05-05T16:08:32.175Z</time>
      </trkpt>
      <trkpt lat="47.71423" lon="-2.12814">
        <ele>47.636676</ele>
        <time>2023-05-05T16:08:35.167Z</time>
      </trkpt>
      <trkpt lat="47.71421" lon="-2.128">
        <ele>47.527393</ele>
        <time>2023-05-05T16:08:38.167Z</time>
      </trkpt>
      <trkpt lat="47.71418" lon="-2.12787">
        <ele>47.418627</ele>
        <time>2023-05-05T16:08:41.167Z</time>
      </trkpt>
      <trkpt lat="47.71416" lon="-2.12773">
        <ele>47.305112</ele>
        <time>2023-05-05T16:08:44.168Z</time>
      </trkpt>
      <trkpt lat="47.71413" lon="-2.12758">
        <ele>47.185729</ele>
        <time>2023-05-05T16:08:47.169Z</time>
      </trkpt>
      <trkpt lat="47.7141" lon="-2.12744">
        <ele>47.065832</ele>
        <time>2023-05-05T16:08:50.167Z</time>
      </trkpt>
      <trkpt lat="47.71406" lon="-2.12728">
        <ele>46.940374</ele>
        <time>2023-05-05T16:08:53.169Z</time>
      </trkpt>
      <trkpt lat="47.71405" lon="-2.12714">
        <ele>46.827037</ele>
        <time>2023-05-05T16:08:56.156Z</time>
      </trkpt>
      <trkpt lat="47.71403" lon="-2.127">
        <ele>46.718627</ele>
        <time>2023-05-05T16:08:59.164Z</time>
      </trkpt>
      <trkpt lat="47.71401" lon="-2.12686">
        <ele>46.605915</ele>
        <time>2023-05-05T16:09:02.168Z</time>
      </trkpt>
      <trkpt lat="47.71397" lon="-2.12671">
        <ele>46.482378</ele>
        <time>2023-05-05T16:09:05.168Z</time>
      </trkpt>
      <trkpt lat="47.71395" lon="-2.12653">
        <ele>46.340979</ele>
        <time>2023-05-05T16:09:08.171Z</time>
      </trkpt>
      <trkpt lat="47.71392" lon="-2.12637">
        <ele>46.209953</ele>
        <time>2023-05-05T16:09:11.168Z</time>
      </trkpt>
      <trkpt lat="47.71388" lon="-2.12621">
        <ele>46.077134</ele>
        <time>2023-05-05T16:09:14.166Z</time>
      </trkpt>
      <trkpt lat="47.71385" lon="-2.12609">
        <ele>46.026875</ele>
        <time>2023-05-05T16:09:17.167Z</time>
      </trkpt>
      <trkpt lat="47.71383" lon="-2.12594">
        <ele>46.354006</ele>
        <time>2023-05-05T16:09:21.161Z</time>
      </trkpt>
      <trkpt lat="47.7138" lon="-2.1258">
        <ele>46.666028</ele>
        <time>2023-05-05T16:09:25.166Z</time>
      </trkpt>
      <trkpt lat="47.71377" lon="-2.12564">
        <ele>47.023047</ele>
        <time>2023-05-05T16:09:29.171Z</time>
      </trkpt>
      <trkpt lat="47.71376" lon="-2.12551">
        <ele>47.324593</ele>
        <time>2023-05-05T16:09:32.173Z</time>
      </trkpt>
      <trkpt lat="47.71375" lon="-2.12536">
        <ele>47.636478</ele>
        <time>2023-05-05T16:09:35.160Z</time>
      </trkpt>
      <trkpt lat="47.71373" lon="-2.12523">
        <ele>47.945089</ele>
        <time>2023-05-05T16:09:38.168Z</time>
      </trkpt>
      <trkpt lat="47.71371" lon="-2.12507">
        <ele>48.288286</ele>
        <time>2023-05-05T16:09:41.169Z</time>
      </trkpt>
      <trkpt lat="47.71367" lon="-2.12492">
        <ele>48.632316</ele>
        <time>2023-05-05T16:09:44.164Z</time>
      </trkpt>
      <trkpt lat="47.71364" lon="-2.12478">
        <ele>48.961076</ele>
        <time>2023-05-05T16:09:47.165Z</time>
      </trkpt>
      <trkpt lat="47.7136" lon="-2.12465">
        <ele>49.274682</ele>
        <time>2023-05-05T16:09:50.169Z</time>
      </trkpt>
      <trkpt lat="47.71355" lon="-2.12453">
        <ele>49.583041</ele>
        <time>2023-05-05T16:09:53.165Z</time>
      </trkpt>
      <trkpt lat="47.71349" lon="-2.12443">
        <ele>49.875837</ele>
        <time>2023-05-05T16:09:56.173Z</time>
      </trkpt>
      <trkpt lat="47.71342" lon="-2.12433">
        <ele>50.189776</ele>
        <time>2023-05-05T16:09:59.162Z</time>
      </trkpt>
      <trkpt lat="47.71335" lon="-2.12425">
        <ele>50.490154</ele>
        <time>2023-05-05T16:10:02.168Z</time>
      </trkpt>
      <trkpt lat="47.71325" lon="-2.12417">
        <ele>50.839707</ele>
        <time>2023-05-05T16:10:06.170Z</time>
      </trkpt>
      <trkpt lat="47.71317" lon="-2.12409">
        <ele>51.166129</ele>
        <time>2023-05-05T16:10:10.165Z</time>
      </trkpt>
      <trkpt lat="47.71307" lon="-2.124">
        <ele>51.524506</ele>
        <time>2023-05-05T16:10:14.158Z</time>
      </trkpt>
      <trkpt lat="47.713" lon="-2.12392">
        <ele>51.825963</ele>
        <time>2023-05-05T16:10:17.160Z</time>
      </trkpt>
      <trkpt lat="47.71291" lon="-2.12384">
        <ele>52.062692</ele>
        <time>2023-05-05T16:10:20.165Z</time>
      </trkpt>
      <trkpt lat="47.71283" lon="-2.12377">
        <ele>52.298231</ele>
        <time>2023-05-05T16:10:23.167Z</time>
      </trkpt>
      <trkpt lat="47.71275" lon="-2.12367">
        <ele>52.563698</ele>
        <time>2023-05-05T16:10:27.162Z</time>
      </trkpt>
      <trkpt lat="47.71265" lon="-2.12358">
        <ele>52.840563</ele>
        <time>2023-05-05T16:10:31.163Z</time>
      </trkpt>
      <trkpt lat="47.71257" lon="-2.12347">
        <ele>53.106245</ele>
        <time>2023-05-05T16:10:35.160Z</time>
      </trkpt>
      <trkpt lat="47.71249" lon="-2.12336">
        <ele>53.374904</ele>
        <time>2023-05-05T16:10:39.154Z</time>
      </trkpt>
      <trkpt lat="47.71243" lon="-2.12324">
        <ele>53.622794</ele>
        <time>2023-05-05T16:10:43.164Z</time>
      </trkpt>
      <trkpt lat="47.71235" lon="-2.12312">
        <ele>53.906215</ele>
        <time>2023-05-05T16:10:48.178Z</time>
      </trkpt>
      <trkpt lat="47.71229" lon="-2.12301">
        <ele>54.136473</ele>
        <time>2023-05-05T16:10:52.169Z</time>
      </trkpt>
      <trkpt lat="47.71223" lon="-2.12291">
        <ele>54.365124</ele>
        <time>2023-05-05T16:10:55.168Z</time>
      </trkpt>
      <trkpt lat="47.71216" lon="-2.12279">
        <ele>54.621952</ele>
        <time>2023-05-05T16:10:59.167Z</time>
      </trkpt>
      <trkpt lat="47.71208" lon="-2.12266">
        <ele>54.913656</ele>
        <time>2023-05-05T16:11:03.163Z</time>
      </trkpt>
      <trkpt lat="47.71201" lon="-2.12255">
        <ele>55.154575</ele>
        <time>2023-05-05T16:11:07.164Z</time>
      </trkpt>
      <trkpt lat="47.71196" lon="-2.12242">
        <ele>55.409356</ele>
        <time>2023-05-05T16:11:10.162Z</time>
      </trkpt>
      <trkpt lat="47.7119" lon="-2.12229">
        <ele>55.661533</ele>
        <time>2023-05-05T16:11:14.160Z</time>
      </trkpt>
      <trkpt lat="47.71182" lon="-2.12219">
        <ele>55.914446</ele>
        <time>2023-05-05T16:11:18.179Z</time>
      </trkpt>
      <trkpt lat="47.71176" lon="-2.12208">
        <ele>56.14347</ele>
        <time>2023-05-05T16:11:21.162Z</time>
      </trkpt>
      <trkpt lat="47.71169" lon="-2.12195">
        <ele>56.297664</ele>
        <time>2023-05-05T16:11:25.167Z</time>
      </trkpt>
      <trkpt lat="47.71162" lon="-2.12183">
        <ele>56.402373</ele>
        <time>2023-05-05T16:11:29.167Z</time>
      </trkpt>
      <trkpt lat="47.71157" lon="-2.12171">
        <ele>56.495405</ele>
        <time>2023-05-05T16:11:32.163Z</time>
      </trkpt>
      <trkpt lat="47.71152" lon="-2.12159">
        <ele>56.588437</ele>
        <time>2023-05-05T16:11:35.166Z</time>
      </trkpt>
      <trkpt lat="47.71144" lon="-2.12145">
        <ele>56.707366</ele>
        <time>2023-05-05T16:11:39.176Z</time>
      </trkpt>
      <trkpt lat="47.71136" lon="-2.12136">
        <ele>56.801587</ele>
        <time>2023-05-05T16:11:42.173Z</time>
      </trkpt>
      <trkpt lat="47.71128" lon="-2.12125">
        <ele>56.909823</ele>
        <time>2023-05-05T16:11:45.156Z</time>
      </trkpt>
      <trkpt lat="47.71122" lon="-2.12112">
        <ele>57.009463</ele>
        <time>2023-05-05T16:11:48.157Z</time>
      </trkpt>
      <trkpt lat="47.71116" lon="-2.12101">
        <ele>57.101388</ele>
        <time>2023-05-05T16:11:51.169Z</time>
      </trkpt>
      <trkpt lat="47.71109" lon="-2.1209">
        <ele>57.205902</ele>
        <time>2023-05-05T16:11:55.154Z</time>
      </trkpt>
      <trkpt lat="47.71102" lon="-2.12079">
        <ele>57.302373</ele>
        <time>2023-05-05T16:11:58.165Z</time>
      </trkpt>
      <trkpt lat="47.71095" lon="-2.12067">
        <ele>57.402405</ele>
        <time>2023-05-05T16:12:01.167Z</time>
      </trkpt>
      <trkpt lat="47.71089" lon="-2.12054">
        <ele>57.507429</ele>
        <time>2023-05-05T16:12:04.164Z</time>
      </trkpt>
      <trkpt lat="47.71081" lon="-2.12043">
        <ele>57.61059</ele>
        <time>2023-05-05T16:12:07.163Z</time>
      </trkpt>
      <trkpt lat="47.71074" lon="-2.12029">
        <ele>57.725006</ele>
        <time>2023-05-05T16:12:11.162Z</time>
      </trkpt>
      <trkpt lat="47.71067" lon="-2.12019">
        <ele>57.820585</ele>
        <time>2023-05-05T16:12:14.168Z</time>
      </trkpt>
      <trkpt lat="47.71061" lon="-2.12008">
        <ele>57.915359</ele>
        <time>2023-05-05T16:12:17.164Z</time>
      </trkpt>
      <trkpt lat="47.71053" lon="-2.11996">
        <ele>57.969898</ele>
        <time>2023-05-05T16:12:21.165Z</time>
      </trkpt>
      <trkpt lat="47.71045" lon="-2.11987">
        <ele>57.985569</ele>
        <time>2023-05-05T16:12:25.168Z</time>
      </trkpt>
      <trkpt lat="47.71037" lon="-2.11978">
        <ele>58.001979</ele>
        <time>2023-05-05T16:12:30.164Z</time>
      </trkpt>
      <trkpt lat="47.71027" lon="-2.11972">
        <ele>58.018764</ele>
        <time>2023-05-05T16:12:35.161Z</time>
      </trkpt>
      <trkpt lat="47.71018" lon="-2.11966">
        <ele>58.033888</ele>
        <time>2023-05-05T16:12:39.164Z</time>
      </trkpt>
      <trkpt lat="47.71008" lon="-2.11961">
        <ele>58.049577</ele>
        <time>2023-05-05T16:12:44.166Z</time>
      </trkpt>
      <trkpt lat="47.67616" lon="-2.09314">
        <ele>58.11617</ele>
        <time>2023-05-05T16:41:05.165Z</time>
      </trkpt>
      <trkpt lat="47.67605" lon="-2.09313">
        <ele>57.574341</ele>
        <time>2023-05-05T16:41:07.173Z</time>
      </trkpt>
      <trkpt lat="47.67594" lon="-2.09313">
        <ele>56.989049</ele>
        <time>2023-05-05T16:48:24.175Z</time>
      </trkpt>
      <trkpt lat="47.67584" lon="-2.09301">
        <ele>56.325518</ele>
        <time>2023-05-05T16:50:33.165Z</time>
      </trkpt>
      <trkpt lat="47.67577" lon="-2.09291">
        <ele>55.845209</ele>
        <time>2023-05-05T16:50:39.168Z</time>
      </trkpt>
      <trkpt lat="47.67561" lon="-2.09274">
        <ele>54.820947</ele>
        <time>2023-05-05T16:51:02.173Z</time>
      </trkpt>
      <trkpt lat="47.67551" lon="-2.09264">
        <ele>54.579425</ele>
        <time>2023-05-05T16:51:06.176Z</time>
      </trkpt>
      <trkpt lat="47.67541" lon="-2.09255">
        <ele>54.512325</ele>
        <time>2023-05-05T16:51:10.155Z</time>
      </trkpt>
      <trkpt lat="47.67531" lon="-2.09247">
        <ele>54.449224</ele>
        <time>2023-05-05T16:51:13.173Z</time>
      </trkpt>
      <trkpt lat="47.67523" lon="-2.09238">
        <ele>54.390459</ele>
        <time>2023-05-05T16:51:16.172Z</time>
      </trkpt>
      <trkpt lat="47.67514" lon="-2.09228">
        <ele>54.329769</ele>
        <time>2023-05-05T16:51:19.171Z</time>
      </trkpt>
      <trkpt lat="47.67505" lon="-2.09217">
        <ele>54.264994</ele>
        <time>2023-05-05T16:51:22.166Z</time>
      </trkpt>
      <trkpt lat="47.67497" lon="-2.09208">
        <ele>54.206476</ele>
        <time>2023-05-05T16:51:25.176Z</time>
      </trkpt>
      <trkpt lat="47.67489" lon="-2.09199">
        <ele>54.153625</ele>
        <time>2023-05-05T16:51:28.170Z</time>
      </trkpt>
      <trkpt lat="47.67482" lon="-2.09189">
        <ele>54.098348</ele>
        <time>2023-05-05T16:51:31.177Z</time>
      </trkpt>
      <trkpt lat="47.67475" lon="-2.09179">
        <ele>54.043741</ele>
        <time>2023-05-05T16:51:34.177Z</time>
      </trkpt>
      <trkpt lat="47.67467" lon="-2.09167">
        <ele>53.979335</ele>
        <time>2023-05-05T16:51:38.174Z</time>
      </trkpt>
      <trkpt lat="47.67459" lon="-2.09157">
        <ele>53.922815</ele>
        <time>2023-05-05T16:51:42.173Z</time>
      </trkpt>
      <trkpt lat="47.67453" lon="-2.09147">
        <ele>53.869773</ele>
        <time>2023-05-05T16:51:45.168Z</time>
      </trkpt>
      <trkpt lat="47.67444" lon="-2.09138">
        <ele>53.811056</ele>
        <time>2023-05-05T16:51:48.168Z</time>
      </trkpt>
      <trkpt lat="47.67436" lon="-2.0913">
        <ele>53.754404</ele>
        <time>2023-05-05T16:51:51.163Z</time>
      </trkpt>
      <trkpt lat="47.67427" lon="-2.09119">
        <ele>53.689093</ele>
        <time>2023-05-05T16:51:55.161Z</time>
      </trkpt>
      <trkpt lat="47.67417" lon="-2.09108">
        <ele>53.622745</ele>
        <time>2023-05-05T16:51:59.165Z</time>
      </trkpt>
      <trkpt lat="47.67407" lon="-2.09097">
        <ele>53.665067</ele>
        <time>2023-05-05T16:52:03.158Z</time>
      </trkpt>
      <trkpt lat="47.674" lon="-2.09088">
        <ele>53.703931</ele>
        <time>2023-05-05T16:52:06.158Z</time>
      </trkpt>
      <trkpt lat="47.67392" lon="-2.09079">
        <ele>53.747567</ele>
        <time>2023-05-05T16:52:09.166Z</time>
      </trkpt>
      <trkpt lat="47.67384" lon="-2.09071">
        <ele>53.789864</ele>
        <time>2023-05-05T16:52:12.163Z</time>
      </trkpt>
      <trkpt lat="47.67375" lon="-2.09062">
        <ele>53.833332</ele>
        <time>2023-05-05T16:52:15.177Z</time>
      </trkpt>
      <trkpt lat="47.67367" lon="-2.09053">
        <ele>53.875783</ele>
        <time>2023-05-05T16:52:18.175Z</time>
      </trkpt>
      <trkpt lat="47.67358" lon="-2.09044">
        <ele>53.921694</ele>
        <time>2023-05-05T16:52:21.173Z</time>
      </trkpt>
      <trkpt lat="47.6735" lon="-2.09034">
        <ele>53.968226</ele>
        <time>2023-05-05T16:52:24.166Z</time>
      </trkpt>
      <trkpt lat="47.67342" lon="-2.09025">
        <ele>54.011188</ele>
        <time>2023-05-05T16:52:27.159Z</time>
      </trkpt>
      <trkpt lat="47.67334" lon="-2.09016">
        <ele>54.05397</ele>
        <time>2023-05-05T16:52:30.172Z</time>
      </trkpt>
      <trkpt lat="47.67325" lon="-2.09008">
        <ele>54.096415</ele>
        <time>2023-05-05T16:52:33.168Z</time>
      </trkpt>
      <trkpt lat="47.67318" lon="-2.09">
        <ele>54.134937</ele>
        <time>2023-05-05T16:52:36.165Z</time>
      </trkpt>
      <trkpt lat="47.67311" lon="-2.08992">
        <ele>54.174312</ele>
        <time>2023-05-05T16:52:39.174Z</time>
      </trkpt>
      <trkpt lat="47.67303" lon="-2.08983">
        <ele>54.215567</ele>
        <time>2023-05-05T16:52:42.166Z</time>
      </trkpt>
      <trkpt lat="47.67295" lon="-2.08975">
        <ele>54.257679</ele>
        <time>2023-05-05T16:52:45.177Z</time>
      </trkpt>
      <trkpt lat="47.67285" lon="-2.08964">
        <ele>54.306946</ele>
        <time>2023-05-05T16:52:49.174Z</time>
      </trkpt>
      <trkpt lat="47.67278" lon="-2.08956">
        <ele>54.346844</ele>
        <time>2023-05-05T16:52:52.176Z</time>
      </trkpt>
      <trkpt lat="47.67271" lon="-2.08947">
        <ele>54.339488</ele>
        <time>2023-05-05T16:52:55.176Z</time>
      </trkpt>
      <trkpt lat="47.67263" lon="-2.08938">
        <ele>54.061</ele>
        <time>2023-05-05T16:52:58.173Z</time>
      </trkpt>
      <trkpt lat="47.67256" lon="-2.08929">
        <ele>53.804458</ele>
        <time>2023-05-05T16:53:01.180Z</time>
      </trkpt>
      <trkpt lat="47.67248" lon="-2.0892">
        <ele>53.527078</ele>
        <time>2023-05-05T16:53:04.171Z</time>
      </trkpt>
      <trkpt lat="47.6724" lon="-2.08912">
        <ele>53.264296</ele>
        <time>2023-05-05T16:53:07.166Z</time>
      </trkpt>
      <trkpt lat="47.67233" lon="-2.08903">
        <ele>52.99587</ele>
        <time>2023-05-05T16:53:10.175Z</time>
      </trkpt>
      <trkpt lat="47.67224" lon="-2.08894">
        <ele>52.702471</ele>
        <time>2023-05-05T16:53:13.177Z</time>
      </trkpt>
      <trkpt lat="47.67216" lon="-2.08885">
        <ele>52.413874</ele>
        <time>2023-05-05T16:53:16.172Z</time>
      </trkpt>
      <trkpt lat="47.67208" lon="-2.08878">
        <ele>52.153171</ele>
        <time>2023-05-05T16:53:19.176Z</time>
      </trkpt>
      <trkpt lat="47.672" lon="-2.0887">
        <ele>51.900413</ele>
        <time>2023-05-05T16:53:22.176Z</time>
      </trkpt>
      <trkpt lat="47.67191" lon="-2.08864">
        <ele>51.615447</ele>
        <time>2023-05-05T16:53:25.169Z</time>
      </trkpt>
      <trkpt lat="47.67181" lon="-2.08857">
        <ele>51.290615</ele>
        <time>2023-05-05T16:53:28.176Z</time>
      </trkpt>
      <trkpt lat="47.67172" lon="-2.08852">
        <ele>51.021815</ele>
        <time>2023-05-05T16:53:31.171Z</time>
      </trkpt>
      <trkpt lat="47.67163" lon="-2.08848">
        <ele>50.767602</ele>
        <time>2023-05-05T16:53:34.170Z</time>
      </trkpt>
      <trkpt lat="47.67152" lon="-2.08843">
        <ele>50.457982</ele>
        <time>2023-05-05T16:53:38.180Z</time>
      </trkpt>
      <trkpt lat="47.67143" lon="-2.0884">
        <ele>50.202263</ele>
        <time>2023-05-05T16:53:41.171Z</time>
      </trkpt>
      <trkpt lat="47.67133" lon="-2.08837">
        <ele>49.895254</ele>
        <time>2023-05-05T16:53:45.175Z</time>
      </trkpt>
      <trkpt lat="47.67121" lon="-2.08833">
        <ele>49.568832</ele>
        <time>2023-05-05T16:53:49.171Z</time>
      </trkpt>
      <trkpt lat="47.67109" lon="-2.08832">
        <ele>49.399409</ele>
        <time>2023-05-05T16:53:53.169Z</time>
      </trkpt>
      <trkpt lat="47.671" lon="-2.08831">
        <ele>49.510349</ele>
        <time>2023-05-05T16:53:56.172Z</time>
      </trkpt>
      <trkpt lat="47.6709" lon="-2.08831">
        <ele>49.619801</ele>
        <time>2023-05-05T16:53:59.177Z</time>
      </trkpt>
      <trkpt lat="47.6708" lon="-2.08831">
        <ele>49.736228</ele>
        <time>2023-05-05T16:54:02.174Z</time>
      </trkpt>
      <trkpt lat="47.6707" lon="-2.08831">
        <ele>49.851514</ele>
        <time>2023-05-05T16:54:05.171Z</time>
      </trkpt>
      <trkpt lat="47.67061" lon="-2.08833">
        <ele>49.964906</ele>
        <time>2023-05-05T16:54:08.173Z</time>
      </trkpt>
      <trkpt lat="47.67051" lon="-2.08835">
        <ele>50.077235</ele>
        <time>2023-05-05T16:54:11.165Z</time>
      </trkpt>
      <trkpt lat="47.67041" lon="-2.08837">
        <ele>50.194819</ele>
        <time>2023-05-05T16:54:14.167Z</time>
      </trkpt>
      <trkpt lat="47.67032" lon="-2.0884">
        <ele>50.308432</ele>
        <time>2023-05-05T16:54:17.174Z</time>
      </trkpt>
      <trkpt lat="47.67022" lon="-2.08844">
        <ele>50.420943</ele>
        <time>2023-05-05T16:54:20.166Z</time>
      </trkpt>
      <trkpt lat="47.67012" lon="-2.08848">
        <ele>50.542644</ele>
        <time>2023-05-05T16:54:23.167Z</time>
      </trkpt>
      <trkpt lat="47.67002" lon="-2.08852">
        <ele>50.662735</ele>
        <time>2023-05-05T16:54:26.167Z</time>
      </trkpt>
      <trkpt lat="47.66991" lon="-2.08858">
        <ele>50.798972</ele>
        <time>2023-05-05T16:54:30.169Z</time>
      </trkpt>
      <trkpt lat="47.6698" lon="-2.08863">
        <ele>50.935594</ele>
        <time>2023-05-05T16:54:34.173Z</time>
      </trkpt>
      <trkpt lat="47.66971" lon="-2.08868">
        <ele>51.051854</ele>
        <time>2023-05-05T16:54:37.172Z</time>
      </trkpt>
      <trkpt lat="47.66961" lon="-2.08875">
        <ele>51.171924</ele>
        <time>2023-05-05T16:54:40.170Z</time>
      </trkpt>
      <trkpt lat="47.66952" lon="-2.08881">
        <ele>51.289491</ele>
        <time>2023-05-05T16:54:43.160Z</time>
      </trkpt>
      <trkpt lat="47.66943" lon="-2.08888">
        <ele>51.404324</ele>
        <time>2023-05-05T16:54:46.167Z</time>
      </trkpt>
      <trkpt lat="47.66936" lon="-2.08896">
        <ele>51.47172</ele>
        <time>2023-05-05T16:54:49.167Z</time>
      </trkpt>
      <trkpt lat="47.66927" lon="-2.08905">
        <ele>51.521515</ele>
        <time>2023-05-05T16:54:53.166Z</time>
      </trkpt>
      <trkpt lat="47.66919" lon="-2.08914">
        <ele>51.569778</ele>
        <time>2023-05-05T16:54:57.173Z</time>
      </trkpt>
      <trkpt lat="47.66911" lon="-2.08922">
        <ele>51.615189</ele>
        <time>2023-05-05T16:55:01.172Z</time>
      </trkpt>
      <trkpt lat="47.66904" lon="-2.08935">
        <ele>51.670904</ele>
        <time>2023-05-05T16:55:06.172Z</time>
      </trkpt>
      <trkpt lat="47.66896" lon="-2.08948">
        <ele>51.723999</ele>
        <time>2023-05-05T16:55:10.175Z</time>
      </trkpt>
      <trkpt lat="47.6689" lon="-2.08958">
        <ele>51.767968</ele>
        <time>2023-05-05T16:55:13.182Z</time>
      </trkpt>
      <trkpt lat="47.66884" lon="-2.0897">
        <ele>51.814974</ele>
        <time>2023-05-05T16:55:16.167Z</time>
      </trkpt>
      <trkpt lat="47.66879" lon="-2.08982">
        <ele>51.861953</ele>
        <time>2023-05-05T16:55:19.179Z</time>
      </trkpt>
      <trkpt lat="47.6687" lon="-2.08995">
        <ele>51.91989</ele>
        <time>2023-05-05T16:55:23.172Z</time>
      </trkpt>
      <trkpt lat="47.66864" lon="-2.09008">
        <ele>51.971263</ele>
        <time>2023-05-05T16:55:26.177Z</time>
      </trkpt>
      <trkpt lat="47.66857" lon="-2.09021">
        <ele>52.023647</ele>
        <time>2023-05-05T16:55:29.178Z</time>
      </trkpt>
      <trkpt lat="47.6685" lon="-2.09035">
        <ele>52.079473</ele>
        <time>2023-05-05T16:55:32.172Z</time>
      </trkpt>
      <trkpt lat="47.66844" lon="-2.09047">
        <ele>52.126983</ele>
        <time>2023-05-05T16:55:35.175Z</time>
      </trkpt>
      <trkpt lat="47.66838" lon="-2.0906">
        <ele>52.178254</ele>
        <time>2023-05-05T16:55:38.166Z</time>
      </trkpt>
      <trkpt lat="47.6683" lon="-2.09073">
        <ele>52.235578</ele>
        <time>2023-05-05T16:55:41.172Z</time>
      </trkpt>
      <trkpt lat="47.66823" lon="-2.09087">
        <ele>52.290016</ele>
        <time>2023-05-05T16:55:44.174Z</time>
      </trkpt>
      <trkpt lat="47.66818" lon="-2.09101">
        <ele>52.476804</ele>
        <time>2023-05-05T16:55:47.177Z</time>
      </trkpt>
      <trkpt lat="47.66811" lon="-2.09114">
        <ele>52.690264</ele>
        <time>2023-05-05T16:55:50.170Z</time>
      </trkpt>
      <trkpt lat="47.66806" lon="-2.09124">
        <ele>52.867823</ele>
        <time>2023-05-05T16:55:53.174Z</time>
      </trkpt>
      <trkpt lat="47.66801" lon="-2.09137">
        <ele>53.055314</ele>
        <time>2023-05-05T16:55:56.175Z</time>
      </trkpt>
      <trkpt lat="47.66794" lon="-2.0915">
        <ele>53.270068</ele>
        <time>2023-05-05T16:55:59.174Z</time>
      </trkpt>
      <trkpt lat="47.66788" lon="-2.09163">
        <ele>53.476039</ele>
        <time>2023-05-05T16:56:02.168Z</time>
      </trkpt>
      <trkpt lat="47.66781" lon="-2.09176">
        <ele>53.695867</ele>
        <time>2023-05-05T16:56:05.175Z</time>
      </trkpt>
      <trkpt lat="47.66776" lon="-2.09187">
        <ele>53.882095</ele>
        <time>2023-05-05T16:56:09.173Z</time>
      </trkpt>
      <trkpt lat="47.66771" lon="-2.092">
        <ele>54.080404</ele>
        <time>2023-05-05T16:56:13.180Z</time>
      </trkpt>
      <trkpt lat="47.66765" lon="-2.09211">
        <ele>54.260112</ele>
        <time>2023-05-05T16:56:16.175Z</time>
      </trkpt>
      <trkpt lat="47.66759" lon="-2.09221">
        <ele>54.441792</ele>
        <time>2023-05-05T16:56:19.175Z</time>
      </trkpt>
      <trkpt lat="47.66752" lon="-2.09235">
        <ele>54.673032</ele>
        <time>2023-05-05T16:56:23.170Z</time>
      </trkpt>
      <trkpt lat="47.66747" lon="-2.09247">
        <ele>54.860384</ele>
        <time>2023-05-05T16:56:26.175Z</time>
      </trkpt>
      <trkpt lat="47.66742" lon="-2.0926">
        <ele>55.056683</ele>
        <time>2023-05-05T16:56:29.166Z</time>
      </trkpt>
      <trkpt lat="47.66737" lon="-2.09273">
        <ele>55.258519</ele>
        <time>2023-05-05T16:56:32.170Z</time>
      </trkpt>
      <trkpt lat="47.66731" lon="-2.09286">
        <ele>55.453605</ele>
        <time>2023-05-05T16:56:35.171Z</time>
      </trkpt>
      <trkpt lat="47.66725" lon="-2.09298">
        <ele>55.659704</ele>
        <time>2023-05-05T16:56:38.163Z</time>
      </trkpt>
      <trkpt lat="47.66718" lon="-2.09311">
        <ele>55.737443</ele>
        <time>2023-05-05T16:56:41.173Z</time>
      </trkpt>
      <trkpt lat="47.66711" lon="-2.09324">
        <ele>55.421984</ele>
        <time>2023-05-05T16:56:44.186Z</time>
      </trkpt>
      <trkpt lat="47.66705" lon="-2.09335">
        <ele>55.125354</ele>
        <time>2023-05-05T16:56:47.175Z</time>
      </trkpt>
      <trkpt lat="47.66699" lon="-2.09349">
        <ele>54.78959</ele>
        <time>2023-05-05T16:56:51.164Z</time>
      </trkpt>
      <trkpt lat="47.66693" lon="-2.09362">
        <ele>54.48512</ele>
        <time>2023-05-05T16:56:55.170Z</time>
      </trkpt>
      <trkpt lat="47.66686" lon="-2.09375">
        <ele>54.14911</ele>
        <time>2023-05-05T16:56:59.171Z</time>
      </trkpt>
      <trkpt lat="47.66679" lon="-2.0939">
        <ele>53.79507</ele>
        <time>2023-05-05T16:57:03.173Z</time>
      </trkpt>
      <trkpt lat="47.66675" lon="-2.09401">
        <ele>53.526396</ele>
        <time>2023-05-05T16:57:06.175Z</time>
      </trkpt>
      <trkpt lat="47.66669" lon="-2.09413">
        <ele>53.238114</ele>
        <time>2023-05-05T16:57:11.172Z</time>
      </trkpt>
      <trkpt lat="47.66662" lon="-2.09422">
        <ele>52.969455</ele>
        <time>2023-05-05T16:57:16.176Z</time>
      </trkpt>
      <trkpt lat="47.66656" lon="-2.09436">
        <ele>52.648537</ele>
        <time>2023-05-05T16:57:21.168Z</time>
      </trkpt>
      <trkpt lat="47.6665" lon="-2.09449">
        <ele>52.3191</ele>
        <time>2023-05-05T16:57:25.173Z</time>
      </trkpt>
      <trkpt lat="47.66645" lon="-2.0946">
        <ele>52.05269</ele>
        <time>2023-05-05T16:57:28.170Z</time>
      </trkpt>
      <trkpt lat="47.66638" lon="-2.09475">
        <ele>51.706865</ele>
        <time>2023-05-05T16:57:32.174Z</time>
      </trkpt>
      <trkpt lat="47.66633" lon="-2.09486">
        <ele>51.432123</ele>
        <time>2023-05-05T16:57:35.172Z</time>
      </trkpt>
      <trkpt lat="47.66626" lon="-2.095">
        <ele>51.086176</ele>
        <time>2023-05-05T16:57:39.155Z</time>
      </trkpt>
      <trkpt lat="47.6662" lon="-2.09511">
        <ele>50.807237</ele>
        <time>2023-05-05T16:57:42.173Z</time>
      </trkpt>
      <trkpt lat="47.66614" lon="-2.09522">
        <ele>50.525861</ele>
        <time>2023-05-05T16:57:45.175Z</time>
      </trkpt>
      <trkpt lat="47.66609" lon="-2.09533">
        <ele>50.47559</ele>
        <time>2023-05-05T16:57:48.169Z</time>
      </trkpt>
      <trkpt lat="47.66603" lon="-2.09547">
        <ele>50.441823</ele>
        <time>2023-05-05T16:57:52.173Z</time>
      </trkpt>
      <trkpt lat="47.66597" lon="-2.09561">
        <ele>50.409228</ele>
        <time>2023-05-05T16:57:56.148Z</time>
      </trkpt>
      <trkpt lat="47.6659" lon="-2.09573">
        <ele>50.377169</ele>
        <time>2023-05-05T16:57:59.162Z</time>
      </trkpt>
      <trkpt lat="47.66584" lon="-2.09585">
        <ele>50.347237</ele>
        <time>2023-05-05T16:58:02.167Z</time>
      </trkpt>
      <trkpt lat="47.66579" lon="-2.09598">
        <ele>50.318121</ele>
        <time>2023-05-05T16:58:05.163Z</time>
      </trkpt>
      <trkpt lat="47.66573" lon="-2.09609">
        <ele>50.288773</ele>
        <time>2023-05-05T16:58:08.163Z</time>
      </trkpt>
      <trkpt lat="47.66567" lon="-2.0962">
        <ele>50.261447</ele>
        <time>2023-05-05T16:58:11.162Z</time>
      </trkpt>
      <trkpt lat="47.66562" lon="-2.09631">
        <ele>50.233668</ele>
        <time>2023-05-05T16:58:14.167Z</time>
      </trkpt>
      <trkpt lat="47.66555" lon="-2.09642">
        <ele>50.203933</ele>
        <time>2023-05-05T16:58:17.169Z</time>
      </trkpt>
      <trkpt lat="47.6655" lon="-2.09654">
        <ele>50.174998</ele>
        <time>2023-05-05T16:58:20.170Z</time>
      </trkpt>
      <trkpt lat="47.66544" lon="-2.09666">
        <ele>50.146384</ele>
        <time>2023-05-05T16:58:23.165Z</time>
      </trkpt>
      <trkpt lat="47.66538" lon="-2.09677">
        <ele>50.11708</ele>
        <time>2023-05-05T16:58:26.169Z</time>
      </trkpt>
      <trkpt lat="47.66532" lon="-2.0969">
        <ele>50.085649</ele>
        <time>2023-05-05T16:58:29.166Z</time>
      </trkpt>
      <trkpt lat="47.66526" lon="-2.09702">
        <ele>50.054619</ele>
        <time>2023-05-05T16:58:32.167Z</time>
      </trkpt>
      <trkpt lat="47.6652" lon="-2.09715">
        <ele>50.023508</ele>
        <time>2023-05-05T16:58:35.160Z</time>
      </trkpt>
      <trkpt lat="47.66514" lon="-2.09728">
        <ele>49.99257</ele>
        <time>2023-05-05T16:58:38.168Z</time>
      </trkpt>
      <trkpt lat="47.66507" lon="-2.0974">
        <ele>49.977966</ele>
        <time>2023-05-05T16:58:41.169Z</time>
      </trkpt>
      <trkpt lat="47.665" lon="-2.09752">
        <ele>50.082985</ele>
        <time>2023-05-05T16:58:44.168Z</time>
      </trkpt>
      <trkpt lat="47.66494" lon="-2.09763">
        <ele>50.180093</ele>
        <time>2023-05-05T16:58:47.169Z</time>
      </trkpt>
      <trkpt lat="47.66487" lon="-2.09774">
        <ele>50.281046</ele>
        <time>2023-05-05T16:58:50.165Z</time>
      </trkpt>
      <trkpt lat="47.66479" lon="-2.09784">
        <ele>50.386459</ele>
        <time>2023-05-05T16:58:53.167Z</time>
      </trkpt>
      <trkpt lat="47.66471" lon="-2.09794">
        <ele>50.489373</ele>
        <time>2023-05-05T16:58:56.168Z</time>
      </trkpt>
      <trkpt lat="47.64884" lon="-2.08756">
        <ele>67.356832</ele>
        <time>2023-05-05T17:11:59.164Z</time>
      </trkpt>
      <trkpt lat="47.63805" lon="-2.09403">
        <ele>59.617207</ele>
        <time>2023-05-05T17:40:27.165Z</time>
      </trkpt>
      <trkpt lat="47.63797" lon="-2.09412">
        <ele>59.559702</ele>
        <time>2023-05-05T17:40:31.159Z</time>
      </trkpt>
      <trkpt lat="47.63791" lon="-2.09422">
        <ele>59.507773</ele>
        <time>2023-05-05T17:40:34.156Z</time>
      </trkpt>
      <trkpt lat="47.63784" lon="-2.09434">
        <ele>59.448377</ele>
        <time>2023-05-05T17:40:37.157Z</time>
      </trkpt>
      <trkpt lat="47.63564" lon="-2.10192">
        <ele>55.658831</ele>
        <time>2023-05-05T17:49:15.166Z</time>
      </trkpt>
      <trkpt lat="47.63553" lon="-2.10195">
        <ele>55.711599</ele>
        <time>2023-05-05T17:49:19.160Z</time>
      </trkpt>
      <trkpt lat="47.63543" lon="-2.10196">
        <ele>55.757206</ele>
        <time>2023-05-05T17:49:22.159Z</time>
      </trkpt>
      <trkpt lat="47.63533" lon="-2.10196">
        <ele>55.802291</ele>
        <time>2023-05-05T17:49:25.160Z</time>
      </trkpt>
      <trkpt lat="47.63521" lon="-2.10195">
        <ele>55.858669</ele>
        <time>2023-05-05T17:49:29.154Z</time>
      </trkpt>
      <trkpt lat="47.63512" lon="-2.10195">
        <ele>55.903771</ele>
        <time>2023-05-05T17:49:32.160Z</time>
      </trkpt>
      <trkpt lat="47.63502" lon="-2.10195">
        <ele>55.944071</ele>
        <time>2023-05-05T17:49:35.160Z</time>
      </trkpt>
      <trkpt lat="47.63493" lon="-2.10194">
        <ele>55.944493</ele>
        <time>2023-05-05T17:49:38.160Z</time>
      </trkpt>
      <trkpt lat="47.63484" lon="-2.10193">
        <ele>55.944921</ele>
        <time>2023-05-05T17:49:41.158Z</time>
      </trkpt>
      <trkpt lat="47.63475" lon="-2.10193">
        <ele>55.945338</ele>
        <time>2023-05-05T17:49:44.150Z</time>
      </trkpt>
      <trkpt lat="47.63464" lon="-2.10193">
        <ele>55.94585</ele>
        <time>2023-05-05T17:49:48.163Z</time>
      </trkpt>
      <trkpt lat="47.63454" lon="-2.10192">
        <ele>55.946304</ele>
        <time>2023-05-05T17:49:51.161Z</time>
      </trkpt>
      <trkpt lat="47.63445" lon="-2.10192">
        <ele>55.946725</ele>
        <time>2023-05-05T17:49:54.157Z</time>
      </trkpt>
      <trkpt lat="47.59814" lon="-2.1008">
        <ele>56.108664</ele>
        <time>2023-05-05T18:28:46.784Z</time>
      </trkpt>
    </trkseg>
  </trk>
</gpx>